<?xml version="1.0" encoding="UTF-8" standalone="no" ?>
<gpx xmlns="http://www.topografix.com/GPX/1/1" xmlns:xsi="http://www.w3.org/2001/XMLSchema-instance" xsi:schemaLocation="http://www.topografix.com/GPX/1/1 http://www.topografix.com/GPX/1/1/gpx.xsd" version="1.1" creator="VisuGPX - https://www.visugpx.com">
  <metadata>
    <name>2021-03-01 11:55:38</name>
    <desc><![CDATA[CEZAIS  : Les Couets  =  8.640 km]]></desc>
  </metadata>
  <trk>
    <name><![CDATA[2021-03-01 11:55:38]]></name>
    <trkseg>
      <trkpt lat="46.594" lon="-0.81335">
        <ele>81.85</ele>
        <time>2021-03-01T07:14:50Z</time>
      </trkpt>
      <trkpt lat="46.594" lon="-0.81336">
        <ele>81.85</ele>
        <time>2021-03-01T07:15:12Z</time>
      </trkpt>
      <trkpt lat="46.59399" lon="-0.81336">
        <ele>81.85</ele>
        <time>2021-03-01T07:15:25Z</time>
      </trkpt>
      <trkpt lat="46.594" lon="-0.81338">
        <ele>81.85</ele>
        <time>2021-03-01T07:15:47Z</time>
      </trkpt>
      <trkpt lat="46.59399" lon="-0.81335">
        <ele>81.85</ele>
        <time>2021-03-01T07:16:09Z</time>
      </trkpt>
      <trkpt lat="46.59399" lon="-0.81335">
        <ele>79.93</ele>
        <time>2021-03-01T07:16:27Z</time>
      </trkpt>
      <trkpt lat="46.59394" lon="-0.81345">
        <ele>78.48</ele>
        <time>2021-03-01T07:29:56Z</time>
      </trkpt>
      <trkpt lat="46.59398" lon="-0.81333">
        <ele>78.48</ele>
        <time>2021-03-01T07:30:07Z</time>
      </trkpt>
      <trkpt lat="46.59399" lon="-0.81331">
        <ele>78.48</ele>
        <time>2021-03-01T07:30:21Z</time>
      </trkpt>
      <trkpt lat="46.59398" lon="-0.8133">
        <ele>78.48</ele>
        <time>2021-03-01T07:30:35Z</time>
      </trkpt>
      <trkpt lat="46.594" lon="-0.81331">
        <ele>78.48</ele>
        <time>2021-03-01T07:30:53Z</time>
      </trkpt>
      <trkpt lat="46.594" lon="-0.81333">
        <ele>78.48</ele>
        <time>2021-03-01T07:31:00Z</time>
      </trkpt>
      <trkpt lat="46.59398" lon="-0.81336">
        <ele>78.48</ele>
        <time>2021-03-01T07:31:15Z</time>
      </trkpt>
      <trkpt lat="46.59399" lon="-0.81335">
        <ele>78.48</ele>
        <time>2021-03-01T07:31:23Z</time>
      </trkpt>
      <trkpt lat="46.59401" lon="-0.81333">
        <ele>78.48</ele>
        <time>2021-03-01T07:31:35Z</time>
      </trkpt>
      <trkpt lat="46.5941" lon="-0.81335">
        <ele>78.48</ele>
        <time>2021-03-01T07:31:44Z</time>
      </trkpt>
      <trkpt lat="46.59406" lon="-0.81334">
        <ele>78.48</ele>
        <time>2021-03-01T07:31:52Z</time>
      </trkpt>
      <trkpt lat="46.59406" lon="-0.81334">
        <ele>78.48</ele>
        <time>2021-03-01T07:32:00Z</time>
      </trkpt>
      <trkpt lat="46.59405" lon="-0.81334">
        <ele>78.48</ele>
        <time>2021-03-01T07:32:08Z</time>
      </trkpt>
      <trkpt lat="46.59405" lon="-0.81333">
        <ele>78.48</ele>
        <time>2021-03-01T07:32:17Z</time>
      </trkpt>
      <trkpt lat="46.59402" lon="-0.81333">
        <ele>78.48</ele>
        <time>2021-03-01T07:32:24Z</time>
      </trkpt>
      <trkpt lat="46.59397" lon="-0.81331">
        <ele>78</ele>
        <time>2021-03-01T07:32:33Z</time>
      </trkpt>
      <trkpt lat="46.59393" lon="-0.8133">
        <ele>78</ele>
        <time>2021-03-01T07:32:41Z</time>
      </trkpt>
      <trkpt lat="46.59394" lon="-0.81332">
        <ele>78.48</ele>
        <time>2021-03-01T07:32:57Z</time>
      </trkpt>
      <trkpt lat="46.59393" lon="-0.81332">
        <ele>78.48</ele>
        <time>2021-03-01T07:33:11Z</time>
      </trkpt>
      <trkpt lat="46.59392" lon="-0.81333">
        <ele>78.48</ele>
        <time>2021-03-01T07:33:25Z</time>
      </trkpt>
      <trkpt lat="46.59391" lon="-0.81332">
        <ele>78</ele>
        <time>2021-03-01T07:33:36Z</time>
      </trkpt>
      <trkpt lat="46.59391" lon="-0.8133">
        <ele>78</ele>
        <time>2021-03-01T07:33:45Z</time>
      </trkpt>
      <trkpt lat="46.59392" lon="-0.81331">
        <ele>78</ele>
        <time>2021-03-01T07:33:57Z</time>
      </trkpt>
      <trkpt lat="46.59391" lon="-0.81332">
        <ele>78</ele>
        <time>2021-03-01T07:34:16Z</time>
      </trkpt>
      <trkpt lat="46.5939" lon="-0.81331">
        <ele>78</ele>
        <time>2021-03-01T07:34:32Z</time>
      </trkpt>
      <trkpt lat="46.59391" lon="-0.81332">
        <ele>78</ele>
        <time>2021-03-01T07:34:49Z</time>
      </trkpt>
      <trkpt lat="46.59391" lon="-0.81331">
        <ele>78</ele>
        <time>2021-03-01T07:34:59Z</time>
      </trkpt>
      <trkpt lat="46.59392" lon="-0.8133">
        <ele>78</ele>
        <time>2021-03-01T07:35:11Z</time>
      </trkpt>
      <trkpt lat="46.59391" lon="-0.81331">
        <ele>78</ele>
        <time>2021-03-01T07:35:21Z</time>
      </trkpt>
      <trkpt lat="46.59392" lon="-0.81329">
        <ele>78</ele>
        <time>2021-03-01T07:35:30Z</time>
      </trkpt>
      <trkpt lat="46.59392" lon="-0.81329">
        <ele>78</ele>
        <time>2021-03-01T07:35:42Z</time>
      </trkpt>
      <trkpt lat="46.59391" lon="-0.8133">
        <ele>78</ele>
        <time>2021-03-01T07:35:51Z</time>
      </trkpt>
      <trkpt lat="46.59391" lon="-0.81331">
        <ele>78</ele>
        <time>2021-03-01T07:36:03Z</time>
      </trkpt>
      <trkpt lat="46.59389" lon="-0.81331">
        <ele>78</ele>
        <time>2021-03-01T07:36:19Z</time>
      </trkpt>
      <trkpt lat="46.59389" lon="-0.81331">
        <ele>78</ele>
        <time>2021-03-01T07:36:33Z</time>
      </trkpt>
      <trkpt lat="46.5939" lon="-0.81331">
        <ele>77.52</ele>
        <time>2021-03-01T07:36:44Z</time>
      </trkpt>
      <trkpt lat="46.59389" lon="-0.81331">
        <ele>77.52</ele>
        <time>2021-03-01T07:37:03Z</time>
      </trkpt>
      <trkpt lat="46.59389" lon="-0.81331">
        <ele>77.52</ele>
        <time>2021-03-01T07:37:09Z</time>
      </trkpt>
      <trkpt lat="46.59391" lon="-0.81332">
        <ele>77.52</ele>
        <time>2021-03-01T07:37:16Z</time>
      </trkpt>
      <trkpt lat="46.59391" lon="-0.8133">
        <ele>77.52</ele>
        <time>2021-03-01T07:37:32Z</time>
      </trkpt>
      <trkpt lat="46.5939" lon="-0.8133">
        <ele>77.52</ele>
        <time>2021-03-01T07:37:44Z</time>
      </trkpt>
      <trkpt lat="46.5939" lon="-0.81331">
        <ele>77.52</ele>
        <time>2021-03-01T07:37:56Z</time>
      </trkpt>
      <trkpt lat="46.59391" lon="-0.81332">
        <ele>77.04</ele>
        <time>2021-03-01T07:38:10Z</time>
      </trkpt>
      <trkpt lat="46.59391" lon="-0.81332">
        <ele>77.04</ele>
        <time>2021-03-01T07:38:18Z</time>
      </trkpt>
      <trkpt lat="46.5939" lon="-0.81332">
        <ele>77.04</ele>
        <time>2021-03-01T07:38:30Z</time>
      </trkpt>
      <trkpt lat="46.5939" lon="-0.81329">
        <ele>77.04</ele>
        <time>2021-03-01T07:38:42Z</time>
      </trkpt>
      <trkpt lat="46.59392" lon="-0.81328">
        <ele>77.04</ele>
        <time>2021-03-01T07:38:56Z</time>
      </trkpt>
      <trkpt lat="46.59393" lon="-0.81329">
        <ele>77.04</ele>
        <time>2021-03-01T07:39:06Z</time>
      </trkpt>
      <trkpt lat="46.59393" lon="-0.81328">
        <ele>77.04</ele>
        <time>2021-03-01T07:39:23Z</time>
      </trkpt>
      <trkpt lat="46.59393" lon="-0.81329">
        <ele>77.04</ele>
        <time>2021-03-01T07:39:39Z</time>
      </trkpt>
      <trkpt lat="46.59394" lon="-0.8133">
        <ele>77.04</ele>
        <time>2021-03-01T07:39:48Z</time>
      </trkpt>
      <trkpt lat="46.59391" lon="-0.8133">
        <ele>77.04</ele>
        <time>2021-03-01T07:40:04Z</time>
      </trkpt>
      <trkpt lat="46.5939" lon="-0.81324">
        <ele>77.04</ele>
        <time>2021-03-01T07:40:27Z</time>
      </trkpt>
      <trkpt lat="46.59391" lon="-0.81325">
        <ele>77.04</ele>
        <time>2021-03-01T07:40:40Z</time>
      </trkpt>
      <trkpt lat="46.59394" lon="-0.8133">
        <ele>77.04</ele>
        <time>2021-03-01T07:40:51Z</time>
      </trkpt>
      <trkpt lat="46.59396" lon="-0.8133">
        <ele>77.04</ele>
        <time>2021-03-01T07:41:01Z</time>
      </trkpt>
      <trkpt lat="46.59396" lon="-0.81326">
        <ele>77.04</ele>
        <time>2021-03-01T07:41:16Z</time>
      </trkpt>
      <trkpt lat="46.59398" lon="-0.81325">
        <ele>77.04</ele>
        <time>2021-03-01T07:41:34Z</time>
      </trkpt>
      <trkpt lat="46.59398" lon="-0.81323">
        <ele>77.04</ele>
        <time>2021-03-01T07:41:53Z</time>
      </trkpt>
      <trkpt lat="46.594" lon="-0.81322">
        <ele>77.04</ele>
        <time>2021-03-01T07:42:11Z</time>
      </trkpt>
      <trkpt lat="46.594" lon="-0.81323">
        <ele>77.04</ele>
        <time>2021-03-01T07:42:28Z</time>
      </trkpt>
      <trkpt lat="46.594" lon="-0.81324">
        <ele>77.04</ele>
        <time>2021-03-01T07:42:48Z</time>
      </trkpt>
      <trkpt lat="46.594" lon="-0.81325">
        <ele>77.04</ele>
        <time>2021-03-01T07:43:02Z</time>
      </trkpt>
      <trkpt lat="46.59402" lon="-0.81323">
        <ele>77.52</ele>
        <time>2021-03-01T07:43:24Z</time>
      </trkpt>
      <trkpt lat="46.59401" lon="-0.81325">
        <ele>77.52</ele>
        <time>2021-03-01T07:43:42Z</time>
      </trkpt>
      <trkpt lat="46.59401" lon="-0.81325">
        <ele>77.52</ele>
        <time>2021-03-01T07:44:00Z</time>
      </trkpt>
      <trkpt lat="46.59401" lon="-0.81325">
        <ele>77.52</ele>
        <time>2021-03-01T07:44:14Z</time>
      </trkpt>
      <trkpt lat="46.594" lon="-0.81325">
        <ele>78.97</ele>
        <time>2021-03-01T07:44:27Z</time>
      </trkpt>
      <trkpt lat="46.59399" lon="-0.81323">
        <ele>77.52</ele>
        <time>2021-03-01T07:44:29Z</time>
      </trkpt>
      <trkpt lat="46.59395" lon="-0.81321">
        <ele>77.52</ele>
        <time>2021-03-01T07:44:46Z</time>
      </trkpt>
      <trkpt lat="46.59396" lon="-0.81322">
        <ele>77.52</ele>
        <time>2021-03-01T07:44:59Z</time>
      </trkpt>
      <trkpt lat="46.59397" lon="-0.81322">
        <ele>78.48</ele>
        <time>2021-03-01T07:45:12Z</time>
      </trkpt>
      <trkpt lat="46.59398" lon="-0.81319">
        <ele>78.48</ele>
        <time>2021-03-01T07:45:25Z</time>
      </trkpt>
      <trkpt lat="46.59399" lon="-0.81315">
        <ele>78.48</ele>
        <time>2021-03-01T07:45:39Z</time>
      </trkpt>
      <trkpt lat="46.594" lon="-0.81316">
        <ele>78.48</ele>
        <time>2021-03-01T07:45:54Z</time>
      </trkpt>
      <trkpt lat="46.59402" lon="-0.81317">
        <ele>78.48</ele>
        <time>2021-03-01T07:46:05Z</time>
      </trkpt>
      <trkpt lat="46.59404" lon="-0.8132">
        <ele>78.48</ele>
        <time>2021-03-01T07:46:17Z</time>
      </trkpt>
      <trkpt lat="46.59404" lon="-0.81325">
        <ele>78.97</ele>
        <time>2021-03-01T07:46:34Z</time>
      </trkpt>
      <trkpt lat="46.59405" lon="-0.81329">
        <ele>78.97</ele>
        <time>2021-03-01T07:46:45Z</time>
      </trkpt>
      <trkpt lat="46.59405" lon="-0.8133">
        <ele>78.97</ele>
        <time>2021-03-01T07:46:56Z</time>
      </trkpt>
      <trkpt lat="46.59405" lon="-0.81331">
        <ele>78.97</ele>
        <time>2021-03-01T07:47:04Z</time>
      </trkpt>
      <trkpt lat="46.59402" lon="-0.81328">
        <ele>78.97</ele>
        <time>2021-03-01T07:47:20Z</time>
      </trkpt>
      <trkpt lat="46.59404" lon="-0.81329">
        <ele>78.97</ele>
        <time>2021-03-01T07:47:33Z</time>
      </trkpt>
      <trkpt lat="46.59403" lon="-0.81329">
        <ele>78.97</ele>
        <time>2021-03-01T07:47:54Z</time>
      </trkpt>
      <trkpt lat="46.59404" lon="-0.81332">
        <ele>78.97</ele>
        <time>2021-03-01T07:48:13Z</time>
      </trkpt>
      <trkpt lat="46.59401" lon="-0.81332">
        <ele>78.48</ele>
        <time>2021-03-01T07:48:33Z</time>
      </trkpt>
      <trkpt lat="46.59401" lon="-0.81333">
        <ele>78.48</ele>
        <time>2021-03-01T07:48:53Z</time>
      </trkpt>
      <trkpt lat="46.59397" lon="-0.81334">
        <ele>78.48</ele>
        <time>2021-03-01T07:49:02Z</time>
      </trkpt>
      <trkpt lat="46.59394" lon="-0.81333">
        <ele>78.48</ele>
        <time>2021-03-01T07:49:11Z</time>
      </trkpt>
      <trkpt lat="46.59396" lon="-0.81332">
        <ele>78.48</ele>
        <time>2021-03-01T07:49:19Z</time>
      </trkpt>
      <trkpt lat="46.59398" lon="-0.81334">
        <ele>76.56</ele>
        <time>2021-03-01T07:49:31Z</time>
      </trkpt>
      <trkpt lat="46.59399" lon="-0.81332">
        <ele>77.04</ele>
        <time>2021-03-01T07:49:42Z</time>
      </trkpt>
      <trkpt lat="46.59396" lon="-0.81332">
        <ele>77.04</ele>
        <time>2021-03-01T07:49:50Z</time>
      </trkpt>
      <trkpt lat="46.59395" lon="-0.81332">
        <ele>78.48</ele>
        <time>2021-03-01T07:50:00Z</time>
      </trkpt>
      <trkpt lat="46.59395" lon="-0.81332">
        <ele>78.48</ele>
        <time>2021-03-01T07:50:09Z</time>
      </trkpt>
      <trkpt lat="46.59392" lon="-0.8133">
        <ele>78.48</ele>
        <time>2021-03-01T07:50:20Z</time>
      </trkpt>
      <trkpt lat="46.5939" lon="-0.81323">
        <ele>78.48</ele>
        <time>2021-03-01T07:50:26Z</time>
      </trkpt>
      <trkpt lat="46.59388" lon="-0.81312">
        <ele>78.97</ele>
        <time>2021-03-01T07:50:32Z</time>
      </trkpt>
      <trkpt lat="46.59388" lon="-0.81299">
        <ele>79.45</ele>
        <time>2021-03-01T07:50:41Z</time>
      </trkpt>
      <trkpt lat="46.5939" lon="-0.81292">
        <ele>79.93</ele>
        <time>2021-03-01T07:50:49Z</time>
      </trkpt>
      <trkpt lat="46.59389" lon="-0.81291">
        <ele>79.93</ele>
        <time>2021-03-01T07:50:57Z</time>
      </trkpt>
      <trkpt lat="46.59389" lon="-0.81289">
        <ele>79.45</ele>
        <time>2021-03-01T07:51:05Z</time>
      </trkpt>
      <trkpt lat="46.5939" lon="-0.81288">
        <ele>79.45</ele>
        <time>2021-03-01T07:51:14Z</time>
      </trkpt>
      <trkpt lat="46.59391" lon="-0.81288">
        <ele>79.45</ele>
        <time>2021-03-01T07:51:23Z</time>
      </trkpt>
      <trkpt lat="46.59392" lon="-0.81285">
        <ele>79.45</ele>
        <time>2021-03-01T07:51:30Z</time>
      </trkpt>
      <trkpt lat="46.59394" lon="-0.8128">
        <ele>79.45</ele>
        <time>2021-03-01T07:51:38Z</time>
      </trkpt>
      <trkpt lat="46.59392" lon="-0.81275">
        <ele>79.93</ele>
        <time>2021-03-01T07:51:46Z</time>
      </trkpt>
      <trkpt lat="46.59392" lon="-0.81274">
        <ele>80.41</ele>
        <time>2021-03-01T07:51:53Z</time>
      </trkpt>
      <trkpt lat="46.59392" lon="-0.81273">
        <ele>80.41</ele>
        <time>2021-03-01T07:51:59Z</time>
      </trkpt>
      <trkpt lat="46.59392" lon="-0.81274">
        <ele>80.41</ele>
        <time>2021-03-01T07:52:08Z</time>
      </trkpt>
      <trkpt lat="46.59391" lon="-0.81275">
        <ele>80.41</ele>
        <time>2021-03-01T07:52:11Z</time>
      </trkpt>
      <trkpt lat="46.59392" lon="-0.81271">
        <ele>81.37</ele>
        <time>2021-03-01T07:52:19Z</time>
      </trkpt>
      <trkpt lat="46.59392" lon="-0.81272">
        <ele>81.37</ele>
        <time>2021-03-01T07:52:36Z</time>
      </trkpt>
      <trkpt lat="46.59392" lon="-0.81269">
        <ele>81.37</ele>
        <time>2021-03-01T07:52:49Z</time>
      </trkpt>
      <trkpt lat="46.59392" lon="-0.81265">
        <ele>81.85</ele>
        <time>2021-03-01T07:52:53Z</time>
      </trkpt>
      <trkpt lat="46.59389" lon="-0.81257">
        <ele>81.85</ele>
        <time>2021-03-01T07:53:01Z</time>
      </trkpt>
      <trkpt lat="46.59387" lon="-0.81251">
        <ele>81.85</ele>
        <time>2021-03-01T07:53:06Z</time>
      </trkpt>
      <trkpt lat="46.59382" lon="-0.81242">
        <ele>82.33</ele>
        <time>2021-03-01T07:53:15Z</time>
      </trkpt>
      <trkpt lat="46.59378" lon="-0.81235">
        <ele>82.33</ele>
        <time>2021-03-01T07:53:23Z</time>
      </trkpt>
      <trkpt lat="46.59375" lon="-0.81228">
        <ele>82.33</ele>
        <time>2021-03-01T07:53:31Z</time>
      </trkpt>
      <trkpt lat="46.5937" lon="-0.81219">
        <ele>82.33</ele>
        <time>2021-03-01T07:53:38Z</time>
      </trkpt>
      <trkpt lat="46.59367" lon="-0.81212">
        <ele>82.33</ele>
        <time>2021-03-01T07:53:46Z</time>
      </trkpt>
      <trkpt lat="46.59365" lon="-0.81207">
        <ele>82.33</ele>
        <time>2021-03-01T07:53:55Z</time>
      </trkpt>
      <trkpt lat="46.59364" lon="-0.81206">
        <ele>82.81</ele>
        <time>2021-03-01T07:54:08Z</time>
      </trkpt>
      <trkpt lat="46.59364" lon="-0.81205">
        <ele>82.81</ele>
        <time>2021-03-01T07:54:18Z</time>
      </trkpt>
      <trkpt lat="46.59362" lon="-0.81205">
        <ele>82.81</ele>
        <time>2021-03-01T07:54:25Z</time>
      </trkpt>
      <trkpt lat="46.59361" lon="-0.81203">
        <ele>82.81</ele>
        <time>2021-03-01T07:54:27Z</time>
      </trkpt>
      <trkpt lat="46.59356" lon="-0.81197">
        <ele>82.81</ele>
        <time>2021-03-01T07:54:35Z</time>
      </trkpt>
      <trkpt lat="46.59353" lon="-0.8119">
        <ele>82.81</ele>
        <time>2021-03-01T07:54:42Z</time>
      </trkpt>
      <trkpt lat="46.59351" lon="-0.81186">
        <ele>82.81</ele>
        <time>2021-03-01T07:54:46Z</time>
      </trkpt>
      <trkpt lat="46.59345" lon="-0.81176">
        <ele>82.81</ele>
        <time>2021-03-01T07:54:54Z</time>
      </trkpt>
      <trkpt lat="46.59341" lon="-0.81167">
        <ele>82.81</ele>
        <time>2021-03-01T07:55:02Z</time>
      </trkpt>
      <trkpt lat="46.59334" lon="-0.81158">
        <ele>82.81</ele>
        <time>2021-03-01T07:55:10Z</time>
      </trkpt>
      <trkpt lat="46.59327" lon="-0.81148">
        <ele>82.81</ele>
        <time>2021-03-01T07:55:19Z</time>
      </trkpt>
      <trkpt lat="46.59322" lon="-0.81137">
        <ele>82.81</ele>
        <time>2021-03-01T07:55:29Z</time>
      </trkpt>
      <trkpt lat="46.59316" lon="-0.81127">
        <ele>82.81</ele>
        <time>2021-03-01T07:55:37Z</time>
      </trkpt>
      <trkpt lat="46.59314" lon="-0.81119">
        <ele>83.29</ele>
        <time>2021-03-01T07:55:45Z</time>
      </trkpt>
      <trkpt lat="46.59311" lon="-0.81114">
        <ele>83.29</ele>
        <time>2021-03-01T07:55:51Z</time>
      </trkpt>
      <trkpt lat="46.59306" lon="-0.81108">
        <ele>83.29</ele>
        <time>2021-03-01T07:55:58Z</time>
      </trkpt>
      <trkpt lat="46.59301" lon="-0.81101">
        <ele>83.29</ele>
        <time>2021-03-01T07:56:05Z</time>
      </trkpt>
      <trkpt lat="46.59299" lon="-0.81098">
        <ele>83.77</ele>
        <time>2021-03-01T07:56:08Z</time>
      </trkpt>
      <trkpt lat="46.59293" lon="-0.81087">
        <ele>83.77</ele>
        <time>2021-03-01T07:56:17Z</time>
      </trkpt>
      <trkpt lat="46.5929" lon="-0.8108">
        <ele>83.77</ele>
        <time>2021-03-01T07:56:23Z</time>
      </trkpt>
      <trkpt lat="46.59287" lon="-0.81074">
        <ele>83.77</ele>
        <time>2021-03-01T07:56:27Z</time>
      </trkpt>
      <trkpt lat="46.59282" lon="-0.81067">
        <ele>83.77</ele>
        <time>2021-03-01T07:56:34Z</time>
      </trkpt>
      <trkpt lat="46.59276" lon="-0.81057">
        <ele>83.77</ele>
        <time>2021-03-01T07:56:42Z</time>
      </trkpt>
      <trkpt lat="46.59272" lon="-0.81048">
        <ele>83.77</ele>
        <time>2021-03-01T07:56:49Z</time>
      </trkpt>
      <trkpt lat="46.59268" lon="-0.81039">
        <ele>84.25</ele>
        <time>2021-03-01T07:56:57Z</time>
      </trkpt>
      <trkpt lat="46.59264" lon="-0.81032">
        <ele>84.25</ele>
        <time>2021-03-01T07:57:04Z</time>
      </trkpt>
      <trkpt lat="46.5926" lon="-0.81026">
        <ele>84.25</ele>
        <time>2021-03-01T07:57:11Z</time>
      </trkpt>
      <trkpt lat="46.59254" lon="-0.81014">
        <ele>84.25</ele>
        <time>2021-03-01T07:57:20Z</time>
      </trkpt>
      <trkpt lat="46.59251" lon="-0.8101">
        <ele>84.25</ele>
        <time>2021-03-01T07:57:24Z</time>
      </trkpt>
      <trkpt lat="46.59246" lon="-0.81001">
        <ele>84.25</ele>
        <time>2021-03-01T07:57:32Z</time>
      </trkpt>
      <trkpt lat="46.59238" lon="-0.80988">
        <ele>84.25</ele>
        <time>2021-03-01T07:57:42Z</time>
      </trkpt>
      <trkpt lat="46.59233" lon="-0.80981">
        <ele>84.73</ele>
        <time>2021-03-01T07:57:49Z</time>
      </trkpt>
      <trkpt lat="46.59227" lon="-0.8097">
        <ele>84.73</ele>
        <time>2021-03-01T07:57:57Z</time>
      </trkpt>
      <trkpt lat="46.59222" lon="-0.8096">
        <ele>84.73</ele>
        <time>2021-03-01T07:58:04Z</time>
      </trkpt>
      <trkpt lat="46.59217" lon="-0.80954">
        <ele>84.73</ele>
        <time>2021-03-01T07:58:11Z</time>
      </trkpt>
      <trkpt lat="46.59212" lon="-0.80945">
        <ele>84.73</ele>
        <time>2021-03-01T07:58:19Z</time>
      </trkpt>
      <trkpt lat="46.59207" lon="-0.80936">
        <ele>85.21</ele>
        <time>2021-03-01T07:58:27Z</time>
      </trkpt>
      <trkpt lat="46.59202" lon="-0.80926">
        <ele>85.21</ele>
        <time>2021-03-01T07:58:36Z</time>
      </trkpt>
      <trkpt lat="46.59194" lon="-0.80913">
        <ele>85.69</ele>
        <time>2021-03-01T07:58:45Z</time>
      </trkpt>
      <trkpt lat="46.59188" lon="-0.80901">
        <ele>85.69</ele>
        <time>2021-03-01T07:58:54Z</time>
      </trkpt>
      <trkpt lat="46.59182" lon="-0.80894">
        <ele>85.69</ele>
        <time>2021-03-01T07:59:01Z</time>
      </trkpt>
      <trkpt lat="46.59177" lon="-0.80888">
        <ele>85.69</ele>
        <time>2021-03-01T07:59:07Z</time>
      </trkpt>
      <trkpt lat="46.59172" lon="-0.80878">
        <ele>86.18</ele>
        <time>2021-03-01T07:59:15Z</time>
      </trkpt>
      <trkpt lat="46.59167" lon="-0.80871">
        <ele>86.18</ele>
        <time>2021-03-01T07:59:23Z</time>
      </trkpt>
      <trkpt lat="46.59162" lon="-0.80859">
        <ele>86.18</ele>
        <time>2021-03-01T07:59:31Z</time>
      </trkpt>
      <trkpt lat="46.5916" lon="-0.80852">
        <ele>86.66</ele>
        <time>2021-03-01T07:59:38Z</time>
      </trkpt>
      <trkpt lat="46.59158" lon="-0.80848">
        <ele>86.66</ele>
        <time>2021-03-01T07:59:42Z</time>
      </trkpt>
      <trkpt lat="46.59153" lon="-0.80844">
        <ele>86.66</ele>
        <time>2021-03-01T07:59:49Z</time>
      </trkpt>
      <trkpt lat="46.59149" lon="-0.80836">
        <ele>86.66</ele>
        <time>2021-03-01T07:59:55Z</time>
      </trkpt>
      <trkpt lat="46.59142" lon="-0.80825">
        <ele>86.66</ele>
        <time>2021-03-01T08:00:04Z</time>
      </trkpt>
      <trkpt lat="46.59137" lon="-0.80814">
        <ele>87.14</ele>
        <time>2021-03-01T08:00:11Z</time>
      </trkpt>
      <trkpt lat="46.59132" lon="-0.80806">
        <ele>87.14</ele>
        <time>2021-03-01T08:00:17Z</time>
      </trkpt>
      <trkpt lat="46.59125" lon="-0.80791">
        <ele>87.14</ele>
        <time>2021-03-01T08:00:26Z</time>
      </trkpt>
      <trkpt lat="46.59118" lon="-0.80781">
        <ele>87.14</ele>
        <time>2021-03-01T08:00:36Z</time>
      </trkpt>
      <trkpt lat="46.59112" lon="-0.80772">
        <ele>87.62</ele>
        <time>2021-03-01T08:00:44Z</time>
      </trkpt>
      <trkpt lat="46.59106" lon="-0.80762">
        <ele>87.62</ele>
        <time>2021-03-01T08:00:53Z</time>
      </trkpt>
      <trkpt lat="46.59101" lon="-0.80753">
        <ele>87.62</ele>
        <time>2021-03-01T08:01:00Z</time>
      </trkpt>
      <trkpt lat="46.59095" lon="-0.80744">
        <ele>87.62</ele>
        <time>2021-03-01T08:01:08Z</time>
      </trkpt>
      <trkpt lat="46.59092" lon="-0.80734">
        <ele>87.62</ele>
        <time>2021-03-01T08:01:14Z</time>
      </trkpt>
      <trkpt lat="46.59086" lon="-0.80724">
        <ele>87.62</ele>
        <time>2021-03-01T08:01:23Z</time>
      </trkpt>
      <trkpt lat="46.59081" lon="-0.80714">
        <ele>88.1</ele>
        <time>2021-03-01T08:01:31Z</time>
      </trkpt>
      <trkpt lat="46.59076" lon="-0.80707">
        <ele>88.1</ele>
        <time>2021-03-01T08:01:38Z</time>
      </trkpt>
      <trkpt lat="46.5907" lon="-0.80694">
        <ele>88.1</ele>
        <time>2021-03-01T08:01:48Z</time>
      </trkpt>
      <trkpt lat="46.59064" lon="-0.80684">
        <ele>88.1</ele>
        <time>2021-03-01T08:01:56Z</time>
      </trkpt>
      <trkpt lat="46.59058" lon="-0.80673">
        <ele>88.1</ele>
        <time>2021-03-01T08:02:04Z</time>
      </trkpt>
      <trkpt lat="46.59052" lon="-0.80661">
        <ele>88.58</ele>
        <time>2021-03-01T08:02:12Z</time>
      </trkpt>
      <trkpt lat="46.59047" lon="-0.80651">
        <ele>88.58</ele>
        <time>2021-03-01T08:02:20Z</time>
      </trkpt>
      <trkpt lat="46.59043" lon="-0.80644">
        <ele>88.58</ele>
        <time>2021-03-01T08:02:27Z</time>
      </trkpt>
      <trkpt lat="46.59038" lon="-0.80633">
        <ele>88.58</ele>
        <time>2021-03-01T08:02:34Z</time>
      </trkpt>
      <trkpt lat="46.59033" lon="-0.80623">
        <ele>88.58</ele>
        <time>2021-03-01T08:02:40Z</time>
      </trkpt>
      <trkpt lat="46.59025" lon="-0.80608">
        <ele>88.58</ele>
        <time>2021-03-01T08:02:50Z</time>
      </trkpt>
      <trkpt lat="46.59022" lon="-0.80602">
        <ele>88.58</ele>
        <time>2021-03-01T08:02:55Z</time>
      </trkpt>
      <trkpt lat="46.59018" lon="-0.80595">
        <ele>88.58</ele>
        <time>2021-03-01T08:03:03Z</time>
      </trkpt>
      <trkpt lat="46.59012" lon="-0.80587">
        <ele>88.58</ele>
        <time>2021-03-01T08:03:11Z</time>
      </trkpt>
      <trkpt lat="46.59012" lon="-0.80586">
        <ele>88.58</ele>
        <time>2021-03-01T08:03:12Z</time>
      </trkpt>
      <trkpt lat="46.59006" lon="-0.80578">
        <ele>89.06</ele>
        <time>2021-03-01T08:03:22Z</time>
      </trkpt>
      <trkpt lat="46.59005" lon="-0.80578">
        <ele>89.54</ele>
        <time>2021-03-01T08:03:32Z</time>
      </trkpt>
      <trkpt lat="46.59005" lon="-0.80577">
        <ele>89.54</ele>
        <time>2021-03-01T08:03:47Z</time>
      </trkpt>
      <trkpt lat="46.59006" lon="-0.80578">
        <ele>89.54</ele>
        <time>2021-03-01T08:03:58Z</time>
      </trkpt>
      <trkpt lat="46.59006" lon="-0.80577">
        <ele>89.54</ele>
        <time>2021-03-01T08:04:10Z</time>
      </trkpt>
      <trkpt lat="46.59004" lon="-0.80568">
        <ele>89.54</ele>
        <time>2021-03-01T08:04:18Z</time>
      </trkpt>
      <trkpt lat="46.59002" lon="-0.80563">
        <ele>89.54</ele>
        <time>2021-03-01T08:04:25Z</time>
      </trkpt>
      <trkpt lat="46.59002" lon="-0.80563">
        <ele>89.54</ele>
        <time>2021-03-01T08:04:34Z</time>
      </trkpt>
      <trkpt lat="46.59002" lon="-0.80561">
        <ele>89.54</ele>
        <time>2021-03-01T08:04:41Z</time>
      </trkpt>
      <trkpt lat="46.59002" lon="-0.80561">
        <ele>89.54</ele>
        <time>2021-03-01T08:04:50Z</time>
      </trkpt>
      <trkpt lat="46.59001" lon="-0.80561">
        <ele>89.54</ele>
        <time>2021-03-01T08:04:59Z</time>
      </trkpt>
      <trkpt lat="46.59001" lon="-0.80559">
        <ele>89.54</ele>
        <time>2021-03-01T08:05:07Z</time>
      </trkpt>
      <trkpt lat="46.59002" lon="-0.80559">
        <ele>89.54</ele>
        <time>2021-03-01T08:05:16Z</time>
      </trkpt>
      <trkpt lat="46.59003" lon="-0.8056">
        <ele>89.54</ele>
        <time>2021-03-01T08:05:27Z</time>
      </trkpt>
      <trkpt lat="46.59004" lon="-0.8056">
        <ele>89.54</ele>
        <time>2021-03-01T08:05:40Z</time>
      </trkpt>
      <trkpt lat="46.59003" lon="-0.80561">
        <ele>89.54</ele>
        <time>2021-03-01T08:05:50Z</time>
      </trkpt>
      <trkpt lat="46.59003" lon="-0.80561">
        <ele>89.54</ele>
        <time>2021-03-01T08:06:07Z</time>
      </trkpt>
      <trkpt lat="46.59001" lon="-0.80559">
        <ele>89.54</ele>
        <time>2021-03-01T08:06:20Z</time>
      </trkpt>
      <trkpt lat="46.59001" lon="-0.8056">
        <ele>89.54</ele>
        <time>2021-03-01T08:06:32Z</time>
      </trkpt>
      <trkpt lat="46.59001" lon="-0.80561">
        <ele>89.54</ele>
        <time>2021-03-01T08:06:33Z</time>
      </trkpt>
      <trkpt lat="46.59001" lon="-0.80559">
        <ele>89.54</ele>
        <time>2021-03-01T08:06:38Z</time>
      </trkpt>
      <trkpt lat="46.59001" lon="-0.80559">
        <ele>89.54</ele>
        <time>2021-03-01T08:06:45Z</time>
      </trkpt>
      <trkpt lat="46.59001" lon="-0.8056">
        <ele>89.54</ele>
        <time>2021-03-01T08:06:54Z</time>
      </trkpt>
      <trkpt lat="46.59001" lon="-0.80559">
        <ele>89.54</ele>
        <time>2021-03-01T08:07:01Z</time>
      </trkpt>
      <trkpt lat="46.59002" lon="-0.80563">
        <ele>89.54</ele>
        <time>2021-03-01T08:07:17Z</time>
      </trkpt>
      <trkpt lat="46.59001" lon="-0.80561">
        <ele>89.54</ele>
        <time>2021-03-01T08:07:28Z</time>
      </trkpt>
      <trkpt lat="46.59" lon="-0.80558">
        <ele>89.06</ele>
        <time>2021-03-01T08:07:34Z</time>
      </trkpt>
      <trkpt lat="46.59002" lon="-0.80558">
        <ele>89.06</ele>
        <time>2021-03-01T08:07:44Z</time>
      </trkpt>
      <trkpt lat="46.59002" lon="-0.80559">
        <ele>89.06</ele>
        <time>2021-03-01T08:08:03Z</time>
      </trkpt>
      <trkpt lat="46.59001" lon="-0.80556">
        <ele>89.06</ele>
        <time>2021-03-01T08:08:14Z</time>
      </trkpt>
      <trkpt lat="46.58999" lon="-0.80556">
        <ele>89.06</ele>
        <time>2021-03-01T08:08:22Z</time>
      </trkpt>
      <trkpt lat="46.58998" lon="-0.80555">
        <ele>89.06</ele>
        <time>2021-03-01T08:08:34Z</time>
      </trkpt>
      <trkpt lat="46.58997" lon="-0.8055">
        <ele>89.06</ele>
        <time>2021-03-01T08:08:38Z</time>
      </trkpt>
      <trkpt lat="46.58991" lon="-0.80539">
        <ele>89.06</ele>
        <time>2021-03-01T08:08:48Z</time>
      </trkpt>
      <trkpt lat="46.58986" lon="-0.80529">
        <ele>89.06</ele>
        <time>2021-03-01T08:08:56Z</time>
      </trkpt>
      <trkpt lat="46.5898" lon="-0.80519">
        <ele>89.06</ele>
        <time>2021-03-01T08:09:05Z</time>
      </trkpt>
      <trkpt lat="46.58976" lon="-0.80511">
        <ele>87.62</ele>
        <time>2021-03-01T08:09:12Z</time>
      </trkpt>
      <trkpt lat="46.58972" lon="-0.80504">
        <ele>87.62</ele>
        <time>2021-03-01T08:09:19Z</time>
      </trkpt>
      <trkpt lat="46.58966" lon="-0.80493">
        <ele>87.14</ele>
        <time>2021-03-01T08:09:27Z</time>
      </trkpt>
      <trkpt lat="46.58961" lon="-0.80485">
        <ele>87.14</ele>
        <time>2021-03-01T08:09:34Z</time>
      </trkpt>
      <trkpt lat="46.5896" lon="-0.80482">
        <ele>86.66</ele>
        <time>2021-03-01T08:09:36Z</time>
      </trkpt>
      <trkpt lat="46.58959" lon="-0.80479">
        <ele>86.66</ele>
        <time>2021-03-01T08:09:38Z</time>
      </trkpt>
      <trkpt lat="46.58953" lon="-0.80468">
        <ele>86.66</ele>
        <time>2021-03-01T08:09:47Z</time>
      </trkpt>
      <trkpt lat="46.58946" lon="-0.80456">
        <ele>86.66</ele>
        <time>2021-03-01T08:09:56Z</time>
      </trkpt>
      <trkpt lat="46.58943" lon="-0.80448">
        <ele>86.66</ele>
        <time>2021-03-01T08:10:04Z</time>
      </trkpt>
      <trkpt lat="46.58943" lon="-0.80447">
        <ele>86.66</ele>
        <time>2021-03-01T08:10:16Z</time>
      </trkpt>
      <trkpt lat="46.58939" lon="-0.80441">
        <ele>86.66</ele>
        <time>2021-03-01T08:10:22Z</time>
      </trkpt>
      <trkpt lat="46.58935" lon="-0.80433">
        <ele>86.66</ele>
        <time>2021-03-01T08:10:29Z</time>
      </trkpt>
      <trkpt lat="46.58931" lon="-0.80424">
        <ele>86.66</ele>
        <time>2021-03-01T08:10:36Z</time>
      </trkpt>
      <trkpt lat="46.58926" lon="-0.80415">
        <ele>86.66</ele>
        <time>2021-03-01T08:10:44Z</time>
      </trkpt>
      <trkpt lat="46.58922" lon="-0.80406">
        <ele>86.66</ele>
        <time>2021-03-01T08:10:52Z</time>
      </trkpt>
      <trkpt lat="46.5892" lon="-0.80402">
        <ele>86.66</ele>
        <time>2021-03-01T08:11:00Z</time>
      </trkpt>
      <trkpt lat="46.58914" lon="-0.80389">
        <ele>86.66</ele>
        <time>2021-03-01T08:11:09Z</time>
      </trkpt>
      <trkpt lat="46.58909" lon="-0.80376">
        <ele>86.66</ele>
        <time>2021-03-01T08:11:18Z</time>
      </trkpt>
      <trkpt lat="46.58905" lon="-0.80368">
        <ele>87.62</ele>
        <time>2021-03-01T08:11:25Z</time>
      </trkpt>
      <trkpt lat="46.58901" lon="-0.80358">
        <ele>87.62</ele>
        <time>2021-03-01T08:11:33Z</time>
      </trkpt>
      <trkpt lat="46.58897" lon="-0.80348">
        <ele>88.58</ele>
        <time>2021-03-01T08:11:40Z</time>
      </trkpt>
      <trkpt lat="46.58893" lon="-0.80339">
        <ele>88.58</ele>
        <time>2021-03-01T08:11:48Z</time>
      </trkpt>
      <trkpt lat="46.58889" lon="-0.80331">
        <ele>88.58</ele>
        <time>2021-03-01T08:11:55Z</time>
      </trkpt>
      <trkpt lat="46.58883" lon="-0.80319">
        <ele>88.58</ele>
        <time>2021-03-01T08:12:04Z</time>
      </trkpt>
      <trkpt lat="46.58879" lon="-0.80308">
        <ele>88.58</ele>
        <time>2021-03-01T08:12:12Z</time>
      </trkpt>
      <trkpt lat="46.58876" lon="-0.80302">
        <ele>88.58</ele>
        <time>2021-03-01T08:12:17Z</time>
      </trkpt>
      <trkpt lat="46.5887" lon="-0.80292">
        <ele>89.06</ele>
        <time>2021-03-01T08:12:25Z</time>
      </trkpt>
      <trkpt lat="46.58867" lon="-0.80283">
        <ele>89.54</ele>
        <time>2021-03-01T08:12:32Z</time>
      </trkpt>
      <trkpt lat="46.58863" lon="-0.80281">
        <ele>90.98</ele>
        <time>2021-03-01T08:12:39Z</time>
      </trkpt>
      <trkpt lat="46.58861" lon="-0.80284">
        <ele>90.5</ele>
        <time>2021-03-01T08:12:46Z</time>
      </trkpt>
      <trkpt lat="46.5886" lon="-0.80285">
        <ele>90.5</ele>
        <time>2021-03-01T08:12:49Z</time>
      </trkpt>
      <trkpt lat="46.58854" lon="-0.80287">
        <ele>90.5</ele>
        <time>2021-03-01T08:12:56Z</time>
      </trkpt>
      <trkpt lat="46.58855" lon="-0.80286">
        <ele>90.5</ele>
        <time>2021-03-01T08:13:04Z</time>
      </trkpt>
      <trkpt lat="46.58856" lon="-0.80286">
        <ele>90.98</ele>
        <time>2021-03-01T08:13:10Z</time>
      </trkpt>
      <trkpt lat="46.58854" lon="-0.80287">
        <ele>90.98</ele>
        <time>2021-03-01T08:13:16Z</time>
      </trkpt>
      <trkpt lat="46.58852" lon="-0.80286">
        <ele>90.98</ele>
        <time>2021-03-01T08:13:23Z</time>
      </trkpt>
      <trkpt lat="46.58852" lon="-0.80287">
        <ele>90.98</ele>
        <time>2021-03-01T08:13:30Z</time>
      </trkpt>
      <trkpt lat="46.5885" lon="-0.80285">
        <ele>90.98</ele>
        <time>2021-03-01T08:13:35Z</time>
      </trkpt>
      <trkpt lat="46.58845" lon="-0.80275">
        <ele>90.98</ele>
        <time>2021-03-01T08:13:43Z</time>
      </trkpt>
      <trkpt lat="46.58842" lon="-0.80268">
        <ele>90.98</ele>
        <time>2021-03-01T08:13:50Z</time>
      </trkpt>
      <trkpt lat="46.58837" lon="-0.80259">
        <ele>90.98</ele>
        <time>2021-03-01T08:13:58Z</time>
      </trkpt>
      <trkpt lat="46.58831" lon="-0.80249">
        <ele>91.46</ele>
        <time>2021-03-01T08:14:06Z</time>
      </trkpt>
      <trkpt lat="46.5883" lon="-0.80247">
        <ele>91.46</ele>
        <time>2021-03-01T08:14:13Z</time>
      </trkpt>
      <trkpt lat="46.58828" lon="-0.80244">
        <ele>91.46</ele>
        <time>2021-03-01T08:14:20Z</time>
      </trkpt>
      <trkpt lat="46.58827" lon="-0.8024">
        <ele>91.94</ele>
        <time>2021-03-01T08:14:23Z</time>
      </trkpt>
      <trkpt lat="46.58825" lon="-0.80236">
        <ele>91.94</ele>
        <time>2021-03-01T08:14:30Z</time>
      </trkpt>
      <trkpt lat="46.58823" lon="-0.80233">
        <ele>91.94</ele>
        <time>2021-03-01T08:14:34Z</time>
      </trkpt>
      <trkpt lat="46.58818" lon="-0.80222">
        <ele>91.94</ele>
        <time>2021-03-01T08:14:43Z</time>
      </trkpt>
      <trkpt lat="46.58813" lon="-0.80213">
        <ele>92.9</ele>
        <time>2021-03-01T08:14:50Z</time>
      </trkpt>
      <trkpt lat="46.58811" lon="-0.8021">
        <ele>92.9</ele>
        <time>2021-03-01T08:14:57Z</time>
      </trkpt>
      <trkpt lat="46.58807" lon="-0.80205">
        <ele>93.39</ele>
        <time>2021-03-01T08:15:03Z</time>
      </trkpt>
      <trkpt lat="46.58801" lon="-0.802">
        <ele>93.39</ele>
        <time>2021-03-01T08:15:10Z</time>
      </trkpt>
      <trkpt lat="46.588" lon="-0.80199">
        <ele>93.87</ele>
        <time>2021-03-01T08:15:19Z</time>
      </trkpt>
      <trkpt lat="46.58799" lon="-0.80198">
        <ele>93.87</ele>
        <time>2021-03-01T08:15:30Z</time>
      </trkpt>
      <trkpt lat="46.58794" lon="-0.80203">
        <ele>94.83</ele>
        <time>2021-03-01T08:15:38Z</time>
      </trkpt>
      <trkpt lat="46.58793" lon="-0.80205">
        <ele>93.39</ele>
        <time>2021-03-01T08:15:40Z</time>
      </trkpt>
      <trkpt lat="46.58792" lon="-0.80205">
        <ele>93.39</ele>
        <time>2021-03-01T08:15:46Z</time>
      </trkpt>
      <trkpt lat="46.58792" lon="-0.80207">
        <ele>93.39</ele>
        <time>2021-03-01T08:15:55Z</time>
      </trkpt>
      <trkpt lat="46.58793" lon="-0.80206">
        <ele>93.39</ele>
        <time>2021-03-01T08:16:01Z</time>
      </trkpt>
      <trkpt lat="46.58792" lon="-0.80207">
        <ele>93.39</ele>
        <time>2021-03-01T08:16:02Z</time>
      </trkpt>
      <trkpt lat="46.58789" lon="-0.80209">
        <ele>93.39</ele>
        <time>2021-03-01T08:16:09Z</time>
      </trkpt>
      <trkpt lat="46.58788" lon="-0.80213">
        <ele>93.39</ele>
        <time>2021-03-01T08:16:17Z</time>
      </trkpt>
      <trkpt lat="46.58786" lon="-0.80216">
        <ele>93.39</ele>
        <time>2021-03-01T08:16:24Z</time>
      </trkpt>
      <trkpt lat="46.58784" lon="-0.80219">
        <ele>93.39</ele>
        <time>2021-03-01T08:16:30Z</time>
      </trkpt>
      <trkpt lat="46.5878" lon="-0.80224">
        <ele>93.39</ele>
        <time>2021-03-01T08:16:39Z</time>
      </trkpt>
      <trkpt lat="46.58777" lon="-0.8023">
        <ele>94.83</ele>
        <time>2021-03-01T08:16:47Z</time>
      </trkpt>
      <trkpt lat="46.58775" lon="-0.80232">
        <ele>94.83</ele>
        <time>2021-03-01T08:16:51Z</time>
      </trkpt>
      <trkpt lat="46.58767" lon="-0.80244">
        <ele>94.83</ele>
        <time>2021-03-01T08:17:01Z</time>
      </trkpt>
      <trkpt lat="46.58764" lon="-0.80252">
        <ele>94.83</ele>
        <time>2021-03-01T08:17:09Z</time>
      </trkpt>
      <trkpt lat="46.58763" lon="-0.80254">
        <ele>94.35</ele>
        <time>2021-03-01T08:17:11Z</time>
      </trkpt>
      <trkpt lat="46.58758" lon="-0.80263">
        <ele>94.35</ele>
        <time>2021-03-01T08:17:19Z</time>
      </trkpt>
      <trkpt lat="46.58755" lon="-0.80271">
        <ele>94.35</ele>
        <time>2021-03-01T08:17:27Z</time>
      </trkpt>
      <trkpt lat="46.58749" lon="-0.80285">
        <ele>94.35</ele>
        <time>2021-03-01T08:17:37Z</time>
      </trkpt>
      <trkpt lat="46.58745" lon="-0.80293">
        <ele>94.35</ele>
        <time>2021-03-01T08:17:45Z</time>
      </trkpt>
      <trkpt lat="46.5874" lon="-0.80306">
        <ele>93.39</ele>
        <time>2021-03-01T08:17:53Z</time>
      </trkpt>
      <trkpt lat="46.58735" lon="-0.8032">
        <ele>93.39</ele>
        <time>2021-03-01T08:18:01Z</time>
      </trkpt>
      <trkpt lat="46.58731" lon="-0.80332">
        <ele>93.39</ele>
        <time>2021-03-01T08:18:09Z</time>
      </trkpt>
      <trkpt lat="46.58729" lon="-0.80343">
        <ele>93.39</ele>
        <time>2021-03-01T08:18:17Z</time>
      </trkpt>
      <trkpt lat="46.58728" lon="-0.80343">
        <ele>93.39</ele>
        <time>2021-03-01T08:18:27Z</time>
      </trkpt>
      <trkpt lat="46.58728" lon="-0.80344">
        <ele>93.39</ele>
        <time>2021-03-01T08:18:40Z</time>
      </trkpt>
      <trkpt lat="46.58728" lon="-0.80345">
        <ele>93.39</ele>
        <time>2021-03-01T08:18:47Z</time>
      </trkpt>
      <trkpt lat="46.58728" lon="-0.80348">
        <ele>93.39</ele>
        <time>2021-03-01T08:18:49Z</time>
      </trkpt>
      <trkpt lat="46.5873" lon="-0.80361">
        <ele>93.39</ele>
        <time>2021-03-01T08:18:58Z</time>
      </trkpt>
      <trkpt lat="46.58731" lon="-0.80368">
        <ele>92.42</ele>
        <time>2021-03-01T08:19:05Z</time>
      </trkpt>
      <trkpt lat="46.58734" lon="-0.80381">
        <ele>91.46</ele>
        <time>2021-03-01T08:19:14Z</time>
      </trkpt>
      <trkpt lat="46.58735" lon="-0.80389">
        <ele>91.46</ele>
        <time>2021-03-01T08:19:21Z</time>
      </trkpt>
      <trkpt lat="46.58736" lon="-0.80395">
        <ele>90.98</ele>
        <time>2021-03-01T08:19:28Z</time>
      </trkpt>
      <trkpt lat="46.58736" lon="-0.80397">
        <ele>90.98</ele>
        <time>2021-03-01T08:19:36Z</time>
      </trkpt>
      <trkpt lat="46.58738" lon="-0.80403">
        <ele>90.5</ele>
        <time>2021-03-01T08:19:43Z</time>
      </trkpt>
      <trkpt lat="46.5874" lon="-0.80412">
        <ele>90.02</ele>
        <time>2021-03-01T08:19:51Z</time>
      </trkpt>
      <trkpt lat="46.58741" lon="-0.80415">
        <ele>90.02</ele>
        <time>2021-03-01T08:19:59Z</time>
      </trkpt>
      <trkpt lat="46.58742" lon="-0.80421">
        <ele>89.54</ele>
        <time>2021-03-01T08:20:05Z</time>
      </trkpt>
      <trkpt lat="46.58744" lon="-0.80429">
        <ele>89.54</ele>
        <time>2021-03-01T08:20:11Z</time>
      </trkpt>
      <trkpt lat="46.58747" lon="-0.80437">
        <ele>88.58</ele>
        <time>2021-03-01T08:20:18Z</time>
      </trkpt>
      <trkpt lat="46.58748" lon="-0.80439">
        <ele>88.58</ele>
        <time>2021-03-01T08:20:19Z</time>
      </trkpt>
      <trkpt lat="46.58751" lon="-0.8045">
        <ele>88.1</ele>
        <time>2021-03-01T08:20:26Z</time>
      </trkpt>
      <trkpt lat="46.58754" lon="-0.80458">
        <ele>88.1</ele>
        <time>2021-03-01T08:20:31Z</time>
      </trkpt>
      <trkpt lat="46.58757" lon="-0.80467">
        <ele>87.62</ele>
        <time>2021-03-01T08:20:38Z</time>
      </trkpt>
      <trkpt lat="46.58759" lon="-0.80477">
        <ele>87.14</ele>
        <time>2021-03-01T08:20:45Z</time>
      </trkpt>
      <trkpt lat="46.58762" lon="-0.80486">
        <ele>87.14</ele>
        <time>2021-03-01T08:20:52Z</time>
      </trkpt>
      <trkpt lat="46.58762" lon="-0.80487">
        <ele>87.14</ele>
        <time>2021-03-01T08:20:53Z</time>
      </trkpt>
      <trkpt lat="46.58763" lon="-0.80493">
        <ele>86.66</ele>
        <time>2021-03-01T08:20:58Z</time>
      </trkpt>
      <trkpt lat="46.58764" lon="-0.80501">
        <ele>86.66</ele>
        <time>2021-03-01T08:21:04Z</time>
      </trkpt>
      <trkpt lat="46.58766" lon="-0.80511">
        <ele>86.66</ele>
        <time>2021-03-01T08:21:11Z</time>
      </trkpt>
      <trkpt lat="46.58767" lon="-0.80516">
        <ele>86.18</ele>
        <time>2021-03-01T08:21:15Z</time>
      </trkpt>
      <trkpt lat="46.58767" lon="-0.80527">
        <ele>86.18</ele>
        <time>2021-03-01T08:21:22Z</time>
      </trkpt>
      <trkpt lat="46.58768" lon="-0.80532">
        <ele>85.69</ele>
        <time>2021-03-01T08:21:26Z</time>
      </trkpt>
      <trkpt lat="46.5877" lon="-0.80543">
        <ele>85.69</ele>
        <time>2021-03-01T08:21:33Z</time>
      </trkpt>
      <trkpt lat="46.58771" lon="-0.80555">
        <ele>85.69</ele>
        <time>2021-03-01T08:21:41Z</time>
      </trkpt>
      <trkpt lat="46.58772" lon="-0.80566">
        <ele>85.21</ele>
        <time>2021-03-01T08:21:48Z</time>
      </trkpt>
      <trkpt lat="46.58774" lon="-0.80576">
        <ele>85.21</ele>
        <time>2021-03-01T08:21:55Z</time>
      </trkpt>
      <trkpt lat="46.58774" lon="-0.80578">
        <ele>85.21</ele>
        <time>2021-03-01T08:22:03Z</time>
      </trkpt>
      <trkpt lat="46.58774" lon="-0.80581">
        <ele>85.21</ele>
        <time>2021-03-01T08:22:14Z</time>
      </trkpt>
      <trkpt lat="46.58774" lon="-0.80585">
        <ele>85.21</ele>
        <time>2021-03-01T08:22:19Z</time>
      </trkpt>
      <trkpt lat="46.58776" lon="-0.8059">
        <ele>84.73</ele>
        <time>2021-03-01T08:22:23Z</time>
      </trkpt>
      <trkpt lat="46.58776" lon="-0.80601">
        <ele>84.73</ele>
        <time>2021-03-01T08:22:30Z</time>
      </trkpt>
      <trkpt lat="46.58777" lon="-0.80605">
        <ele>84.73</ele>
        <time>2021-03-01T08:22:33Z</time>
      </trkpt>
      <trkpt lat="46.58778" lon="-0.80611">
        <ele>84.73</ele>
        <time>2021-03-01T08:22:39Z</time>
      </trkpt>
      <trkpt lat="46.58778" lon="-0.80613">
        <ele>84.73</ele>
        <time>2021-03-01T08:22:42Z</time>
      </trkpt>
      <trkpt lat="46.58779" lon="-0.80618">
        <ele>84.73</ele>
        <time>2021-03-01T08:22:48Z</time>
      </trkpt>
      <trkpt lat="46.58778" lon="-0.80624">
        <ele>84.73</ele>
        <time>2021-03-01T08:22:54Z</time>
      </trkpt>
      <trkpt lat="46.58778" lon="-0.80624">
        <ele>84.73</ele>
        <time>2021-03-01T08:22:58Z</time>
      </trkpt>
      <trkpt lat="46.58779" lon="-0.80629">
        <ele>84.73</ele>
        <time>2021-03-01T08:23:02Z</time>
      </trkpt>
      <trkpt lat="46.5878" lon="-0.80646">
        <ele>84.25</ele>
        <time>2021-03-01T08:23:11Z</time>
      </trkpt>
      <trkpt lat="46.58781" lon="-0.80654">
        <ele>84.25</ele>
        <time>2021-03-01T08:23:17Z</time>
      </trkpt>
      <trkpt lat="46.58783" lon="-0.80664">
        <ele>84.25</ele>
        <time>2021-03-01T08:23:24Z</time>
      </trkpt>
      <trkpt lat="46.58785" lon="-0.80672">
        <ele>84.25</ele>
        <time>2021-03-01T08:23:31Z</time>
      </trkpt>
      <trkpt lat="46.58788" lon="-0.80681">
        <ele>84.25</ele>
        <time>2021-03-01T08:23:37Z</time>
      </trkpt>
      <trkpt lat="46.58791" lon="-0.80691">
        <ele>84.25</ele>
        <time>2021-03-01T08:23:45Z</time>
      </trkpt>
      <trkpt lat="46.58792" lon="-0.80692">
        <ele>84.25</ele>
        <time>2021-03-01T08:23:46Z</time>
      </trkpt>
      <trkpt lat="46.58797" lon="-0.80704">
        <ele>84.25</ele>
        <time>2021-03-01T08:23:54Z</time>
      </trkpt>
      <trkpt lat="46.58801" lon="-0.80712">
        <ele>84.25</ele>
        <time>2021-03-01T08:24:00Z</time>
      </trkpt>
      <trkpt lat="46.58805" lon="-0.80719">
        <ele>84.25</ele>
        <time>2021-03-01T08:24:06Z</time>
      </trkpt>
      <trkpt lat="46.58811" lon="-0.80729">
        <ele>84.25</ele>
        <time>2021-03-01T08:24:14Z</time>
      </trkpt>
      <trkpt lat="46.58817" lon="-0.80738">
        <ele>84.25</ele>
        <time>2021-03-01T08:24:22Z</time>
      </trkpt>
      <trkpt lat="46.5882" lon="-0.80745">
        <ele>84.25</ele>
        <time>2021-03-01T08:24:27Z</time>
      </trkpt>
      <trkpt lat="46.58826" lon="-0.80753">
        <ele>85.21</ele>
        <time>2021-03-01T08:24:35Z</time>
      </trkpt>
      <trkpt lat="46.58826" lon="-0.80755">
        <ele>85.69</ele>
        <time>2021-03-01T08:24:36Z</time>
      </trkpt>
      <trkpt lat="46.58831" lon="-0.80765">
        <ele>85.69</ele>
        <time>2021-03-01T08:24:44Z</time>
      </trkpt>
      <trkpt lat="46.58833" lon="-0.80771">
        <ele>86.18</ele>
        <time>2021-03-01T08:24:49Z</time>
      </trkpt>
      <trkpt lat="46.58838" lon="-0.80782">
        <ele>86.66</ele>
        <time>2021-03-01T08:24:57Z</time>
      </trkpt>
      <trkpt lat="46.5884" lon="-0.80789">
        <ele>87.14</ele>
        <time>2021-03-01T08:25:03Z</time>
      </trkpt>
      <trkpt lat="46.58844" lon="-0.80797">
        <ele>87.14</ele>
        <time>2021-03-01T08:25:09Z</time>
      </trkpt>
      <trkpt lat="46.58848" lon="-0.80803">
        <ele>87.14</ele>
        <time>2021-03-01T08:25:14Z</time>
      </trkpt>
      <trkpt lat="46.58853" lon="-0.80815">
        <ele>87.14</ele>
        <time>2021-03-01T08:25:23Z</time>
      </trkpt>
      <trkpt lat="46.58855" lon="-0.8082">
        <ele>85.69</ele>
        <time>2021-03-01T08:25:26Z</time>
      </trkpt>
      <trkpt lat="46.58857" lon="-0.80826">
        <ele>85.69</ele>
        <time>2021-03-01T08:25:32Z</time>
      </trkpt>
      <trkpt lat="46.5886" lon="-0.80833">
        <ele>85.69</ele>
        <time>2021-03-01T08:25:38Z</time>
      </trkpt>
      <trkpt lat="46.58862" lon="-0.80839">
        <ele>85.69</ele>
        <time>2021-03-01T08:25:44Z</time>
      </trkpt>
      <trkpt lat="46.58864" lon="-0.80838">
        <ele>85.69</ele>
        <time>2021-03-01T08:25:49Z</time>
      </trkpt>
      <trkpt lat="46.58864" lon="-0.80838">
        <ele>85.69</ele>
        <time>2021-03-01T08:25:56Z</time>
      </trkpt>
      <trkpt lat="46.58864" lon="-0.80839">
        <ele>85.21</ele>
        <time>2021-03-01T08:26:16Z</time>
      </trkpt>
      <trkpt lat="46.58864" lon="-0.80839">
        <ele>85.21</ele>
        <time>2021-03-01T08:26:23Z</time>
      </trkpt>
      <trkpt lat="46.58866" lon="-0.80839">
        <ele>85.21</ele>
        <time>2021-03-01T08:26:34Z</time>
      </trkpt>
      <trkpt lat="46.58866" lon="-0.8084">
        <ele>85.21</ele>
        <time>2021-03-01T08:26:40Z</time>
      </trkpt>
      <trkpt lat="46.58866" lon="-0.80838">
        <ele>85.21</ele>
        <time>2021-03-01T08:26:47Z</time>
      </trkpt>
      <trkpt lat="46.58866" lon="-0.80837">
        <ele>85.21</ele>
        <time>2021-03-01T08:27:00Z</time>
      </trkpt>
      <trkpt lat="46.58866" lon="-0.8084">
        <ele>85.21</ele>
        <time>2021-03-01T08:27:08Z</time>
      </trkpt>
      <trkpt lat="46.58863" lon="-0.80843">
        <ele>85.69</ele>
        <time>2021-03-01T08:27:16Z</time>
      </trkpt>
      <trkpt lat="46.58863" lon="-0.80843">
        <ele>86.18</ele>
        <time>2021-03-01T08:27:30Z</time>
      </trkpt>
      <trkpt lat="46.58862" lon="-0.80844">
        <ele>85.21</ele>
        <time>2021-03-01T08:27:37Z</time>
      </trkpt>
      <trkpt lat="46.58863" lon="-0.80843">
        <ele>85.21</ele>
        <time>2021-03-01T08:27:45Z</time>
      </trkpt>
      <trkpt lat="46.58863" lon="-0.80843">
        <ele>85.21</ele>
        <time>2021-03-01T08:27:46Z</time>
      </trkpt>
      <trkpt lat="46.58862" lon="-0.80844">
        <ele>85.21</ele>
        <time>2021-03-01T08:27:51Z</time>
      </trkpt>
      <trkpt lat="46.58861" lon="-0.80843">
        <ele>85.21</ele>
        <time>2021-03-01T08:27:58Z</time>
      </trkpt>
      <trkpt lat="46.58859" lon="-0.80845">
        <ele>85.21</ele>
        <time>2021-03-01T08:28:01Z</time>
      </trkpt>
      <trkpt lat="46.58859" lon="-0.80846">
        <ele>84.73</ele>
        <time>2021-03-01T08:28:07Z</time>
      </trkpt>
      <trkpt lat="46.58859" lon="-0.80846">
        <ele>85.21</ele>
        <time>2021-03-01T08:28:11Z</time>
      </trkpt>
      <trkpt lat="46.58859" lon="-0.80846">
        <ele>84.73</ele>
        <time>2021-03-01T08:28:16Z</time>
      </trkpt>
      <trkpt lat="46.5886" lon="-0.80846">
        <ele>84.73</ele>
        <time>2021-03-01T08:28:23Z</time>
      </trkpt>
      <trkpt lat="46.58861" lon="-0.80846">
        <ele>84.73</ele>
        <time>2021-03-01T08:28:30Z</time>
      </trkpt>
      <trkpt lat="46.5886" lon="-0.80847">
        <ele>84.73</ele>
        <time>2021-03-01T08:28:36Z</time>
      </trkpt>
      <trkpt lat="46.58861" lon="-0.80846">
        <ele>84.73</ele>
        <time>2021-03-01T08:28:45Z</time>
      </trkpt>
      <trkpt lat="46.5886" lon="-0.80845">
        <ele>84.73</ele>
        <time>2021-03-01T08:28:59Z</time>
      </trkpt>
      <trkpt lat="46.5886" lon="-0.80846">
        <ele>84.73</ele>
        <time>2021-03-01T08:29:07Z</time>
      </trkpt>
      <trkpt lat="46.58859" lon="-0.80846">
        <ele>84.73</ele>
        <time>2021-03-01T08:29:09Z</time>
      </trkpt>
      <trkpt lat="46.58857" lon="-0.80849">
        <ele>84.73</ele>
        <time>2021-03-01T08:29:13Z</time>
      </trkpt>
      <trkpt lat="46.5885" lon="-0.80855">
        <ele>84.73</ele>
        <time>2021-03-01T08:29:21Z</time>
      </trkpt>
      <trkpt lat="46.58843" lon="-0.80861">
        <ele>84.73</ele>
        <time>2021-03-01T08:29:29Z</time>
      </trkpt>
      <trkpt lat="46.58838" lon="-0.80865">
        <ele>84.73</ele>
        <time>2021-03-01T08:29:34Z</time>
      </trkpt>
      <trkpt lat="46.5883" lon="-0.80872">
        <ele>84.73</ele>
        <time>2021-03-01T08:29:43Z</time>
      </trkpt>
      <trkpt lat="46.58823" lon="-0.80879">
        <ele>84.73</ele>
        <time>2021-03-01T08:29:50Z</time>
      </trkpt>
      <trkpt lat="46.58818" lon="-0.80885">
        <ele>86.18</ele>
        <time>2021-03-01T08:29:56Z</time>
      </trkpt>
      <trkpt lat="46.58811" lon="-0.80891">
        <ele>86.18</ele>
        <time>2021-03-01T08:30:03Z</time>
      </trkpt>
      <trkpt lat="46.58803" lon="-0.80897">
        <ele>86.66</ele>
        <time>2021-03-01T08:30:11Z</time>
      </trkpt>
      <trkpt lat="46.58795" lon="-0.80904">
        <ele>87.14</ele>
        <time>2021-03-01T08:30:19Z</time>
      </trkpt>
      <trkpt lat="46.58787" lon="-0.8091">
        <ele>87.62</ele>
        <time>2021-03-01T08:30:27Z</time>
      </trkpt>
      <trkpt lat="46.58781" lon="-0.80916">
        <ele>88.1</ele>
        <time>2021-03-01T08:30:34Z</time>
      </trkpt>
      <trkpt lat="46.58775" lon="-0.8092">
        <ele>89.06</ele>
        <time>2021-03-01T08:30:41Z</time>
      </trkpt>
      <trkpt lat="46.58769" lon="-0.80925">
        <ele>90.02</ele>
        <time>2021-03-01T08:30:47Z</time>
      </trkpt>
      <trkpt lat="46.58763" lon="-0.8093">
        <ele>90.02</ele>
        <time>2021-03-01T08:30:54Z</time>
      </trkpt>
      <trkpt lat="46.58756" lon="-0.80935">
        <ele>90.5</ele>
        <time>2021-03-01T08:31:00Z</time>
      </trkpt>
      <trkpt lat="46.58748" lon="-0.80941">
        <ele>90.98</ele>
        <time>2021-03-01T08:31:08Z</time>
      </trkpt>
      <trkpt lat="46.58747" lon="-0.80942">
        <ele>91.46</ele>
        <time>2021-03-01T08:31:13Z</time>
      </trkpt>
      <trkpt lat="46.58747" lon="-0.80943">
        <ele>91.94</ele>
        <time>2021-03-01T08:31:25Z</time>
      </trkpt>
      <trkpt lat="46.58745" lon="-0.80943">
        <ele>91.94</ele>
        <time>2021-03-01T08:31:32Z</time>
      </trkpt>
      <trkpt lat="46.58744" lon="-0.80943">
        <ele>91.94</ele>
        <time>2021-03-01T08:31:42Z</time>
      </trkpt>
      <trkpt lat="46.58743" lon="-0.80944">
        <ele>91.94</ele>
        <time>2021-03-01T08:31:51Z</time>
      </trkpt>
      <trkpt lat="46.58742" lon="-0.80943">
        <ele>91.94</ele>
        <time>2021-03-01T08:32:03Z</time>
      </trkpt>
      <trkpt lat="46.5874" lon="-0.80944">
        <ele>91.94</ele>
        <time>2021-03-01T08:32:10Z</time>
      </trkpt>
      <trkpt lat="46.58734" lon="-0.80948">
        <ele>90.02</ele>
        <time>2021-03-01T08:32:18Z</time>
      </trkpt>
      <trkpt lat="46.58729" lon="-0.80954">
        <ele>90.02</ele>
        <time>2021-03-01T08:32:25Z</time>
      </trkpt>
      <trkpt lat="46.58719" lon="-0.80963">
        <ele>89.54</ele>
        <time>2021-03-01T08:32:35Z</time>
      </trkpt>
      <trkpt lat="46.58711" lon="-0.80971">
        <ele>89.06</ele>
        <time>2021-03-01T08:32:44Z</time>
      </trkpt>
      <trkpt lat="46.58701" lon="-0.8098">
        <ele>89.06</ele>
        <time>2021-03-01T08:32:55Z</time>
      </trkpt>
      <trkpt lat="46.58694" lon="-0.80986">
        <ele>88.58</ele>
        <time>2021-03-01T08:33:03Z</time>
      </trkpt>
      <trkpt lat="46.58694" lon="-0.80987">
        <ele>88.58</ele>
        <time>2021-03-01T08:33:10Z</time>
      </trkpt>
      <trkpt lat="46.58694" lon="-0.80987">
        <ele>88.58</ele>
        <time>2021-03-01T08:33:21Z</time>
      </trkpt>
      <trkpt lat="46.5869" lon="-0.80992">
        <ele>88.58</ele>
        <time>2021-03-01T08:33:26Z</time>
      </trkpt>
      <trkpt lat="46.58683" lon="-0.81001">
        <ele>88.1</ele>
        <time>2021-03-01T08:33:34Z</time>
      </trkpt>
      <trkpt lat="46.58675" lon="-0.8101">
        <ele>88.1</ele>
        <time>2021-03-01T08:33:42Z</time>
      </trkpt>
      <trkpt lat="46.5867" lon="-0.81015">
        <ele>87.62</ele>
        <time>2021-03-01T08:33:49Z</time>
      </trkpt>
      <trkpt lat="46.58664" lon="-0.81024">
        <ele>87.62</ele>
        <time>2021-03-01T08:33:56Z</time>
      </trkpt>
      <trkpt lat="46.58657" lon="-0.81034">
        <ele>87.14</ele>
        <time>2021-03-01T08:34:05Z</time>
      </trkpt>
      <trkpt lat="46.58647" lon="-0.81046">
        <ele>86.66</ele>
        <time>2021-03-01T08:34:15Z</time>
      </trkpt>
      <trkpt lat="46.5864" lon="-0.81053">
        <ele>86.66</ele>
        <time>2021-03-01T08:34:23Z</time>
      </trkpt>
      <trkpt lat="46.58632" lon="-0.81064">
        <ele>85.69</ele>
        <time>2021-03-01T08:34:32Z</time>
      </trkpt>
      <trkpt lat="46.58625" lon="-0.81074">
        <ele>85.21</ele>
        <time>2021-03-01T08:34:39Z</time>
      </trkpt>
      <trkpt lat="46.58617" lon="-0.81083">
        <ele>84.73</ele>
        <time>2021-03-01T08:34:48Z</time>
      </trkpt>
      <trkpt lat="46.58609" lon="-0.81095">
        <ele>84.25</ele>
        <time>2021-03-01T08:34:58Z</time>
      </trkpt>
      <trkpt lat="46.58601" lon="-0.81106">
        <ele>83.77</ele>
        <time>2021-03-01T08:35:06Z</time>
      </trkpt>
      <trkpt lat="46.58596" lon="-0.8111">
        <ele>83.29</ele>
        <time>2021-03-01T08:35:12Z</time>
      </trkpt>
      <trkpt lat="46.58589" lon="-0.81119">
        <ele>83.29</ele>
        <time>2021-03-01T08:35:21Z</time>
      </trkpt>
      <trkpt lat="46.58582" lon="-0.8113">
        <ele>83.29</ele>
        <time>2021-03-01T08:35:28Z</time>
      </trkpt>
      <trkpt lat="46.5858" lon="-0.81132">
        <ele>83.29</ele>
        <time>2021-03-01T08:35:32Z</time>
      </trkpt>
      <trkpt lat="46.58578" lon="-0.81134">
        <ele>82.81</ele>
        <time>2021-03-01T08:35:34Z</time>
      </trkpt>
      <trkpt lat="46.58573" lon="-0.81143">
        <ele>82.81</ele>
        <time>2021-03-01T08:35:41Z</time>
      </trkpt>
      <trkpt lat="46.58569" lon="-0.81156">
        <ele>82.81</ele>
        <time>2021-03-01T08:35:48Z</time>
      </trkpt>
      <trkpt lat="46.58566" lon="-0.81163">
        <ele>82.81</ele>
        <time>2021-03-01T08:35:55Z</time>
      </trkpt>
      <trkpt lat="46.58563" lon="-0.8117">
        <ele>82.81</ele>
        <time>2021-03-01T08:36:00Z</time>
      </trkpt>
      <trkpt lat="46.5856" lon="-0.81183">
        <ele>82.81</ele>
        <time>2021-03-01T08:36:08Z</time>
      </trkpt>
      <trkpt lat="46.58557" lon="-0.81196">
        <ele>82.81</ele>
        <time>2021-03-01T08:36:15Z</time>
      </trkpt>
      <trkpt lat="46.58557" lon="-0.81198">
        <ele>82.81</ele>
        <time>2021-03-01T08:36:16Z</time>
      </trkpt>
      <trkpt lat="46.58555" lon="-0.81209">
        <ele>82.33</ele>
        <time>2021-03-01T08:36:26Z</time>
      </trkpt>
      <trkpt lat="46.58553" lon="-0.81212">
        <ele>82.33</ele>
        <time>2021-03-01T08:36:40Z</time>
      </trkpt>
      <trkpt lat="46.58551" lon="-0.81225">
        <ele>82.33</ele>
        <time>2021-03-01T08:36:47Z</time>
      </trkpt>
      <trkpt lat="46.58549" lon="-0.81236">
        <ele>82.33</ele>
        <time>2021-03-01T08:36:55Z</time>
      </trkpt>
      <trkpt lat="46.58546" lon="-0.81244">
        <ele>82.33</ele>
        <time>2021-03-01T08:37:03Z</time>
      </trkpt>
      <trkpt lat="46.58541" lon="-0.81253">
        <ele>82.33</ele>
        <time>2021-03-01T08:37:12Z</time>
      </trkpt>
      <trkpt lat="46.58536" lon="-0.81256">
        <ele>82.33</ele>
        <time>2021-03-01T08:37:20Z</time>
      </trkpt>
      <trkpt lat="46.58536" lon="-0.81256">
        <ele>81.85</ele>
        <time>2021-03-01T08:37:29Z</time>
      </trkpt>
      <trkpt lat="46.58537" lon="-0.81255">
        <ele>81.85</ele>
        <time>2021-03-01T08:37:38Z</time>
      </trkpt>
      <trkpt lat="46.58538" lon="-0.81257">
        <ele>81.37</ele>
        <time>2021-03-01T08:37:51Z</time>
      </trkpt>
      <trkpt lat="46.58537" lon="-0.81259">
        <ele>81.37</ele>
        <time>2021-03-01T08:37:59Z</time>
      </trkpt>
      <trkpt lat="46.58537" lon="-0.8126">
        <ele>81.37</ele>
        <time>2021-03-01T08:38:06Z</time>
      </trkpt>
      <trkpt lat="46.58536" lon="-0.8126">
        <ele>81.37</ele>
        <time>2021-03-01T08:38:14Z</time>
      </trkpt>
      <trkpt lat="46.58538" lon="-0.8126">
        <ele>81.37</ele>
        <time>2021-03-01T08:38:22Z</time>
      </trkpt>
      <trkpt lat="46.58538" lon="-0.81259">
        <ele>81.37</ele>
        <time>2021-03-01T08:38:29Z</time>
      </trkpt>
      <trkpt lat="46.58539" lon="-0.81258">
        <ele>81.37</ele>
        <time>2021-03-01T08:38:35Z</time>
      </trkpt>
      <trkpt lat="46.58539" lon="-0.81258">
        <ele>81.37</ele>
        <time>2021-03-01T08:38:37Z</time>
      </trkpt>
      <trkpt lat="46.58536" lon="-0.81252">
        <ele>81.37</ele>
        <time>2021-03-01T08:38:45Z</time>
      </trkpt>
      <trkpt lat="46.58532" lon="-0.81242">
        <ele>81.37</ele>
        <time>2021-03-01T08:38:53Z</time>
      </trkpt>
      <trkpt lat="46.58528" lon="-0.81233">
        <ele>82.81</ele>
        <time>2021-03-01T08:39:00Z</time>
      </trkpt>
      <trkpt lat="46.58524" lon="-0.81221">
        <ele>83.29</ele>
        <time>2021-03-01T08:39:08Z</time>
      </trkpt>
      <trkpt lat="46.58522" lon="-0.81215">
        <ele>83.29</ele>
        <time>2021-03-01T08:39:13Z</time>
      </trkpt>
      <trkpt lat="46.58517" lon="-0.812">
        <ele>83.77</ele>
        <time>2021-03-01T08:39:23Z</time>
      </trkpt>
      <trkpt lat="46.58512" lon="-0.81187">
        <ele>84.25</ele>
        <time>2021-03-01T08:39:32Z</time>
      </trkpt>
      <trkpt lat="46.58508" lon="-0.81173">
        <ele>84.25</ele>
        <time>2021-03-01T08:39:40Z</time>
      </trkpt>
      <trkpt lat="46.58504" lon="-0.81156">
        <ele>84.73</ele>
        <time>2021-03-01T08:39:51Z</time>
      </trkpt>
      <trkpt lat="46.58499" lon="-0.81145">
        <ele>83.29</ele>
        <time>2021-03-01T08:40:00Z</time>
      </trkpt>
      <trkpt lat="46.58494" lon="-0.81128">
        <ele>83.29</ele>
        <time>2021-03-01T08:40:12Z</time>
      </trkpt>
      <trkpt lat="46.58486" lon="-0.81111">
        <ele>81.85</ele>
        <time>2021-03-01T08:40:25Z</time>
      </trkpt>
      <trkpt lat="46.58481" lon="-0.81097">
        <ele>81.85</ele>
        <time>2021-03-01T08:40:33Z</time>
      </trkpt>
      <trkpt lat="46.58476" lon="-0.81086">
        <ele>81.37</ele>
        <time>2021-03-01T08:40:42Z</time>
      </trkpt>
      <trkpt lat="46.58472" lon="-0.81076">
        <ele>80.89</ele>
        <time>2021-03-01T08:40:50Z</time>
      </trkpt>
      <trkpt lat="46.58466" lon="-0.81061">
        <ele>80.89</ele>
        <time>2021-03-01T08:41:00Z</time>
      </trkpt>
      <trkpt lat="46.58459" lon="-0.81044">
        <ele>80.41</ele>
        <time>2021-03-01T08:41:12Z</time>
      </trkpt>
      <trkpt lat="46.58453" lon="-0.8103">
        <ele>79.93</ele>
        <time>2021-03-01T08:41:20Z</time>
      </trkpt>
      <trkpt lat="46.58447" lon="-0.81017">
        <ele>79.45</ele>
        <time>2021-03-01T08:41:29Z</time>
      </trkpt>
      <trkpt lat="46.58443" lon="-0.81006">
        <ele>78.97</ele>
        <time>2021-03-01T08:41:37Z</time>
      </trkpt>
      <trkpt lat="46.58437" lon="-0.80996">
        <ele>78.97</ele>
        <time>2021-03-01T08:41:43Z</time>
      </trkpt>
      <trkpt lat="46.58433" lon="-0.80987">
        <ele>78.48</ele>
        <time>2021-03-01T08:41:52Z</time>
      </trkpt>
      <trkpt lat="46.58431" lon="-0.80985">
        <ele>78.48</ele>
        <time>2021-03-01T08:42:03Z</time>
      </trkpt>
      <trkpt lat="46.58426" lon="-0.80975">
        <ele>78.48</ele>
        <time>2021-03-01T08:42:11Z</time>
      </trkpt>
      <trkpt lat="46.58423" lon="-0.80972">
        <ele>78.48</ele>
        <time>2021-03-01T08:42:14Z</time>
      </trkpt>
      <trkpt lat="46.58415" lon="-0.80959">
        <ele>78</ele>
        <time>2021-03-01T08:42:23Z</time>
      </trkpt>
      <trkpt lat="46.58407" lon="-0.80948">
        <ele>78</ele>
        <time>2021-03-01T08:42:32Z</time>
      </trkpt>
      <trkpt lat="46.58403" lon="-0.8094">
        <ele>78</ele>
        <time>2021-03-01T08:42:41Z</time>
      </trkpt>
      <trkpt lat="46.58395" lon="-0.80932">
        <ele>78</ele>
        <time>2021-03-01T08:42:47Z</time>
      </trkpt>
      <trkpt lat="46.58389" lon="-0.80922">
        <ele>77.52</ele>
        <time>2021-03-01T08:42:55Z</time>
      </trkpt>
      <trkpt lat="46.58387" lon="-0.8092">
        <ele>77.52</ele>
        <time>2021-03-01T08:42:57Z</time>
      </trkpt>
      <trkpt lat="46.58381" lon="-0.80908">
        <ele>77.52</ele>
        <time>2021-03-01T08:43:06Z</time>
      </trkpt>
      <trkpt lat="46.58378" lon="-0.80901">
        <ele>77.52</ele>
        <time>2021-03-01T08:43:13Z</time>
      </trkpt>
      <trkpt lat="46.58372" lon="-0.80893">
        <ele>77.52</ele>
        <time>2021-03-01T08:43:20Z</time>
      </trkpt>
      <trkpt lat="46.58371" lon="-0.8089">
        <ele>77.52</ele>
        <time>2021-03-01T08:43:22Z</time>
      </trkpt>
      <trkpt lat="46.58363" lon="-0.80876">
        <ele>77.04</ele>
        <time>2021-03-01T08:43:33Z</time>
      </trkpt>
      <trkpt lat="46.58356" lon="-0.80862">
        <ele>77.04</ele>
        <time>2021-03-01T08:43:43Z</time>
      </trkpt>
      <trkpt lat="46.58351" lon="-0.80853">
        <ele>77.04</ele>
        <time>2021-03-01T08:43:49Z</time>
      </trkpt>
      <trkpt lat="46.58346" lon="-0.80842">
        <ele>77.04</ele>
        <time>2021-03-01T08:43:57Z</time>
      </trkpt>
      <trkpt lat="46.5834" lon="-0.80831">
        <ele>76.56</ele>
        <time>2021-03-01T08:44:06Z</time>
      </trkpt>
      <trkpt lat="46.58335" lon="-0.8082">
        <ele>76.56</ele>
        <time>2021-03-01T08:44:14Z</time>
      </trkpt>
      <trkpt lat="46.5833" lon="-0.80809">
        <ele>76.08</ele>
        <time>2021-03-01T08:44:20Z</time>
      </trkpt>
      <trkpt lat="46.58327" lon="-0.80804">
        <ele>75.6</ele>
        <time>2021-03-01T08:44:25Z</time>
      </trkpt>
      <trkpt lat="46.5832" lon="-0.80795">
        <ele>74.64</ele>
        <time>2021-03-01T08:44:33Z</time>
      </trkpt>
      <trkpt lat="46.58314" lon="-0.80785">
        <ele>73.68</ele>
        <time>2021-03-01T08:44:41Z</time>
      </trkpt>
      <trkpt lat="46.58309" lon="-0.80776">
        <ele>73.2</ele>
        <time>2021-03-01T08:44:49Z</time>
      </trkpt>
      <trkpt lat="46.58302" lon="-0.80766">
        <ele>72.72</ele>
        <time>2021-03-01T08:44:57Z</time>
      </trkpt>
      <trkpt lat="46.583" lon="-0.80762">
        <ele>72.72</ele>
        <time>2021-03-01T08:45:02Z</time>
      </trkpt>
      <trkpt lat="46.58293" lon="-0.80752">
        <ele>72.24</ele>
        <time>2021-03-01T08:45:10Z</time>
      </trkpt>
      <trkpt lat="46.58286" lon="-0.80743">
        <ele>72.24</ele>
        <time>2021-03-01T08:45:18Z</time>
      </trkpt>
      <trkpt lat="46.5828" lon="-0.80736">
        <ele>71.76</ele>
        <time>2021-03-01T08:45:25Z</time>
      </trkpt>
      <trkpt lat="46.58275" lon="-0.80728">
        <ele>71.76</ele>
        <time>2021-03-01T08:45:32Z</time>
      </trkpt>
      <trkpt lat="46.58268" lon="-0.8072">
        <ele>71.76</ele>
        <time>2021-03-01T08:45:40Z</time>
      </trkpt>
      <trkpt lat="46.58262" lon="-0.8071">
        <ele>71.76</ele>
        <time>2021-03-01T08:45:49Z</time>
      </trkpt>
      <trkpt lat="46.58253" lon="-0.80699">
        <ele>71.76</ele>
        <time>2021-03-01T08:45:59Z</time>
      </trkpt>
      <trkpt lat="46.58251" lon="-0.80695">
        <ele>71.76</ele>
        <time>2021-03-01T08:46:03Z</time>
      </trkpt>
      <trkpt lat="46.58244" lon="-0.80689">
        <ele>71.76</ele>
        <time>2021-03-01T08:46:11Z</time>
      </trkpt>
      <trkpt lat="46.58242" lon="-0.80686">
        <ele>71.76</ele>
        <time>2021-03-01T08:46:18Z</time>
      </trkpt>
      <trkpt lat="46.58241" lon="-0.80682">
        <ele>71.76</ele>
        <time>2021-03-01T08:46:21Z</time>
      </trkpt>
      <trkpt lat="46.58238" lon="-0.80679">
        <ele>71.76</ele>
        <time>2021-03-01T08:46:29Z</time>
      </trkpt>
      <trkpt lat="46.58238" lon="-0.80678">
        <ele>73.2</ele>
        <time>2021-03-01T08:46:42Z</time>
      </trkpt>
      <trkpt lat="46.58237" lon="-0.80677">
        <ele>73.2</ele>
        <time>2021-03-01T08:46:53Z</time>
      </trkpt>
      <trkpt lat="46.58237" lon="-0.80678">
        <ele>73.2</ele>
        <time>2021-03-01T08:47:08Z</time>
      </trkpt>
      <trkpt lat="46.58239" lon="-0.80678">
        <ele>73.2</ele>
        <time>2021-03-01T08:47:22Z</time>
      </trkpt>
      <trkpt lat="46.58239" lon="-0.80678">
        <ele>73.2</ele>
        <time>2021-03-01T08:47:38Z</time>
      </trkpt>
      <trkpt lat="46.58237" lon="-0.80675">
        <ele>73.2</ele>
        <time>2021-03-01T08:47:42Z</time>
      </trkpt>
      <trkpt lat="46.58233" lon="-0.80666">
        <ele>73.2</ele>
        <time>2021-03-01T08:47:50Z</time>
      </trkpt>
      <trkpt lat="46.5823" lon="-0.80659">
        <ele>73.2</ele>
        <time>2021-03-01T08:47:57Z</time>
      </trkpt>
      <trkpt lat="46.58231" lon="-0.80658">
        <ele>73.68</ele>
        <time>2021-03-01T08:48:04Z</time>
      </trkpt>
      <trkpt lat="46.5823" lon="-0.80656">
        <ele>73.68</ele>
        <time>2021-03-01T08:48:10Z</time>
      </trkpt>
      <trkpt lat="46.58231" lon="-0.80654">
        <ele>73.68</ele>
        <time>2021-03-01T08:48:17Z</time>
      </trkpt>
      <trkpt lat="46.58231" lon="-0.80652">
        <ele>73.68</ele>
        <time>2021-03-01T08:48:25Z</time>
      </trkpt>
      <trkpt lat="46.58231" lon="-0.80649">
        <ele>73.68</ele>
        <time>2021-03-01T08:48:32Z</time>
      </trkpt>
      <trkpt lat="46.58231" lon="-0.80647">
        <ele>73.68</ele>
        <time>2021-03-01T08:48:35Z</time>
      </trkpt>
      <trkpt lat="46.5823" lon="-0.80638">
        <ele>73.68</ele>
        <time>2021-03-01T08:48:43Z</time>
      </trkpt>
      <trkpt lat="46.5823" lon="-0.80633">
        <ele>73.68</ele>
        <time>2021-03-01T08:48:48Z</time>
      </trkpt>
      <trkpt lat="46.5823" lon="-0.80628">
        <ele>73.68</ele>
        <time>2021-03-01T08:48:57Z</time>
      </trkpt>
      <trkpt lat="46.58231" lon="-0.80623">
        <ele>73.68</ele>
        <time>2021-03-01T08:49:04Z</time>
      </trkpt>
      <trkpt lat="46.58231" lon="-0.80619">
        <ele>73.68</ele>
        <time>2021-03-01T08:49:10Z</time>
      </trkpt>
      <trkpt lat="46.58231" lon="-0.80617">
        <ele>73.68</ele>
        <time>2021-03-01T08:49:16Z</time>
      </trkpt>
      <trkpt lat="46.5823" lon="-0.80608">
        <ele>73.68</ele>
        <time>2021-03-01T08:49:25Z</time>
      </trkpt>
      <trkpt lat="46.5823" lon="-0.80605">
        <ele>73.68</ele>
        <time>2021-03-01T08:49:32Z</time>
      </trkpt>
      <trkpt lat="46.58231" lon="-0.806">
        <ele>74.16</ele>
        <time>2021-03-01T08:49:37Z</time>
      </trkpt>
      <trkpt lat="46.58231" lon="-0.80597">
        <ele>74.16</ele>
        <time>2021-03-01T08:49:41Z</time>
      </trkpt>
      <trkpt lat="46.58231" lon="-0.8059">
        <ele>74.64</ele>
        <time>2021-03-01T08:49:49Z</time>
      </trkpt>
      <trkpt lat="46.58231" lon="-0.80585">
        <ele>74.64</ele>
        <time>2021-03-01T08:49:57Z</time>
      </trkpt>
      <trkpt lat="46.58229" lon="-0.80578">
        <ele>74.64</ele>
        <time>2021-03-01T08:50:04Z</time>
      </trkpt>
      <trkpt lat="46.58229" lon="-0.80568">
        <ele>75.12</ele>
        <time>2021-03-01T08:50:13Z</time>
      </trkpt>
      <trkpt lat="46.58228" lon="-0.80567">
        <ele>75.12</ele>
        <time>2021-03-01T08:50:28Z</time>
      </trkpt>
      <trkpt lat="46.58228" lon="-0.80566">
        <ele>75.6</ele>
        <time>2021-03-01T08:50:35Z</time>
      </trkpt>
      <trkpt lat="46.58229" lon="-0.80567">
        <ele>75.6</ele>
        <time>2021-03-01T08:50:44Z</time>
      </trkpt>
      <trkpt lat="46.58228" lon="-0.80567">
        <ele>75.6</ele>
        <time>2021-03-01T08:50:51Z</time>
      </trkpt>
      <trkpt lat="46.58228" lon="-0.80566">
        <ele>75.6</ele>
        <time>2021-03-01T08:51:11Z</time>
      </trkpt>
      <trkpt lat="46.58228" lon="-0.80565">
        <ele>75.6</ele>
        <time>2021-03-01T08:51:23Z</time>
      </trkpt>
      <trkpt lat="46.58228" lon="-0.80563">
        <ele>75.6</ele>
        <time>2021-03-01T08:51:34Z</time>
      </trkpt>
      <trkpt lat="46.58228" lon="-0.8056">
        <ele>75.6</ele>
        <time>2021-03-01T08:51:42Z</time>
      </trkpt>
      <trkpt lat="46.58228" lon="-0.80559">
        <ele>75.6</ele>
        <time>2021-03-01T08:51:43Z</time>
      </trkpt>
      <trkpt lat="46.58229" lon="-0.80555">
        <ele>75.6</ele>
        <time>2021-03-01T08:51:51Z</time>
      </trkpt>
      <trkpt lat="46.58228" lon="-0.80553">
        <ele>75.6</ele>
        <time>2021-03-01T08:51:53Z</time>
      </trkpt>
      <trkpt lat="46.58228" lon="-0.80546">
        <ele>76.08</ele>
        <time>2021-03-01T08:51:59Z</time>
      </trkpt>
      <trkpt lat="46.58228" lon="-0.8054">
        <ele>76.08</ele>
        <time>2021-03-01T08:52:06Z</time>
      </trkpt>
      <trkpt lat="46.58228" lon="-0.80538">
        <ele>76.56</ele>
        <time>2021-03-01T08:52:11Z</time>
      </trkpt>
      <trkpt lat="46.58228" lon="-0.80528">
        <ele>77.04</ele>
        <time>2021-03-01T08:52:19Z</time>
      </trkpt>
      <trkpt lat="46.58228" lon="-0.80524">
        <ele>77.04</ele>
        <time>2021-03-01T08:52:24Z</time>
      </trkpt>
      <trkpt lat="46.58228" lon="-0.80521">
        <ele>77.04</ele>
        <time>2021-03-01T08:52:27Z</time>
      </trkpt>
      <trkpt lat="46.58227" lon="-0.80518">
        <ele>77.52</ele>
        <time>2021-03-01T08:52:30Z</time>
      </trkpt>
      <trkpt lat="46.58227" lon="-0.8051">
        <ele>78</ele>
        <time>2021-03-01T08:52:38Z</time>
      </trkpt>
      <trkpt lat="46.58224" lon="-0.80504">
        <ele>78</ele>
        <time>2021-03-01T08:52:44Z</time>
      </trkpt>
      <trkpt lat="46.58224" lon="-0.80498">
        <ele>78.48</ele>
        <time>2021-03-01T08:52:51Z</time>
      </trkpt>
      <trkpt lat="46.58224" lon="-0.80498">
        <ele>78</ele>
        <time>2021-03-01T08:52:52Z</time>
      </trkpt>
      <trkpt lat="46.58223" lon="-0.80491">
        <ele>78.48</ele>
        <time>2021-03-01T08:53:00Z</time>
      </trkpt>
      <trkpt lat="46.58221" lon="-0.80486">
        <ele>78.97</ele>
        <time>2021-03-01T08:53:07Z</time>
      </trkpt>
      <trkpt lat="46.5822" lon="-0.8048">
        <ele>78.97</ele>
        <time>2021-03-01T08:53:13Z</time>
      </trkpt>
      <trkpt lat="46.58221" lon="-0.80472">
        <ele>79.45</ele>
        <time>2021-03-01T08:53:22Z</time>
      </trkpt>
      <trkpt lat="46.58219" lon="-0.80465">
        <ele>79.45</ele>
        <time>2021-03-01T08:53:29Z</time>
      </trkpt>
      <trkpt lat="46.58219" lon="-0.80458">
        <ele>79.45</ele>
        <time>2021-03-01T08:53:35Z</time>
      </trkpt>
      <trkpt lat="46.58218" lon="-0.80452">
        <ele>79.45</ele>
        <time>2021-03-01T08:53:41Z</time>
      </trkpt>
      <trkpt lat="46.58218" lon="-0.80447">
        <ele>79.93</ele>
        <time>2021-03-01T08:53:47Z</time>
      </trkpt>
      <trkpt lat="46.58215" lon="-0.80441">
        <ele>79.93</ele>
        <time>2021-03-01T08:53:54Z</time>
      </trkpt>
      <trkpt lat="46.58213" lon="-0.80436">
        <ele>80.41</ele>
        <time>2021-03-01T08:54:02Z</time>
      </trkpt>
      <trkpt lat="46.58212" lon="-0.80429">
        <ele>80.41</ele>
        <time>2021-03-01T08:54:09Z</time>
      </trkpt>
      <trkpt lat="46.5821" lon="-0.80422">
        <ele>80.89</ele>
        <time>2021-03-01T08:54:17Z</time>
      </trkpt>
      <trkpt lat="46.58209" lon="-0.80415">
        <ele>80.89</ele>
        <time>2021-03-01T08:54:25Z</time>
      </trkpt>
      <trkpt lat="46.58207" lon="-0.80409">
        <ele>81.37</ele>
        <time>2021-03-01T08:54:33Z</time>
      </trkpt>
      <trkpt lat="46.58207" lon="-0.80404">
        <ele>81.85</ele>
        <time>2021-03-01T08:54:38Z</time>
      </trkpt>
      <trkpt lat="46.58206" lon="-0.80399">
        <ele>81.85</ele>
        <time>2021-03-01T08:54:44Z</time>
      </trkpt>
      <trkpt lat="46.58207" lon="-0.80392">
        <ele>82.33</ele>
        <time>2021-03-01T08:54:50Z</time>
      </trkpt>
      <trkpt lat="46.58207" lon="-0.80385">
        <ele>82.33</ele>
        <time>2021-03-01T08:54:57Z</time>
      </trkpt>
      <trkpt lat="46.58206" lon="-0.80376">
        <ele>82.81</ele>
        <time>2021-03-01T08:55:07Z</time>
      </trkpt>
      <trkpt lat="46.58205" lon="-0.80368">
        <ele>83.29</ele>
        <time>2021-03-01T08:55:15Z</time>
      </trkpt>
      <trkpt lat="46.58206" lon="-0.80362">
        <ele>83.77</ele>
        <time>2021-03-01T08:55:24Z</time>
      </trkpt>
      <trkpt lat="46.58204" lon="-0.80355">
        <ele>84.25</ele>
        <time>2021-03-01T08:55:32Z</time>
      </trkpt>
      <trkpt lat="46.58202" lon="-0.80348">
        <ele>84.73</ele>
        <time>2021-03-01T08:55:37Z</time>
      </trkpt>
      <trkpt lat="46.582" lon="-0.80342">
        <ele>85.21</ele>
        <time>2021-03-01T08:55:45Z</time>
      </trkpt>
      <trkpt lat="46.58199" lon="-0.80335">
        <ele>86.18</ele>
        <time>2021-03-01T08:55:53Z</time>
      </trkpt>
      <trkpt lat="46.58199" lon="-0.80333">
        <ele>86.18</ele>
        <time>2021-03-01T08:55:55Z</time>
      </trkpt>
      <trkpt lat="46.58197" lon="-0.80325">
        <ele>87.62</ele>
        <time>2021-03-01T08:56:03Z</time>
      </trkpt>
      <trkpt lat="46.58197" lon="-0.80315">
        <ele>88.58</ele>
        <time>2021-03-01T08:56:11Z</time>
      </trkpt>
      <trkpt lat="46.58196" lon="-0.80308">
        <ele>88.58</ele>
        <time>2021-03-01T08:56:17Z</time>
      </trkpt>
      <trkpt lat="46.58196" lon="-0.80307">
        <ele>88.58</ele>
        <time>2021-03-01T08:56:19Z</time>
      </trkpt>
      <trkpt lat="46.58196" lon="-0.80302">
        <ele>89.06</ele>
        <time>2021-03-01T08:56:23Z</time>
      </trkpt>
      <trkpt lat="46.58196" lon="-0.80296">
        <ele>89.06</ele>
        <time>2021-03-01T08:56:31Z</time>
      </trkpt>
      <trkpt lat="46.58195" lon="-0.80291">
        <ele>90.02</ele>
        <time>2021-03-01T08:56:39Z</time>
      </trkpt>
      <trkpt lat="46.58194" lon="-0.80289">
        <ele>90.02</ele>
        <time>2021-03-01T08:56:49Z</time>
      </trkpt>
      <trkpt lat="46.58194" lon="-0.80284">
        <ele>90.02</ele>
        <time>2021-03-01T08:56:58Z</time>
      </trkpt>
      <trkpt lat="46.58194" lon="-0.80285">
        <ele>90.02</ele>
        <time>2021-03-01T08:57:05Z</time>
      </trkpt>
      <trkpt lat="46.58191" lon="-0.8028">
        <ele>90.5</ele>
        <time>2021-03-01T08:57:12Z</time>
      </trkpt>
      <trkpt lat="46.5819" lon="-0.80277">
        <ele>90.98</ele>
        <time>2021-03-01T08:57:21Z</time>
      </trkpt>
      <trkpt lat="46.58191" lon="-0.80275">
        <ele>90.98</ele>
        <time>2021-03-01T08:57:31Z</time>
      </trkpt>
      <trkpt lat="46.58189" lon="-0.80273">
        <ele>90.98</ele>
        <time>2021-03-01T08:57:39Z</time>
      </trkpt>
      <trkpt lat="46.58188" lon="-0.80267">
        <ele>90.98</ele>
        <time>2021-03-01T08:57:45Z</time>
      </trkpt>
      <trkpt lat="46.58188" lon="-0.80263">
        <ele>91.46</ele>
        <time>2021-03-01T08:57:50Z</time>
      </trkpt>
      <trkpt lat="46.58186" lon="-0.8026">
        <ele>91.46</ele>
        <time>2021-03-01T08:57:56Z</time>
      </trkpt>
      <trkpt lat="46.58184" lon="-0.80257">
        <ele>91.94</ele>
        <time>2021-03-01T08:58:02Z</time>
      </trkpt>
      <trkpt lat="46.5818" lon="-0.8025">
        <ele>91.94</ele>
        <time>2021-03-01T08:58:10Z</time>
      </trkpt>
      <trkpt lat="46.58177" lon="-0.80241">
        <ele>92.42</ele>
        <time>2021-03-01T08:58:20Z</time>
      </trkpt>
      <trkpt lat="46.58176" lon="-0.8024">
        <ele>92.42</ele>
        <time>2021-03-01T08:58:32Z</time>
      </trkpt>
      <trkpt lat="46.58174" lon="-0.80236">
        <ele>92.42</ele>
        <time>2021-03-01T08:58:47Z</time>
      </trkpt>
      <trkpt lat="46.58173" lon="-0.80234">
        <ele>92.42</ele>
        <time>2021-03-01T08:59:00Z</time>
      </trkpt>
      <trkpt lat="46.58171" lon="-0.80229">
        <ele>92.9</ele>
        <time>2021-03-01T08:59:08Z</time>
      </trkpt>
      <trkpt lat="46.58168" lon="-0.80223">
        <ele>92.9</ele>
        <time>2021-03-01T08:59:16Z</time>
      </trkpt>
      <trkpt lat="46.58165" lon="-0.80216">
        <ele>93.87</ele>
        <time>2021-03-01T08:59:23Z</time>
      </trkpt>
      <trkpt lat="46.58163" lon="-0.80213">
        <ele>93.87</ele>
        <time>2021-03-01T08:59:30Z</time>
      </trkpt>
      <trkpt lat="46.58162" lon="-0.80209">
        <ele>93.87</ele>
        <time>2021-03-01T08:59:37Z</time>
      </trkpt>
      <trkpt lat="46.58159" lon="-0.80204">
        <ele>93.87</ele>
        <time>2021-03-01T08:59:44Z</time>
      </trkpt>
      <trkpt lat="46.58155" lon="-0.80198">
        <ele>93.87</ele>
        <time>2021-03-01T08:59:52Z</time>
      </trkpt>
      <trkpt lat="46.58152" lon="-0.80192">
        <ele>94.35</ele>
        <time>2021-03-01T08:59:59Z</time>
      </trkpt>
      <trkpt lat="46.58149" lon="-0.80188">
        <ele>94.35</ele>
        <time>2021-03-01T09:00:05Z</time>
      </trkpt>
      <trkpt lat="46.58148" lon="-0.80185">
        <ele>94.83</ele>
        <time>2021-03-01T09:00:12Z</time>
      </trkpt>
      <trkpt lat="46.58143" lon="-0.80177">
        <ele>95.31</ele>
        <time>2021-03-01T09:00:20Z</time>
      </trkpt>
      <trkpt lat="46.58139" lon="-0.8017">
        <ele>95.79</ele>
        <time>2021-03-01T09:00:29Z</time>
      </trkpt>
      <trkpt lat="46.58137" lon="-0.80169">
        <ele>95.79</ele>
        <time>2021-03-01T09:00:40Z</time>
      </trkpt>
      <trkpt lat="46.58132" lon="-0.80158">
        <ele>96.27</ele>
        <time>2021-03-01T09:00:50Z</time>
      </trkpt>
      <trkpt lat="46.58126" lon="-0.80147">
        <ele>96.27</ele>
        <time>2021-03-01T09:01:00Z</time>
      </trkpt>
      <trkpt lat="46.58122" lon="-0.80138">
        <ele>96.27</ele>
        <time>2021-03-01T09:01:08Z</time>
      </trkpt>
      <trkpt lat="46.5812" lon="-0.80133">
        <ele>96.27</ele>
        <time>2021-03-01T09:01:14Z</time>
      </trkpt>
      <trkpt lat="46.58118" lon="-0.80131">
        <ele>96.75</ele>
        <time>2021-03-01T09:01:23Z</time>
      </trkpt>
      <trkpt lat="46.58117" lon="-0.8013">
        <ele>96.75</ele>
        <time>2021-03-01T09:01:28Z</time>
      </trkpt>
      <trkpt lat="46.58111" lon="-0.80123">
        <ele>96.75</ele>
        <time>2021-03-01T09:01:37Z</time>
      </trkpt>
      <trkpt lat="46.58105" lon="-0.80114">
        <ele>96.75</ele>
        <time>2021-03-01T09:01:45Z</time>
      </trkpt>
      <trkpt lat="46.58101" lon="-0.80109">
        <ele>96.75</ele>
        <time>2021-03-01T09:01:51Z</time>
      </trkpt>
      <trkpt lat="46.58101" lon="-0.80108">
        <ele>96.75</ele>
        <time>2021-03-01T09:01:52Z</time>
      </trkpt>
      <trkpt lat="46.58099" lon="-0.80102">
        <ele>96.75</ele>
        <time>2021-03-01T09:01:58Z</time>
      </trkpt>
      <trkpt lat="46.58095" lon="-0.80098">
        <ele>96.75</ele>
        <time>2021-03-01T09:02:06Z</time>
      </trkpt>
      <trkpt lat="46.58094" lon="-0.80096">
        <ele>96.75</ele>
        <time>2021-03-01T09:02:09Z</time>
      </trkpt>
      <trkpt lat="46.5809" lon="-0.80093">
        <ele>96.75</ele>
        <time>2021-03-01T09:02:13Z</time>
      </trkpt>
      <trkpt lat="46.58084" lon="-0.80086">
        <ele>96.75</ele>
        <time>2021-03-01T09:02:22Z</time>
      </trkpt>
      <trkpt lat="46.58077" lon="-0.80077">
        <ele>96.75</ele>
        <time>2021-03-01T09:02:30Z</time>
      </trkpt>
      <trkpt lat="46.58076" lon="-0.80074">
        <ele>96.75</ele>
        <time>2021-03-01T09:02:38Z</time>
      </trkpt>
      <trkpt lat="46.58072" lon="-0.8007">
        <ele>97.23</ele>
        <time>2021-03-01T09:02:58Z</time>
      </trkpt>
      <trkpt lat="46.58069" lon="-0.80065">
        <ele>97.23</ele>
        <time>2021-03-01T09:03:05Z</time>
      </trkpt>
      <trkpt lat="46.58063" lon="-0.8006">
        <ele>97.23</ele>
        <time>2021-03-01T09:03:14Z</time>
      </trkpt>
      <trkpt lat="46.58058" lon="-0.80056">
        <ele>97.23</ele>
        <time>2021-03-01T09:03:23Z</time>
      </trkpt>
      <trkpt lat="46.58057" lon="-0.80046">
        <ele>97.23</ele>
        <time>2021-03-01T09:03:30Z</time>
      </trkpt>
      <trkpt lat="46.58054" lon="-0.80039">
        <ele>97.23</ele>
        <time>2021-03-01T09:03:37Z</time>
      </trkpt>
      <trkpt lat="46.58047" lon="-0.80025">
        <ele>97.71</ele>
        <time>2021-03-01T09:03:47Z</time>
      </trkpt>
      <trkpt lat="46.58043" lon="-0.80013">
        <ele>97.71</ele>
        <time>2021-03-01T09:03:55Z</time>
      </trkpt>
      <trkpt lat="46.58042" lon="-0.8001">
        <ele>97.71</ele>
        <time>2021-03-01T09:03:57Z</time>
      </trkpt>
      <trkpt lat="46.58038" lon="-0.79996">
        <ele>97.71</ele>
        <time>2021-03-01T09:04:06Z</time>
      </trkpt>
      <trkpt lat="46.58036" lon="-0.79991">
        <ele>96.27</ele>
        <time>2021-03-01T09:04:09Z</time>
      </trkpt>
      <trkpt lat="46.58034" lon="-0.79981">
        <ele>96.27</ele>
        <time>2021-03-01T09:04:16Z</time>
      </trkpt>
      <trkpt lat="46.58031" lon="-0.79971">
        <ele>96.27</ele>
        <time>2021-03-01T09:04:23Z</time>
      </trkpt>
      <trkpt lat="46.5803" lon="-0.79959">
        <ele>95.79</ele>
        <time>2021-03-01T09:04:30Z</time>
      </trkpt>
      <trkpt lat="46.58027" lon="-0.79945">
        <ele>95.79</ele>
        <time>2021-03-01T09:04:38Z</time>
      </trkpt>
      <trkpt lat="46.58028" lon="-0.79931">
        <ele>95.79</ele>
        <time>2021-03-01T09:04:46Z</time>
      </trkpt>
      <trkpt lat="46.58028" lon="-0.79928">
        <ele>95.79</ele>
        <time>2021-03-01T09:04:49Z</time>
      </trkpt>
      <trkpt lat="46.58032" lon="-0.7992">
        <ele>95.31</ele>
        <time>2021-03-01T09:04:57Z</time>
      </trkpt>
      <trkpt lat="46.58032" lon="-0.79921">
        <ele>95.31</ele>
        <time>2021-03-01T09:05:05Z</time>
      </trkpt>
      <trkpt lat="46.5803" lon="-0.79924">
        <ele>95.31</ele>
        <time>2021-03-01T09:05:12Z</time>
      </trkpt>
      <trkpt lat="46.58033" lon="-0.7992">
        <ele>95.31</ele>
        <time>2021-03-01T09:05:26Z</time>
      </trkpt>
      <trkpt lat="46.5804" lon="-0.7991">
        <ele>95.31</ele>
        <time>2021-03-01T09:05:35Z</time>
      </trkpt>
      <trkpt lat="46.58041" lon="-0.79906">
        <ele>95.31</ele>
        <time>2021-03-01T09:05:38Z</time>
      </trkpt>
      <trkpt lat="46.5804" lon="-0.79892">
        <ele>95.31</ele>
        <time>2021-03-01T09:05:48Z</time>
      </trkpt>
      <trkpt lat="46.5804" lon="-0.7988">
        <ele>95.31</ele>
        <time>2021-03-01T09:05:57Z</time>
      </trkpt>
      <trkpt lat="46.58038" lon="-0.79866">
        <ele>95.31</ele>
        <time>2021-03-01T09:06:06Z</time>
      </trkpt>
      <trkpt lat="46.58037" lon="-0.79852">
        <ele>96.27</ele>
        <time>2021-03-01T09:06:15Z</time>
      </trkpt>
      <trkpt lat="46.58037" lon="-0.79841">
        <ele>96.27</ele>
        <time>2021-03-01T09:06:22Z</time>
      </trkpt>
      <trkpt lat="46.58038" lon="-0.79832">
        <ele>96.75</ele>
        <time>2021-03-01T09:06:30Z</time>
      </trkpt>
      <trkpt lat="46.58038" lon="-0.79828">
        <ele>96.75</ele>
        <time>2021-03-01T09:06:37Z</time>
      </trkpt>
      <trkpt lat="46.58039" lon="-0.79827">
        <ele>96.75</ele>
        <time>2021-03-01T09:06:48Z</time>
      </trkpt>
      <trkpt lat="46.5804" lon="-0.79828">
        <ele>96.75</ele>
        <time>2021-03-01T09:07:02Z</time>
      </trkpt>
      <trkpt lat="46.5804" lon="-0.79827">
        <ele>96.75</ele>
        <time>2021-03-01T09:07:11Z</time>
      </trkpt>
      <trkpt lat="46.5804" lon="-0.79825">
        <ele>96.75</ele>
        <time>2021-03-01T09:07:18Z</time>
      </trkpt>
      <trkpt lat="46.5804" lon="-0.79825">
        <ele>96.75</ele>
        <time>2021-03-01T09:07:27Z</time>
      </trkpt>
      <trkpt lat="46.58041" lon="-0.79827">
        <ele>96.75</ele>
        <time>2021-03-01T09:07:41Z</time>
      </trkpt>
      <trkpt lat="46.58042" lon="-0.79827">
        <ele>96.75</ele>
        <time>2021-03-01T09:07:51Z</time>
      </trkpt>
      <trkpt lat="46.58043" lon="-0.79827">
        <ele>96.75</ele>
        <time>2021-03-01T09:08:03Z</time>
      </trkpt>
      <trkpt lat="46.58042" lon="-0.79829">
        <ele>96.75</ele>
        <time>2021-03-01T09:08:13Z</time>
      </trkpt>
      <trkpt lat="46.5804" lon="-0.79826">
        <ele>97.23</ele>
        <time>2021-03-01T09:08:22Z</time>
      </trkpt>
      <trkpt lat="46.58039" lon="-0.79828">
        <ele>97.23</ele>
        <time>2021-03-01T09:08:30Z</time>
      </trkpt>
      <trkpt lat="46.58038" lon="-0.79831">
        <ele>97.23</ele>
        <time>2021-03-01T09:08:43Z</time>
      </trkpt>
      <trkpt lat="46.58038" lon="-0.79831">
        <ele>97.23</ele>
        <time>2021-03-01T09:08:46Z</time>
      </trkpt>
      <trkpt lat="46.58043" lon="-0.79831">
        <ele>97.23</ele>
        <time>2021-03-01T09:08:54Z</time>
      </trkpt>
      <trkpt lat="46.5805" lon="-0.79831">
        <ele>97.23</ele>
        <time>2021-03-01T09:09:00Z</time>
      </trkpt>
      <trkpt lat="46.58057" lon="-0.79834">
        <ele>97.23</ele>
        <time>2021-03-01T09:09:09Z</time>
      </trkpt>
      <trkpt lat="46.58058" lon="-0.79834">
        <ele>95.79</ele>
        <time>2021-03-01T09:09:12Z</time>
      </trkpt>
      <trkpt lat="46.5806" lon="-0.79835">
        <ele>95.79</ele>
        <time>2021-03-01T09:09:24Z</time>
      </trkpt>
      <trkpt lat="46.58061" lon="-0.79835">
        <ele>96.27</ele>
        <time>2021-03-01T09:09:35Z</time>
      </trkpt>
      <trkpt lat="46.5806" lon="-0.79835">
        <ele>96.27</ele>
        <time>2021-03-01T09:09:42Z</time>
      </trkpt>
      <trkpt lat="46.58061" lon="-0.79836">
        <ele>96.27</ele>
        <time>2021-03-01T09:09:44Z</time>
      </trkpt>
      <trkpt lat="46.58063" lon="-0.79834">
        <ele>96.27</ele>
        <time>2021-03-01T09:09:51Z</time>
      </trkpt>
      <trkpt lat="46.58063" lon="-0.79836">
        <ele>96.27</ele>
        <time>2021-03-01T09:09:55Z</time>
      </trkpt>
      <trkpt lat="46.58063" lon="-0.79836">
        <ele>96.27</ele>
        <time>2021-03-01T09:10:01Z</time>
      </trkpt>
      <trkpt lat="46.58067" lon="-0.79836">
        <ele>96.27</ele>
        <time>2021-03-01T09:10:08Z</time>
      </trkpt>
      <trkpt lat="46.58068" lon="-0.79837">
        <ele>96.27</ele>
        <time>2021-03-01T09:10:10Z</time>
      </trkpt>
      <trkpt lat="46.58074" lon="-0.79838">
        <ele>96.27</ele>
        <time>2021-03-01T09:10:18Z</time>
      </trkpt>
      <trkpt lat="46.5808" lon="-0.7984">
        <ele>95.79</ele>
        <time>2021-03-01T09:10:24Z</time>
      </trkpt>
      <trkpt lat="46.58088" lon="-0.79842">
        <ele>95.79</ele>
        <time>2021-03-01T09:10:31Z</time>
      </trkpt>
      <trkpt lat="46.58093" lon="-0.79845">
        <ele>95.79</ele>
        <time>2021-03-01T09:10:36Z</time>
      </trkpt>
      <trkpt lat="46.58097" lon="-0.79846">
        <ele>94.83</ele>
        <time>2021-03-01T09:10:42Z</time>
      </trkpt>
      <trkpt lat="46.58101" lon="-0.79847">
        <ele>94.83</ele>
        <time>2021-03-01T09:10:48Z</time>
      </trkpt>
      <trkpt lat="46.58107" lon="-0.79849">
        <ele>94.35</ele>
        <time>2021-03-01T09:10:55Z</time>
      </trkpt>
      <trkpt lat="46.58112" lon="-0.7985">
        <ele>94.35</ele>
        <time>2021-03-01T09:10:59Z</time>
      </trkpt>
      <trkpt lat="46.58115" lon="-0.7985">
        <ele>94.35</ele>
        <time>2021-03-01T09:11:00Z</time>
      </trkpt>
      <trkpt lat="46.58121" lon="-0.79852">
        <ele>94.35</ele>
        <time>2021-03-01T09:11:07Z</time>
      </trkpt>
      <trkpt lat="46.58129" lon="-0.79852">
        <ele>93.39</ele>
        <time>2021-03-01T09:11:13Z</time>
      </trkpt>
      <trkpt lat="46.58131" lon="-0.79852">
        <ele>93.39</ele>
        <time>2021-03-01T09:11:15Z</time>
      </trkpt>
      <trkpt lat="46.58132" lon="-0.79852">
        <ele>93.39</ele>
        <time>2021-03-01T09:11:16Z</time>
      </trkpt>
      <trkpt lat="46.58141" lon="-0.79851">
        <ele>93.39</ele>
        <time>2021-03-01T09:11:23Z</time>
      </trkpt>
      <trkpt lat="46.58152" lon="-0.7985">
        <ele>92.42</ele>
        <time>2021-03-01T09:11:30Z</time>
      </trkpt>
      <trkpt lat="46.58154" lon="-0.79851">
        <ele>91.94</ele>
        <time>2021-03-01T09:11:35Z</time>
      </trkpt>
      <trkpt lat="46.58155" lon="-0.79851">
        <ele>91.94</ele>
        <time>2021-03-01T09:11:55Z</time>
      </trkpt>
      <trkpt lat="46.58157" lon="-0.7985">
        <ele>91.94</ele>
        <time>2021-03-01T09:11:57Z</time>
      </trkpt>
      <trkpt lat="46.58166" lon="-0.79849">
        <ele>91.94</ele>
        <time>2021-03-01T09:12:05Z</time>
      </trkpt>
      <trkpt lat="46.58169" lon="-0.79849">
        <ele>91.94</ele>
        <time>2021-03-01T09:12:09Z</time>
      </trkpt>
      <trkpt lat="46.58171" lon="-0.79849">
        <ele>91.94</ele>
        <time>2021-03-01T09:12:11Z</time>
      </trkpt>
      <trkpt lat="46.58182" lon="-0.79851">
        <ele>91.46</ele>
        <time>2021-03-01T09:12:20Z</time>
      </trkpt>
      <trkpt lat="46.58193" lon="-0.79852">
        <ele>90.98</ele>
        <time>2021-03-01T09:12:28Z</time>
      </trkpt>
      <trkpt lat="46.58203" lon="-0.79854">
        <ele>90.98</ele>
        <time>2021-03-01T09:12:37Z</time>
      </trkpt>
      <trkpt lat="46.58209" lon="-0.79856">
        <ele>90.5</ele>
        <time>2021-03-01T09:12:45Z</time>
      </trkpt>
      <trkpt lat="46.5821" lon="-0.79856">
        <ele>90.5</ele>
        <time>2021-03-01T09:12:46Z</time>
      </trkpt>
      <trkpt lat="46.58212" lon="-0.79856">
        <ele>90.5</ele>
        <time>2021-03-01T09:12:47Z</time>
      </trkpt>
      <trkpt lat="46.5822" lon="-0.79858">
        <ele>90.02</ele>
        <time>2021-03-01T09:12:55Z</time>
      </trkpt>
      <trkpt lat="46.58224" lon="-0.79856">
        <ele>90.02</ele>
        <time>2021-03-01T09:13:00Z</time>
      </trkpt>
      <trkpt lat="46.58225" lon="-0.79856">
        <ele>90.02</ele>
        <time>2021-03-01T09:13:08Z</time>
      </trkpt>
      <trkpt lat="46.58229" lon="-0.79857">
        <ele>90.02</ele>
        <time>2021-03-01T09:13:16Z</time>
      </trkpt>
      <trkpt lat="46.5823" lon="-0.79855">
        <ele>90.02</ele>
        <time>2021-03-01T09:13:19Z</time>
      </trkpt>
      <trkpt lat="46.58233" lon="-0.79856">
        <ele>90.02</ele>
        <time>2021-03-01T09:13:24Z</time>
      </trkpt>
      <trkpt lat="46.58234" lon="-0.79856">
        <ele>90.02</ele>
        <time>2021-03-01T09:13:25Z</time>
      </trkpt>
      <trkpt lat="46.58238" lon="-0.79858">
        <ele>90.02</ele>
        <time>2021-03-01T09:13:30Z</time>
      </trkpt>
      <trkpt lat="46.58244" lon="-0.79859">
        <ele>90.02</ele>
        <time>2021-03-01T09:13:37Z</time>
      </trkpt>
      <trkpt lat="46.58252" lon="-0.79862">
        <ele>89.54</ele>
        <time>2021-03-01T09:13:45Z</time>
      </trkpt>
      <trkpt lat="46.58257" lon="-0.79862">
        <ele>89.54</ele>
        <time>2021-03-01T09:13:55Z</time>
      </trkpt>
      <trkpt lat="46.58259" lon="-0.79863">
        <ele>89.54</ele>
        <time>2021-03-01T09:13:59Z</time>
      </trkpt>
      <trkpt lat="46.58261" lon="-0.79863">
        <ele>89.54</ele>
        <time>2021-03-01T09:14:00Z</time>
      </trkpt>
      <trkpt lat="46.58262" lon="-0.79864">
        <ele>89.54</ele>
        <time>2021-03-01T09:14:01Z</time>
      </trkpt>
      <trkpt lat="46.58272" lon="-0.79866">
        <ele>89.54</ele>
        <time>2021-03-01T09:14:11Z</time>
      </trkpt>
      <trkpt lat="46.58279" lon="-0.79865">
        <ele>89.54</ele>
        <time>2021-03-01T09:14:18Z</time>
      </trkpt>
      <trkpt lat="46.58282" lon="-0.79865">
        <ele>89.54</ele>
        <time>2021-03-01T09:14:27Z</time>
      </trkpt>
      <trkpt lat="46.58291" lon="-0.79866">
        <ele>89.54</ele>
        <time>2021-03-01T09:14:34Z</time>
      </trkpt>
      <trkpt lat="46.58294" lon="-0.79867">
        <ele>89.54</ele>
        <time>2021-03-01T09:14:38Z</time>
      </trkpt>
      <trkpt lat="46.58295" lon="-0.79867">
        <ele>89.54</ele>
        <time>2021-03-01T09:14:39Z</time>
      </trkpt>
      <trkpt lat="46.58299" lon="-0.79868">
        <ele>89.54</ele>
        <time>2021-03-01T09:14:45Z</time>
      </trkpt>
      <trkpt lat="46.58307" lon="-0.7987">
        <ele>89.54</ele>
        <time>2021-03-01T09:14:51Z</time>
      </trkpt>
      <trkpt lat="46.58317" lon="-0.79874">
        <ele>89.54</ele>
        <time>2021-03-01T09:15:00Z</time>
      </trkpt>
      <trkpt lat="46.58325" lon="-0.79876">
        <ele>89.54</ele>
        <time>2021-03-01T09:15:08Z</time>
      </trkpt>
      <trkpt lat="46.5833" lon="-0.79878">
        <ele>89.54</ele>
        <time>2021-03-01T09:15:13Z</time>
      </trkpt>
      <trkpt lat="46.58336" lon="-0.79878">
        <ele>89.54</ele>
        <time>2021-03-01T09:15:18Z</time>
      </trkpt>
      <trkpt lat="46.58337" lon="-0.79878">
        <ele>89.54</ele>
        <time>2021-03-01T09:15:19Z</time>
      </trkpt>
      <trkpt lat="46.58351" lon="-0.79881">
        <ele>90.98</ele>
        <time>2021-03-01T09:15:30Z</time>
      </trkpt>
      <trkpt lat="46.5836" lon="-0.79882">
        <ele>90.98</ele>
        <time>2021-03-01T09:15:38Z</time>
      </trkpt>
      <trkpt lat="46.58368" lon="-0.79885">
        <ele>90.5</ele>
        <time>2021-03-01T09:15:46Z</time>
      </trkpt>
      <trkpt lat="46.58369" lon="-0.79885">
        <ele>90.5</ele>
        <time>2021-03-01T09:15:47Z</time>
      </trkpt>
      <trkpt lat="46.58374" lon="-0.79886">
        <ele>90.5</ele>
        <time>2021-03-01T09:15:52Z</time>
      </trkpt>
      <trkpt lat="46.5838" lon="-0.79887">
        <ele>91.46</ele>
        <time>2021-03-01T09:15:59Z</time>
      </trkpt>
      <trkpt lat="46.58381" lon="-0.79887">
        <ele>91.46</ele>
        <time>2021-03-01T09:16:00Z</time>
      </trkpt>
      <trkpt lat="46.58383" lon="-0.79886">
        <ele>91.46</ele>
        <time>2021-03-01T09:16:01Z</time>
      </trkpt>
      <trkpt lat="46.58391" lon="-0.79886">
        <ele>91.46</ele>
        <time>2021-03-01T09:16:09Z</time>
      </trkpt>
      <trkpt lat="46.58396" lon="-0.79887">
        <ele>91.94</ele>
        <time>2021-03-01T09:16:14Z</time>
      </trkpt>
      <trkpt lat="46.58397" lon="-0.79886">
        <ele>91.94</ele>
        <time>2021-03-01T09:16:15Z</time>
      </trkpt>
      <trkpt lat="46.58398" lon="-0.79886">
        <ele>91.94</ele>
        <time>2021-03-01T09:16:16Z</time>
      </trkpt>
      <trkpt lat="46.58408" lon="-0.79887">
        <ele>92.42</ele>
        <time>2021-03-01T09:16:25Z</time>
      </trkpt>
      <trkpt lat="46.58417" lon="-0.79888">
        <ele>92.42</ele>
        <time>2021-03-01T09:16:33Z</time>
      </trkpt>
      <trkpt lat="46.58426" lon="-0.79889">
        <ele>92.9</ele>
        <time>2021-03-01T09:16:40Z</time>
      </trkpt>
      <trkpt lat="46.58433" lon="-0.7989">
        <ele>93.39</ele>
        <time>2021-03-01T09:16:47Z</time>
      </trkpt>
      <trkpt lat="46.58441" lon="-0.79891">
        <ele>93.39</ele>
        <time>2021-03-01T09:16:55Z</time>
      </trkpt>
      <trkpt lat="46.58449" lon="-0.79893">
        <ele>93.87</ele>
        <time>2021-03-01T09:17:02Z</time>
      </trkpt>
      <trkpt lat="46.58455" lon="-0.79893">
        <ele>93.87</ele>
        <time>2021-03-01T09:17:08Z</time>
      </trkpt>
      <trkpt lat="46.58455" lon="-0.79893">
        <ele>93.87</ele>
        <time>2021-03-01T09:17:09Z</time>
      </trkpt>
      <trkpt lat="46.5846" lon="-0.79894">
        <ele>93.87</ele>
        <time>2021-03-01T09:17:14Z</time>
      </trkpt>
      <trkpt lat="46.58461" lon="-0.79894">
        <ele>93.87</ele>
        <time>2021-03-01T09:17:15Z</time>
      </trkpt>
      <trkpt lat="46.5847" lon="-0.79896">
        <ele>94.35</ele>
        <time>2021-03-01T09:17:23Z</time>
      </trkpt>
      <trkpt lat="46.58478" lon="-0.79898">
        <ele>94.83</ele>
        <time>2021-03-01T09:17:30Z</time>
      </trkpt>
      <trkpt lat="46.58486" lon="-0.79901">
        <ele>94.83</ele>
        <time>2021-03-01T09:17:38Z</time>
      </trkpt>
      <trkpt lat="46.58493" lon="-0.79904">
        <ele>94.83</ele>
        <time>2021-03-01T09:17:45Z</time>
      </trkpt>
      <trkpt lat="46.58495" lon="-0.79904">
        <ele>94.83</ele>
        <time>2021-03-01T09:17:46Z</time>
      </trkpt>
      <trkpt lat="46.58503" lon="-0.79907">
        <ele>94.83</ele>
        <time>2021-03-01T09:17:54Z</time>
      </trkpt>
      <trkpt lat="46.5851" lon="-0.79911">
        <ele>94.83</ele>
        <time>2021-03-01T09:18:01Z</time>
      </trkpt>
      <trkpt lat="46.58516" lon="-0.79914">
        <ele>93.87</ele>
        <time>2021-03-01T09:18:08Z</time>
      </trkpt>
      <trkpt lat="46.58525" lon="-0.79919">
        <ele>92.9</ele>
        <time>2021-03-01T09:18:17Z</time>
      </trkpt>
      <trkpt lat="46.58531" lon="-0.7992">
        <ele>91.94</ele>
        <time>2021-03-01T09:18:23Z</time>
      </trkpt>
      <trkpt lat="46.58541" lon="-0.79923">
        <ele>91.46</ele>
        <time>2021-03-01T09:18:32Z</time>
      </trkpt>
      <trkpt lat="46.58551" lon="-0.79924">
        <ele>90.5</ele>
        <time>2021-03-01T09:18:41Z</time>
      </trkpt>
      <trkpt lat="46.58555" lon="-0.79924">
        <ele>90.5</ele>
        <time>2021-03-01T09:18:47Z</time>
      </trkpt>
      <trkpt lat="46.58556" lon="-0.79924">
        <ele>90.5</ele>
        <time>2021-03-01T09:18:48Z</time>
      </trkpt>
      <trkpt lat="46.58558" lon="-0.79923">
        <ele>90.5</ele>
        <time>2021-03-01T09:18:49Z</time>
      </trkpt>
      <trkpt lat="46.58562" lon="-0.79922">
        <ele>90.5</ele>
        <time>2021-03-01T09:18:52Z</time>
      </trkpt>
      <trkpt lat="46.58568" lon="-0.79922">
        <ele>90.02</ele>
        <time>2021-03-01T09:18:59Z</time>
      </trkpt>
      <trkpt lat="46.58577" lon="-0.79922">
        <ele>90.5</ele>
        <time>2021-03-01T09:19:07Z</time>
      </trkpt>
      <trkpt lat="46.58587" lon="-0.7992">
        <ele>90.02</ele>
        <time>2021-03-01T09:19:15Z</time>
      </trkpt>
      <trkpt lat="46.58593" lon="-0.7992">
        <ele>90.02</ele>
        <time>2021-03-01T09:19:20Z</time>
      </trkpt>
      <trkpt lat="46.58595" lon="-0.79919">
        <ele>90.02</ele>
        <time>2021-03-01T09:19:21Z</time>
      </trkpt>
      <trkpt lat="46.58596" lon="-0.79919">
        <ele>90.02</ele>
        <time>2021-03-01T09:19:22Z</time>
      </trkpt>
      <trkpt lat="46.58597" lon="-0.79919">
        <ele>90.02</ele>
        <time>2021-03-01T09:19:23Z</time>
      </trkpt>
      <trkpt lat="46.58608" lon="-0.79918">
        <ele>90.02</ele>
        <time>2021-03-01T09:19:32Z</time>
      </trkpt>
      <trkpt lat="46.58614" lon="-0.79918">
        <ele>90.02</ele>
        <time>2021-03-01T09:19:38Z</time>
      </trkpt>
      <trkpt lat="46.58622" lon="-0.79917">
        <ele>90.02</ele>
        <time>2021-03-01T09:19:45Z</time>
      </trkpt>
      <trkpt lat="46.58629" lon="-0.79917">
        <ele>90.02</ele>
        <time>2021-03-01T09:19:52Z</time>
      </trkpt>
      <trkpt lat="46.58641" lon="-0.79919">
        <ele>90.02</ele>
        <time>2021-03-01T09:20:02Z</time>
      </trkpt>
      <trkpt lat="46.58644" lon="-0.79918">
        <ele>90.02</ele>
        <time>2021-03-01T09:20:12Z</time>
      </trkpt>
      <trkpt lat="46.58645" lon="-0.79917">
        <ele>90.02</ele>
        <time>2021-03-01T09:20:22Z</time>
      </trkpt>
      <trkpt lat="46.58646" lon="-0.79919">
        <ele>91.46</ele>
        <time>2021-03-01T09:20:29Z</time>
      </trkpt>
      <trkpt lat="46.58646" lon="-0.79919">
        <ele>91.46</ele>
        <time>2021-03-01T09:20:37Z</time>
      </trkpt>
      <trkpt lat="46.58646" lon="-0.7992">
        <ele>90.02</ele>
        <time>2021-03-01T09:20:40Z</time>
      </trkpt>
      <trkpt lat="46.58654" lon="-0.79922">
        <ele>90.02</ele>
        <time>2021-03-01T09:20:49Z</time>
      </trkpt>
      <trkpt lat="46.58657" lon="-0.79924">
        <ele>90.02</ele>
        <time>2021-03-01T09:20:57Z</time>
      </trkpt>
      <trkpt lat="46.58658" lon="-0.79926">
        <ele>90.02</ele>
        <time>2021-03-01T09:21:06Z</time>
      </trkpt>
      <trkpt lat="46.5866" lon="-0.79927">
        <ele>89.54</ele>
        <time>2021-03-01T09:21:18Z</time>
      </trkpt>
      <trkpt lat="46.58661" lon="-0.79929">
        <ele>89.54</ele>
        <time>2021-03-01T09:21:24Z</time>
      </trkpt>
      <trkpt lat="46.58661" lon="-0.79928">
        <ele>89.54</ele>
        <time>2021-03-01T09:21:25Z</time>
      </trkpt>
      <trkpt lat="46.58664" lon="-0.79926">
        <ele>89.54</ele>
        <time>2021-03-01T09:21:28Z</time>
      </trkpt>
      <trkpt lat="46.58665" lon="-0.79926">
        <ele>89.54</ele>
        <time>2021-03-01T09:21:29Z</time>
      </trkpt>
      <trkpt lat="46.58668" lon="-0.79925">
        <ele>89.54</ele>
        <time>2021-03-01T09:21:35Z</time>
      </trkpt>
      <trkpt lat="46.58671" lon="-0.79925">
        <ele>89.54</ele>
        <time>2021-03-01T09:21:41Z</time>
      </trkpt>
      <trkpt lat="46.58672" lon="-0.79925">
        <ele>89.54</ele>
        <time>2021-03-01T09:21:42Z</time>
      </trkpt>
      <trkpt lat="46.58679" lon="-0.79927">
        <ele>89.54</ele>
        <time>2021-03-01T09:21:49Z</time>
      </trkpt>
      <trkpt lat="46.58684" lon="-0.79928">
        <ele>89.54</ele>
        <time>2021-03-01T09:21:55Z</time>
      </trkpt>
      <trkpt lat="46.5869" lon="-0.79931">
        <ele>89.54</ele>
        <time>2021-03-01T09:22:02Z</time>
      </trkpt>
      <trkpt lat="46.58698" lon="-0.79932">
        <ele>90.98</ele>
        <time>2021-03-01T09:22:09Z</time>
      </trkpt>
      <trkpt lat="46.587" lon="-0.79932">
        <ele>90.98</ele>
        <time>2021-03-01T09:22:11Z</time>
      </trkpt>
      <trkpt lat="46.58701" lon="-0.79932">
        <ele>90.98</ele>
        <time>2021-03-01T09:22:12Z</time>
      </trkpt>
      <trkpt lat="46.58703" lon="-0.79932">
        <ele>90.98</ele>
        <time>2021-03-01T09:22:13Z</time>
      </trkpt>
      <trkpt lat="46.58712" lon="-0.79934">
        <ele>90.98</ele>
        <time>2021-03-01T09:22:21Z</time>
      </trkpt>
      <trkpt lat="46.58721" lon="-0.79936">
        <ele>90.98</ele>
        <time>2021-03-01T09:22:29Z</time>
      </trkpt>
      <trkpt lat="46.58729" lon="-0.7994">
        <ele>90.98</ele>
        <time>2021-03-01T09:22:37Z</time>
      </trkpt>
      <trkpt lat="46.5873" lon="-0.79939">
        <ele>90.98</ele>
        <time>2021-03-01T09:22:38Z</time>
      </trkpt>
      <trkpt lat="46.58731" lon="-0.7994">
        <ele>90.98</ele>
        <time>2021-03-01T09:22:39Z</time>
      </trkpt>
      <trkpt lat="46.58736" lon="-0.79941">
        <ele>90.98</ele>
        <time>2021-03-01T09:22:44Z</time>
      </trkpt>
      <trkpt lat="46.58739" lon="-0.79941">
        <ele>90.98</ele>
        <time>2021-03-01T09:22:46Z</time>
      </trkpt>
      <trkpt lat="46.58747" lon="-0.79943">
        <ele>90.98</ele>
        <time>2021-03-01T09:22:53Z</time>
      </trkpt>
      <trkpt lat="46.58751" lon="-0.79944">
        <ele>91.46</ele>
        <time>2021-03-01T09:22:58Z</time>
      </trkpt>
      <trkpt lat="46.58754" lon="-0.79945">
        <ele>91.46</ele>
        <time>2021-03-01T09:23:03Z</time>
      </trkpt>
      <trkpt lat="46.58759" lon="-0.79946">
        <ele>91.46</ele>
        <time>2021-03-01T09:23:11Z</time>
      </trkpt>
      <trkpt lat="46.58761" lon="-0.79945">
        <ele>91.46</ele>
        <time>2021-03-01T09:23:17Z</time>
      </trkpt>
      <trkpt lat="46.58762" lon="-0.79945">
        <ele>91.46</ele>
        <time>2021-03-01T09:23:18Z</time>
      </trkpt>
      <trkpt lat="46.58763" lon="-0.79946">
        <ele>91.46</ele>
        <time>2021-03-01T09:23:19Z</time>
      </trkpt>
      <trkpt lat="46.58764" lon="-0.79946">
        <ele>91.46</ele>
        <time>2021-03-01T09:23:20Z</time>
      </trkpt>
      <trkpt lat="46.58766" lon="-0.79946">
        <ele>91.94</ele>
        <time>2021-03-01T09:23:21Z</time>
      </trkpt>
      <trkpt lat="46.58767" lon="-0.79946">
        <ele>91.94</ele>
        <time>2021-03-01T09:23:22Z</time>
      </trkpt>
      <trkpt lat="46.58768" lon="-0.79946">
        <ele>91.94</ele>
        <time>2021-03-01T09:23:23Z</time>
      </trkpt>
      <trkpt lat="46.58777" lon="-0.79948">
        <ele>91.94</ele>
        <time>2021-03-01T09:23:31Z</time>
      </trkpt>
      <trkpt lat="46.58785" lon="-0.79948">
        <ele>91.94</ele>
        <time>2021-03-01T09:23:38Z</time>
      </trkpt>
      <trkpt lat="46.58795" lon="-0.79945">
        <ele>92.42</ele>
        <time>2021-03-01T09:23:48Z</time>
      </trkpt>
      <trkpt lat="46.58807" lon="-0.79942">
        <ele>93.87</ele>
        <time>2021-03-01T09:23:57Z</time>
      </trkpt>
      <trkpt lat="46.58811" lon="-0.79941">
        <ele>93.87</ele>
        <time>2021-03-01T09:24:00Z</time>
      </trkpt>
      <trkpt lat="46.58817" lon="-0.7994">
        <ele>93.39</ele>
        <time>2021-03-01T09:24:06Z</time>
      </trkpt>
      <trkpt lat="46.58822" lon="-0.79941">
        <ele>93.87</ele>
        <time>2021-03-01T09:24:12Z</time>
      </trkpt>
      <trkpt lat="46.58829" lon="-0.7994">
        <ele>93.87</ele>
        <time>2021-03-01T09:24:19Z</time>
      </trkpt>
      <trkpt lat="46.58831" lon="-0.79939">
        <ele>93.87</ele>
        <time>2021-03-01T09:24:20Z</time>
      </trkpt>
      <trkpt lat="46.58832" lon="-0.79939">
        <ele>93.87</ele>
        <time>2021-03-01T09:24:21Z</time>
      </trkpt>
      <trkpt lat="46.58841" lon="-0.79937">
        <ele>94.35</ele>
        <time>2021-03-01T09:24:29Z</time>
      </trkpt>
      <trkpt lat="46.58849" lon="-0.79935">
        <ele>94.35</ele>
        <time>2021-03-01T09:24:36Z</time>
      </trkpt>
      <trkpt lat="46.58858" lon="-0.79932">
        <ele>94.83</ele>
        <time>2021-03-01T09:24:43Z</time>
      </trkpt>
      <trkpt lat="46.58869" lon="-0.79928">
        <ele>95.31</ele>
        <time>2021-03-01T09:24:52Z</time>
      </trkpt>
      <trkpt lat="46.58875" lon="-0.79924">
        <ele>95.31</ele>
        <time>2021-03-01T09:24:59Z</time>
      </trkpt>
      <trkpt lat="46.58879" lon="-0.7992">
        <ele>95.31</ele>
        <time>2021-03-01T09:25:05Z</time>
      </trkpt>
      <trkpt lat="46.58882" lon="-0.79919">
        <ele>95.31</ele>
        <time>2021-03-01T09:25:12Z</time>
      </trkpt>
      <trkpt lat="46.58881" lon="-0.79918">
        <ele>95.31</ele>
        <time>2021-03-01T09:25:25Z</time>
      </trkpt>
      <trkpt lat="46.58882" lon="-0.79918">
        <ele>95.31</ele>
        <time>2021-03-01T09:25:46Z</time>
      </trkpt>
      <trkpt lat="46.58884" lon="-0.79919">
        <ele>95.31</ele>
        <time>2021-03-01T09:26:06Z</time>
      </trkpt>
      <trkpt lat="46.58889" lon="-0.79918">
        <ele>95.79</ele>
        <time>2021-03-01T09:26:13Z</time>
      </trkpt>
      <trkpt lat="46.589" lon="-0.7991">
        <ele>95.79</ele>
        <time>2021-03-01T09:26:24Z</time>
      </trkpt>
      <trkpt lat="46.58907" lon="-0.79906">
        <ele>95.79</ele>
        <time>2021-03-01T09:26:32Z</time>
      </trkpt>
      <trkpt lat="46.58918" lon="-0.79901">
        <ele>95.79</ele>
        <time>2021-03-01T09:26:40Z</time>
      </trkpt>
      <trkpt lat="46.58925" lon="-0.79897">
        <ele>94.35</ele>
        <time>2021-03-01T09:26:48Z</time>
      </trkpt>
      <trkpt lat="46.58935" lon="-0.7989">
        <ele>94.35</ele>
        <time>2021-03-01T09:26:57Z</time>
      </trkpt>
      <trkpt lat="46.58944" lon="-0.79881">
        <ele>93.87</ele>
        <time>2021-03-01T09:27:06Z</time>
      </trkpt>
      <trkpt lat="46.58953" lon="-0.79871">
        <ele>93.87</ele>
        <time>2021-03-01T09:27:15Z</time>
      </trkpt>
      <trkpt lat="46.58959" lon="-0.7986">
        <ele>93.87</ele>
        <time>2021-03-01T09:27:24Z</time>
      </trkpt>
      <trkpt lat="46.58964" lon="-0.79843">
        <ele>93.87</ele>
        <time>2021-03-01T09:27:32Z</time>
      </trkpt>
      <trkpt lat="46.58968" lon="-0.79833">
        <ele>93.87</ele>
        <time>2021-03-01T09:27:40Z</time>
      </trkpt>
      <trkpt lat="46.58971" lon="-0.79823">
        <ele>93.87</ele>
        <time>2021-03-01T09:27:47Z</time>
      </trkpt>
      <trkpt lat="46.58976" lon="-0.79809">
        <ele>95.31</ele>
        <time>2021-03-01T09:27:56Z</time>
      </trkpt>
      <trkpt lat="46.58979" lon="-0.79803">
        <ele>95.31</ele>
        <time>2021-03-01T09:28:02Z</time>
      </trkpt>
      <trkpt lat="46.58979" lon="-0.79801">
        <ele>95.31</ele>
        <time>2021-03-01T09:28:03Z</time>
      </trkpt>
      <trkpt lat="46.58979" lon="-0.798">
        <ele>95.31</ele>
        <time>2021-03-01T09:28:04Z</time>
      </trkpt>
      <trkpt lat="46.58983" lon="-0.79788">
        <ele>95.79</ele>
        <time>2021-03-01T09:28:12Z</time>
      </trkpt>
      <trkpt lat="46.58987" lon="-0.79777">
        <ele>95.79</ele>
        <time>2021-03-01T09:28:19Z</time>
      </trkpt>
      <trkpt lat="46.5899" lon="-0.79762">
        <ele>96.27</ele>
        <time>2021-03-01T09:28:28Z</time>
      </trkpt>
      <trkpt lat="46.58993" lon="-0.79749">
        <ele>96.75</ele>
        <time>2021-03-01T09:28:36Z</time>
      </trkpt>
      <trkpt lat="46.58995" lon="-0.79736">
        <ele>97.23</ele>
        <time>2021-03-01T09:28:44Z</time>
      </trkpt>
      <trkpt lat="46.58997" lon="-0.79722">
        <ele>97.23</ele>
        <time>2021-03-01T09:28:52Z</time>
      </trkpt>
      <trkpt lat="46.58997" lon="-0.79707">
        <ele>97.23</ele>
        <time>2021-03-01T09:28:59Z</time>
      </trkpt>
      <trkpt lat="46.58998" lon="-0.79696">
        <ele>95.79</ele>
        <time>2021-03-01T09:29:08Z</time>
      </trkpt>
      <trkpt lat="46.58999" lon="-0.79694">
        <ele>95.79</ele>
        <time>2021-03-01T09:29:09Z</time>
      </trkpt>
      <trkpt lat="46.58999" lon="-0.79691">
        <ele>95.79</ele>
        <time>2021-03-01T09:29:10Z</time>
      </trkpt>
      <trkpt lat="46.58999" lon="-0.79688">
        <ele>95.79</ele>
        <time>2021-03-01T09:29:11Z</time>
      </trkpt>
      <trkpt lat="46.58998" lon="-0.79685">
        <ele>95.79</ele>
        <time>2021-03-01T09:29:12Z</time>
      </trkpt>
      <trkpt lat="46.58998" lon="-0.79676">
        <ele>95.79</ele>
        <time>2021-03-01T09:29:18Z</time>
      </trkpt>
      <trkpt lat="46.58999" lon="-0.79671">
        <ele>95.79</ele>
        <time>2021-03-01T09:29:21Z</time>
      </trkpt>
      <trkpt lat="46.58998" lon="-0.79662">
        <ele>95.79</ele>
        <time>2021-03-01T09:29:27Z</time>
      </trkpt>
      <trkpt lat="46.58998" lon="-0.79661">
        <ele>95.31</ele>
        <time>2021-03-01T09:29:43Z</time>
      </trkpt>
      <trkpt lat="46.58998" lon="-0.79659">
        <ele>95.31</ele>
        <time>2021-03-01T09:29:45Z</time>
      </trkpt>
      <trkpt lat="46.58998" lon="-0.79657">
        <ele>95.31</ele>
        <time>2021-03-01T09:29:46Z</time>
      </trkpt>
      <trkpt lat="46.58998" lon="-0.79655">
        <ele>95.31</ele>
        <time>2021-03-01T09:29:47Z</time>
      </trkpt>
      <trkpt lat="46.58998" lon="-0.79646">
        <ele>95.31</ele>
        <time>2021-03-01T09:29:53Z</time>
      </trkpt>
      <trkpt lat="46.58999" lon="-0.79643">
        <ele>95.31</ele>
        <time>2021-03-01T09:29:55Z</time>
      </trkpt>
      <trkpt lat="46.59" lon="-0.79642">
        <ele>95.31</ele>
        <time>2021-03-01T09:29:56Z</time>
      </trkpt>
      <trkpt lat="46.59001" lon="-0.79641">
        <ele>95.31</ele>
        <time>2021-03-01T09:30:03Z</time>
      </trkpt>
      <trkpt lat="46.59001" lon="-0.79641">
        <ele>95.31</ele>
        <time>2021-03-01T09:30:08Z</time>
      </trkpt>
      <trkpt lat="46.59002" lon="-0.7964">
        <ele>95.31</ele>
        <time>2021-03-01T09:30:09Z</time>
      </trkpt>
      <trkpt lat="46.59004" lon="-0.7964">
        <ele>94.83</ele>
        <time>2021-03-01T09:30:13Z</time>
      </trkpt>
      <trkpt lat="46.59005" lon="-0.79639">
        <ele>93.87</ele>
        <time>2021-03-01T09:30:20Z</time>
      </trkpt>
      <trkpt lat="46.59005" lon="-0.79639">
        <ele>93.87</ele>
        <time>2021-03-01T09:30:32Z</time>
      </trkpt>
      <trkpt lat="46.59007" lon="-0.79639">
        <ele>93.87</ele>
        <time>2021-03-01T09:30:35Z</time>
      </trkpt>
      <trkpt lat="46.59008" lon="-0.79639">
        <ele>93.87</ele>
        <time>2021-03-01T09:30:36Z</time>
      </trkpt>
      <trkpt lat="46.5901" lon="-0.79639">
        <ele>93.87</ele>
        <time>2021-03-01T09:30:37Z</time>
      </trkpt>
      <trkpt lat="46.59015" lon="-0.7964">
        <ele>93.87</ele>
        <time>2021-03-01T09:30:43Z</time>
      </trkpt>
      <trkpt lat="46.59023" lon="-0.7964">
        <ele>93.87</ele>
        <time>2021-03-01T09:30:50Z</time>
      </trkpt>
      <trkpt lat="46.59024" lon="-0.7964">
        <ele>93.87</ele>
        <time>2021-03-01T09:30:51Z</time>
      </trkpt>
      <trkpt lat="46.59033" lon="-0.7964">
        <ele>93.87</ele>
        <time>2021-03-01T09:30:59Z</time>
      </trkpt>
      <trkpt lat="46.59034" lon="-0.79641">
        <ele>93.87</ele>
        <time>2021-03-01T09:31:00Z</time>
      </trkpt>
      <trkpt lat="46.59035" lon="-0.7964">
        <ele>93.87</ele>
        <time>2021-03-01T09:31:01Z</time>
      </trkpt>
      <trkpt lat="46.59043" lon="-0.7964">
        <ele>93.87</ele>
        <time>2021-03-01T09:31:08Z</time>
      </trkpt>
      <trkpt lat="46.59049" lon="-0.7964">
        <ele>93.39</ele>
        <time>2021-03-01T09:31:12Z</time>
      </trkpt>
      <trkpt lat="46.59056" lon="-0.7964">
        <ele>93.39</ele>
        <time>2021-03-01T09:31:19Z</time>
      </trkpt>
      <trkpt lat="46.59064" lon="-0.7964">
        <ele>93.39</ele>
        <time>2021-03-01T09:31:25Z</time>
      </trkpt>
      <trkpt lat="46.59072" lon="-0.79639">
        <ele>93.39</ele>
        <time>2021-03-01T09:31:32Z</time>
      </trkpt>
      <trkpt lat="46.59079" lon="-0.7964">
        <ele>93.39</ele>
        <time>2021-03-01T09:31:39Z</time>
      </trkpt>
      <trkpt lat="46.59089" lon="-0.7964">
        <ele>93.39</ele>
        <time>2021-03-01T09:31:46Z</time>
      </trkpt>
      <trkpt lat="46.59095" lon="-0.79639">
        <ele>93.39</ele>
        <time>2021-03-01T09:31:53Z</time>
      </trkpt>
      <trkpt lat="46.59096" lon="-0.79639">
        <ele>93.39</ele>
        <time>2021-03-01T09:32:00Z</time>
      </trkpt>
      <trkpt lat="46.59098" lon="-0.79639">
        <ele>93.39</ele>
        <time>2021-03-01T09:32:08Z</time>
      </trkpt>
      <trkpt lat="46.59104" lon="-0.79639">
        <ele>93.39</ele>
        <time>2021-03-01T09:32:15Z</time>
      </trkpt>
      <trkpt lat="46.59111" lon="-0.79639">
        <ele>93.39</ele>
        <time>2021-03-01T09:32:22Z</time>
      </trkpt>
      <trkpt lat="46.59118" lon="-0.79639">
        <ele>93.39</ele>
        <time>2021-03-01T09:32:29Z</time>
      </trkpt>
      <trkpt lat="46.59119" lon="-0.79639">
        <ele>93.39</ele>
        <time>2021-03-01T09:32:30Z</time>
      </trkpt>
      <trkpt lat="46.5912" lon="-0.79639">
        <ele>93.39</ele>
        <time>2021-03-01T09:32:31Z</time>
      </trkpt>
      <trkpt lat="46.59121" lon="-0.79639">
        <ele>93.39</ele>
        <time>2021-03-01T09:32:32Z</time>
      </trkpt>
      <trkpt lat="46.59123" lon="-0.7964">
        <ele>93.39</ele>
        <time>2021-03-01T09:32:33Z</time>
      </trkpt>
      <trkpt lat="46.59124" lon="-0.7964">
        <ele>93.39</ele>
        <time>2021-03-01T09:32:34Z</time>
      </trkpt>
      <trkpt lat="46.59131" lon="-0.79639">
        <ele>92.9</ele>
        <time>2021-03-01T09:32:41Z</time>
      </trkpt>
      <trkpt lat="46.59139" lon="-0.79638">
        <ele>92.9</ele>
        <time>2021-03-01T09:32:48Z</time>
      </trkpt>
      <trkpt lat="46.59148" lon="-0.79639">
        <ele>92.9</ele>
        <time>2021-03-01T09:32:56Z</time>
      </trkpt>
      <trkpt lat="46.59153" lon="-0.79639">
        <ele>92.9</ele>
        <time>2021-03-01T09:33:03Z</time>
      </trkpt>
      <trkpt lat="46.59157" lon="-0.79639">
        <ele>92.9</ele>
        <time>2021-03-01T09:33:11Z</time>
      </trkpt>
      <trkpt lat="46.59163" lon="-0.79638">
        <ele>92.9</ele>
        <time>2021-03-01T09:33:18Z</time>
      </trkpt>
      <trkpt lat="46.59167" lon="-0.79638">
        <ele>92.9</ele>
        <time>2021-03-01T09:33:21Z</time>
      </trkpt>
      <trkpt lat="46.59168" lon="-0.79638">
        <ele>92.9</ele>
        <time>2021-03-01T09:33:22Z</time>
      </trkpt>
      <trkpt lat="46.5917" lon="-0.79638">
        <ele>92.9</ele>
        <time>2021-03-01T09:33:23Z</time>
      </trkpt>
      <trkpt lat="46.59171" lon="-0.79638">
        <ele>92.9</ele>
        <time>2021-03-01T09:33:24Z</time>
      </trkpt>
      <trkpt lat="46.59181" lon="-0.79638">
        <ele>92.9</ele>
        <time>2021-03-01T09:33:32Z</time>
      </trkpt>
      <trkpt lat="46.59183" lon="-0.79638">
        <ele>92.9</ele>
        <time>2021-03-01T09:33:33Z</time>
      </trkpt>
      <trkpt lat="46.59184" lon="-0.79638">
        <ele>92.9</ele>
        <time>2021-03-01T09:33:34Z</time>
      </trkpt>
      <trkpt lat="46.59191" lon="-0.79638">
        <ele>92.9</ele>
        <time>2021-03-01T09:33:41Z</time>
      </trkpt>
      <trkpt lat="46.59201" lon="-0.79639">
        <ele>92.9</ele>
        <time>2021-03-01T09:33:52Z</time>
      </trkpt>
      <trkpt lat="46.5921" lon="-0.79638">
        <ele>92.9</ele>
        <time>2021-03-01T09:34:02Z</time>
      </trkpt>
      <trkpt lat="46.59219" lon="-0.79637">
        <ele>92.9</ele>
        <time>2021-03-01T09:34:11Z</time>
      </trkpt>
      <trkpt lat="46.59231" lon="-0.79639">
        <ele>92.9</ele>
        <time>2021-03-01T09:34:20Z</time>
      </trkpt>
      <trkpt lat="46.59242" lon="-0.79638">
        <ele>92.9</ele>
        <time>2021-03-01T09:34:28Z</time>
      </trkpt>
      <trkpt lat="46.5925" lon="-0.79637">
        <ele>92.42</ele>
        <time>2021-03-01T09:34:36Z</time>
      </trkpt>
      <trkpt lat="46.59258" lon="-0.79638">
        <ele>92.42</ele>
        <time>2021-03-01T09:34:44Z</time>
      </trkpt>
      <trkpt lat="46.59259" lon="-0.79637">
        <ele>92.42</ele>
        <time>2021-03-01T09:34:45Z</time>
      </trkpt>
      <trkpt lat="46.59261" lon="-0.79637">
        <ele>92.42</ele>
        <time>2021-03-01T09:34:46Z</time>
      </trkpt>
      <trkpt lat="46.5927" lon="-0.79639">
        <ele>92.42</ele>
        <time>2021-03-01T09:34:54Z</time>
      </trkpt>
      <trkpt lat="46.59278" lon="-0.79639">
        <ele>92.42</ele>
        <time>2021-03-01T09:35:01Z</time>
      </trkpt>
      <trkpt lat="46.59279" lon="-0.79639">
        <ele>92.42</ele>
        <time>2021-03-01T09:35:02Z</time>
      </trkpt>
      <trkpt lat="46.59288" lon="-0.79638">
        <ele>92.42</ele>
        <time>2021-03-01T09:35:08Z</time>
      </trkpt>
      <trkpt lat="46.59299" lon="-0.79638">
        <ele>92.42</ele>
        <time>2021-03-01T09:35:16Z</time>
      </trkpt>
      <trkpt lat="46.59301" lon="-0.79638">
        <ele>91.94</ele>
        <time>2021-03-01T09:35:22Z</time>
      </trkpt>
      <trkpt lat="46.59302" lon="-0.79638">
        <ele>91.94</ele>
        <time>2021-03-01T09:35:32Z</time>
      </trkpt>
      <trkpt lat="46.59302" lon="-0.79637">
        <ele>92.42</ele>
        <time>2021-03-01T09:35:41Z</time>
      </trkpt>
      <trkpt lat="46.59307" lon="-0.79639">
        <ele>92.42</ele>
        <time>2021-03-01T09:35:50Z</time>
      </trkpt>
      <trkpt lat="46.59308" lon="-0.79639">
        <ele>92.42</ele>
        <time>2021-03-01T09:35:52Z</time>
      </trkpt>
      <trkpt lat="46.59308" lon="-0.79639">
        <ele>92.42</ele>
        <time>2021-03-01T09:35:53Z</time>
      </trkpt>
      <trkpt lat="46.5931" lon="-0.7964">
        <ele>92.42</ele>
        <time>2021-03-01T09:35:55Z</time>
      </trkpt>
      <trkpt lat="46.59311" lon="-0.7964">
        <ele>92.42</ele>
        <time>2021-03-01T09:35:56Z</time>
      </trkpt>
      <trkpt lat="46.59317" lon="-0.7964">
        <ele>92.42</ele>
        <time>2021-03-01T09:36:03Z</time>
      </trkpt>
      <trkpt lat="46.59324" lon="-0.79638">
        <ele>92.42</ele>
        <time>2021-03-01T09:36:11Z</time>
      </trkpt>
      <trkpt lat="46.5933" lon="-0.79637">
        <ele>92.42</ele>
        <time>2021-03-01T09:36:19Z</time>
      </trkpt>
      <trkpt lat="46.59338" lon="-0.79638">
        <ele>92.42</ele>
        <time>2021-03-01T09:36:27Z</time>
      </trkpt>
      <trkpt lat="46.59346" lon="-0.79637">
        <ele>91.94</ele>
        <time>2021-03-01T09:36:34Z</time>
      </trkpt>
      <trkpt lat="46.59354" lon="-0.79636">
        <ele>91.94</ele>
        <time>2021-03-01T09:36:42Z</time>
      </trkpt>
      <trkpt lat="46.59361" lon="-0.79636">
        <ele>91.94</ele>
        <time>2021-03-01T09:36:48Z</time>
      </trkpt>
      <trkpt lat="46.59363" lon="-0.79635">
        <ele>91.46</ele>
        <time>2021-03-01T09:36:49Z</time>
      </trkpt>
      <trkpt lat="46.59364" lon="-0.79634">
        <ele>91.46</ele>
        <time>2021-03-01T09:36:50Z</time>
      </trkpt>
      <trkpt lat="46.59365" lon="-0.79633">
        <ele>91.46</ele>
        <time>2021-03-01T09:36:51Z</time>
      </trkpt>
      <trkpt lat="46.5937" lon="-0.79632">
        <ele>91.46</ele>
        <time>2021-03-01T09:36:56Z</time>
      </trkpt>
      <trkpt lat="46.59371" lon="-0.79631">
        <ele>91.46</ele>
        <time>2021-03-01T09:36:57Z</time>
      </trkpt>
      <trkpt lat="46.59372" lon="-0.7963">
        <ele>91.46</ele>
        <time>2021-03-01T09:36:58Z</time>
      </trkpt>
      <trkpt lat="46.5938" lon="-0.79626">
        <ele>90.98</ele>
        <time>2021-03-01T09:37:06Z</time>
      </trkpt>
      <trkpt lat="46.59386" lon="-0.79624">
        <ele>90.98</ele>
        <time>2021-03-01T09:37:13Z</time>
      </trkpt>
      <trkpt lat="46.59391" lon="-0.79623">
        <ele>90.5</ele>
        <time>2021-03-01T09:37:18Z</time>
      </trkpt>
      <trkpt lat="46.59393" lon="-0.79622">
        <ele>90.5</ele>
        <time>2021-03-01T09:37:19Z</time>
      </trkpt>
      <trkpt lat="46.59395" lon="-0.79621">
        <ele>90.5</ele>
        <time>2021-03-01T09:37:20Z</time>
      </trkpt>
      <trkpt lat="46.59397" lon="-0.7962">
        <ele>90.5</ele>
        <time>2021-03-01T09:37:21Z</time>
      </trkpt>
      <trkpt lat="46.59398" lon="-0.7962">
        <ele>90.5</ele>
        <time>2021-03-01T09:37:22Z</time>
      </trkpt>
      <trkpt lat="46.59402" lon="-0.79618">
        <ele>90.5</ele>
        <time>2021-03-01T09:37:27Z</time>
      </trkpt>
      <trkpt lat="46.59403" lon="-0.79617">
        <ele>90.5</ele>
        <time>2021-03-01T09:37:28Z</time>
      </trkpt>
      <trkpt lat="46.59405" lon="-0.79617">
        <ele>90.5</ele>
        <time>2021-03-01T09:37:29Z</time>
      </trkpt>
      <trkpt lat="46.59413" lon="-0.79614">
        <ele>90.02</ele>
        <time>2021-03-01T09:37:36Z</time>
      </trkpt>
      <trkpt lat="46.5942" lon="-0.79613">
        <ele>90.02</ele>
        <time>2021-03-01T09:37:43Z</time>
      </trkpt>
      <trkpt lat="46.59429" lon="-0.7961">
        <ele>89.54</ele>
        <time>2021-03-01T09:37:50Z</time>
      </trkpt>
      <trkpt lat="46.59436" lon="-0.79607">
        <ele>89.54</ele>
        <time>2021-03-01T09:37:58Z</time>
      </trkpt>
      <trkpt lat="46.59443" lon="-0.79605">
        <ele>89.54</ele>
        <time>2021-03-01T09:38:05Z</time>
      </trkpt>
      <trkpt lat="46.59444" lon="-0.79604">
        <ele>89.54</ele>
        <time>2021-03-01T09:38:06Z</time>
      </trkpt>
      <trkpt lat="46.59446" lon="-0.79604">
        <ele>89.54</ele>
        <time>2021-03-01T09:38:07Z</time>
      </trkpt>
      <trkpt lat="46.59447" lon="-0.79603">
        <ele>89.54</ele>
        <time>2021-03-01T09:38:08Z</time>
      </trkpt>
      <trkpt lat="46.59449" lon="-0.79602">
        <ele>89.54</ele>
        <time>2021-03-01T09:38:09Z</time>
      </trkpt>
      <trkpt lat="46.5945" lon="-0.79602">
        <ele>89.54</ele>
        <time>2021-03-01T09:38:10Z</time>
      </trkpt>
      <trkpt lat="46.59458" lon="-0.796">
        <ele>89.06</ele>
        <time>2021-03-01T09:38:18Z</time>
      </trkpt>
      <trkpt lat="46.5946" lon="-0.79599">
        <ele>89.06</ele>
        <time>2021-03-01T09:38:19Z</time>
      </trkpt>
      <trkpt lat="46.59461" lon="-0.79598">
        <ele>89.06</ele>
        <time>2021-03-01T09:38:20Z</time>
      </trkpt>
      <trkpt lat="46.59467" lon="-0.79596">
        <ele>88.58</ele>
        <time>2021-03-01T09:38:26Z</time>
      </trkpt>
      <trkpt lat="46.59468" lon="-0.79595">
        <ele>88.58</ele>
        <time>2021-03-01T09:38:27Z</time>
      </trkpt>
      <trkpt lat="46.59469" lon="-0.79595">
        <ele>88.58</ele>
        <time>2021-03-01T09:38:28Z</time>
      </trkpt>
      <trkpt lat="46.59471" lon="-0.79594">
        <ele>88.58</ele>
        <time>2021-03-01T09:38:29Z</time>
      </trkpt>
      <trkpt lat="46.59472" lon="-0.79594">
        <ele>88.58</ele>
        <time>2021-03-01T09:38:30Z</time>
      </trkpt>
      <trkpt lat="46.59479" lon="-0.79591">
        <ele>88.1</ele>
        <time>2021-03-01T09:38:38Z</time>
      </trkpt>
      <trkpt lat="46.59492" lon="-0.79585">
        <ele>87.62</ele>
        <time>2021-03-01T09:38:48Z</time>
      </trkpt>
      <trkpt lat="46.59501" lon="-0.79581">
        <ele>87.14</ele>
        <time>2021-03-01T09:38:55Z</time>
      </trkpt>
      <trkpt lat="46.59505" lon="-0.79579">
        <ele>87.14</ele>
        <time>2021-03-01T09:39:00Z</time>
      </trkpt>
      <trkpt lat="46.59507" lon="-0.79579">
        <ele>87.14</ele>
        <time>2021-03-01T09:39:01Z</time>
      </trkpt>
      <trkpt lat="46.59508" lon="-0.79578">
        <ele>87.14</ele>
        <time>2021-03-01T09:39:02Z</time>
      </trkpt>
      <trkpt lat="46.59516" lon="-0.79574">
        <ele>86.18</ele>
        <time>2021-03-01T09:39:10Z</time>
      </trkpt>
      <trkpt lat="46.59526" lon="-0.79566">
        <ele>86.18</ele>
        <time>2021-03-01T09:39:19Z</time>
      </trkpt>
      <trkpt lat="46.59528" lon="-0.79565">
        <ele>86.18</ele>
        <time>2021-03-01T09:39:21Z</time>
      </trkpt>
      <trkpt lat="46.59529" lon="-0.79564">
        <ele>86.18</ele>
        <time>2021-03-01T09:39:22Z</time>
      </trkpt>
      <trkpt lat="46.59531" lon="-0.79563">
        <ele>86.18</ele>
        <time>2021-03-01T09:39:23Z</time>
      </trkpt>
      <trkpt lat="46.59538" lon="-0.79557">
        <ele>85.21</ele>
        <time>2021-03-01T09:39:30Z</time>
      </trkpt>
      <trkpt lat="46.59547" lon="-0.79553">
        <ele>84.25</ele>
        <time>2021-03-01T09:39:38Z</time>
      </trkpt>
      <trkpt lat="46.59555" lon="-0.79548">
        <ele>83.77</ele>
        <time>2021-03-01T09:39:45Z</time>
      </trkpt>
      <trkpt lat="46.59564" lon="-0.79542">
        <ele>83.29</ele>
        <time>2021-03-01T09:39:53Z</time>
      </trkpt>
      <trkpt lat="46.59571" lon="-0.79537">
        <ele>82.81</ele>
        <time>2021-03-01T09:40:01Z</time>
      </trkpt>
      <trkpt lat="46.59581" lon="-0.7953">
        <ele>82.33</ele>
        <time>2021-03-01T09:40:08Z</time>
      </trkpt>
      <trkpt lat="46.59588" lon="-0.79531">
        <ele>82.33</ele>
        <time>2021-03-01T09:40:15Z</time>
      </trkpt>
      <trkpt lat="46.59597" lon="-0.79528">
        <ele>82.33</ele>
        <time>2021-03-01T09:40:21Z</time>
      </trkpt>
      <trkpt lat="46.59607" lon="-0.79523">
        <ele>81.85</ele>
        <time>2021-03-01T09:40:30Z</time>
      </trkpt>
      <trkpt lat="46.59618" lon="-0.79516">
        <ele>81.85</ele>
        <time>2021-03-01T09:40:38Z</time>
      </trkpt>
      <trkpt lat="46.59628" lon="-0.79513">
        <ele>81.37</ele>
        <time>2021-03-01T09:40:47Z</time>
      </trkpt>
      <trkpt lat="46.59639" lon="-0.79508">
        <ele>80.89</ele>
        <time>2021-03-01T09:40:56Z</time>
      </trkpt>
      <trkpt lat="46.59649" lon="-0.79503">
        <ele>80.89</ele>
        <time>2021-03-01T09:41:04Z</time>
      </trkpt>
      <trkpt lat="46.59658" lon="-0.795">
        <ele>80.89</ele>
        <time>2021-03-01T09:41:12Z</time>
      </trkpt>
      <trkpt lat="46.59669" lon="-0.79495">
        <ele>80.89</ele>
        <time>2021-03-01T09:41:21Z</time>
      </trkpt>
      <trkpt lat="46.5968" lon="-0.79492">
        <ele>80.41</ele>
        <time>2021-03-01T09:41:29Z</time>
      </trkpt>
      <trkpt lat="46.5969" lon="-0.79491">
        <ele>80.41</ele>
        <time>2021-03-01T09:41:38Z</time>
      </trkpt>
      <trkpt lat="46.59698" lon="-0.79487">
        <ele>80.41</ele>
        <time>2021-03-01T09:41:46Z</time>
      </trkpt>
      <trkpt lat="46.59709" lon="-0.79485">
        <ele>80.41</ele>
        <time>2021-03-01T09:41:54Z</time>
      </trkpt>
      <trkpt lat="46.59716" lon="-0.79481">
        <ele>80.41</ele>
        <time>2021-03-01T09:42:02Z</time>
      </trkpt>
      <trkpt lat="46.59726" lon="-0.79476">
        <ele>80.41</ele>
        <time>2021-03-01T09:42:09Z</time>
      </trkpt>
      <trkpt lat="46.59736" lon="-0.79473">
        <ele>80.41</ele>
        <time>2021-03-01T09:42:17Z</time>
      </trkpt>
      <trkpt lat="46.59745" lon="-0.79469">
        <ele>80.41</ele>
        <time>2021-03-01T09:42:25Z</time>
      </trkpt>
      <trkpt lat="46.59756" lon="-0.79463">
        <ele>80.41</ele>
        <time>2021-03-01T09:42:33Z</time>
      </trkpt>
      <trkpt lat="46.59764" lon="-0.79461">
        <ele>80.41</ele>
        <time>2021-03-01T09:42:41Z</time>
      </trkpt>
      <trkpt lat="46.59766" lon="-0.79461">
        <ele>80.41</ele>
        <time>2021-03-01T09:42:42Z</time>
      </trkpt>
      <trkpt lat="46.59768" lon="-0.79461">
        <ele>80.41</ele>
        <time>2021-03-01T09:42:43Z</time>
      </trkpt>
      <trkpt lat="46.59769" lon="-0.79461">
        <ele>80.41</ele>
        <time>2021-03-01T09:42:44Z</time>
      </trkpt>
      <trkpt lat="46.59781" lon="-0.79455">
        <ele>80.41</ele>
        <time>2021-03-01T09:42:53Z</time>
      </trkpt>
      <trkpt lat="46.59785" lon="-0.79453">
        <ele>79.93</ele>
        <time>2021-03-01T09:43:01Z</time>
      </trkpt>
      <trkpt lat="46.59786" lon="-0.79453">
        <ele>79.93</ele>
        <time>2021-03-01T09:43:08Z</time>
      </trkpt>
      <trkpt lat="46.59786" lon="-0.79454">
        <ele>79.93</ele>
        <time>2021-03-01T09:43:17Z</time>
      </trkpt>
      <trkpt lat="46.5979" lon="-0.79453">
        <ele>79.93</ele>
        <time>2021-03-01T09:43:31Z</time>
      </trkpt>
      <trkpt lat="46.59793" lon="-0.79452">
        <ele>79.93</ele>
        <time>2021-03-01T09:43:38Z</time>
      </trkpt>
      <trkpt lat="46.59794" lon="-0.79449">
        <ele>79.93</ele>
        <time>2021-03-01T09:43:47Z</time>
      </trkpt>
      <trkpt lat="46.59794" lon="-0.79448">
        <ele>79.93</ele>
        <time>2021-03-01T09:43:58Z</time>
      </trkpt>
      <trkpt lat="46.59793" lon="-0.79447">
        <ele>79.93</ele>
        <time>2021-03-01T09:44:09Z</time>
      </trkpt>
      <trkpt lat="46.59795" lon="-0.79446">
        <ele>79.45</ele>
        <time>2021-03-01T09:44:19Z</time>
      </trkpt>
      <trkpt lat="46.59798" lon="-0.79444">
        <ele>79.45</ele>
        <time>2021-03-01T09:44:25Z</time>
      </trkpt>
      <trkpt lat="46.59799" lon="-0.79444">
        <ele>79.45</ele>
        <time>2021-03-01T09:44:31Z</time>
      </trkpt>
      <trkpt lat="46.598" lon="-0.79443">
        <ele>79.45</ele>
        <time>2021-03-01T09:44:35Z</time>
      </trkpt>
      <trkpt lat="46.59801" lon="-0.79443">
        <ele>79.45</ele>
        <time>2021-03-01T09:44:42Z</time>
      </trkpt>
      <trkpt lat="46.59804" lon="-0.79442">
        <ele>79.45</ele>
        <time>2021-03-01T09:44:47Z</time>
      </trkpt>
      <trkpt lat="46.59806" lon="-0.79441">
        <ele>79.45</ele>
        <time>2021-03-01T09:44:50Z</time>
      </trkpt>
      <trkpt lat="46.59808" lon="-0.79441">
        <ele>78.97</ele>
        <time>2021-03-01T09:44:57Z</time>
      </trkpt>
      <trkpt lat="46.5981" lon="-0.79441">
        <ele>78.97</ele>
        <time>2021-03-01T09:45:07Z</time>
      </trkpt>
      <trkpt lat="46.59817" lon="-0.79442">
        <ele>78.97</ele>
        <time>2021-03-01T09:45:12Z</time>
      </trkpt>
      <trkpt lat="46.59818" lon="-0.79441">
        <ele>78.97</ele>
        <time>2021-03-01T09:45:13Z</time>
      </trkpt>
      <trkpt lat="46.59822" lon="-0.79441">
        <ele>78.97</ele>
        <time>2021-03-01T09:45:20Z</time>
      </trkpt>
      <trkpt lat="46.59823" lon="-0.79441">
        <ele>78.97</ele>
        <time>2021-03-01T09:45:21Z</time>
      </trkpt>
      <trkpt lat="46.59825" lon="-0.7944">
        <ele>78.97</ele>
        <time>2021-03-01T09:45:22Z</time>
      </trkpt>
      <trkpt lat="46.59826" lon="-0.7944">
        <ele>78.97</ele>
        <time>2021-03-01T09:45:23Z</time>
      </trkpt>
      <trkpt lat="46.59828" lon="-0.79439">
        <ele>78.97</ele>
        <time>2021-03-01T09:45:24Z</time>
      </trkpt>
      <trkpt lat="46.59829" lon="-0.79439">
        <ele>78.97</ele>
        <time>2021-03-01T09:45:25Z</time>
      </trkpt>
      <trkpt lat="46.59833" lon="-0.79438">
        <ele>78.97</ele>
        <time>2021-03-01T09:45:31Z</time>
      </trkpt>
      <trkpt lat="46.59841" lon="-0.79437">
        <ele>78.97</ele>
        <time>2021-03-01T09:45:38Z</time>
      </trkpt>
      <trkpt lat="46.59852" lon="-0.79436">
        <ele>78.97</ele>
        <time>2021-03-01T09:45:48Z</time>
      </trkpt>
      <trkpt lat="46.5986" lon="-0.79436">
        <ele>78.97</ele>
        <time>2021-03-01T09:45:55Z</time>
      </trkpt>
      <trkpt lat="46.59863" lon="-0.79437">
        <ele>78.97</ele>
        <time>2021-03-01T09:46:02Z</time>
      </trkpt>
      <trkpt lat="46.59866" lon="-0.79437">
        <ele>78.97</ele>
        <time>2021-03-01T09:46:08Z</time>
      </trkpt>
      <trkpt lat="46.59868" lon="-0.79436">
        <ele>78.97</ele>
        <time>2021-03-01T09:46:10Z</time>
      </trkpt>
      <trkpt lat="46.5987" lon="-0.79435">
        <ele>78.97</ele>
        <time>2021-03-01T09:46:11Z</time>
      </trkpt>
      <trkpt lat="46.59873" lon="-0.79434">
        <ele>78.97</ele>
        <time>2021-03-01T09:46:15Z</time>
      </trkpt>
      <trkpt lat="46.59878" lon="-0.79432">
        <ele>78.97</ele>
        <time>2021-03-01T09:46:22Z</time>
      </trkpt>
      <trkpt lat="46.59878" lon="-0.79432">
        <ele>78.97</ele>
        <time>2021-03-01T09:46:26Z</time>
      </trkpt>
      <trkpt lat="46.59881" lon="-0.79432">
        <ele>78.97</ele>
        <time>2021-03-01T09:46:30Z</time>
      </trkpt>
      <trkpt lat="46.59882" lon="-0.79431">
        <ele>78.97</ele>
        <time>2021-03-01T09:46:31Z</time>
      </trkpt>
      <trkpt lat="46.59883" lon="-0.79431">
        <ele>78.97</ele>
        <time>2021-03-01T09:46:32Z</time>
      </trkpt>
      <trkpt lat="46.59887" lon="-0.79433">
        <ele>78.97</ele>
        <time>2021-03-01T09:46:38Z</time>
      </trkpt>
      <trkpt lat="46.59888" lon="-0.79433">
        <ele>78.48</ele>
        <time>2021-03-01T09:46:45Z</time>
      </trkpt>
      <trkpt lat="46.59893" lon="-0.79432">
        <ele>78.97</ele>
        <time>2021-03-01T09:46:52Z</time>
      </trkpt>
      <trkpt lat="46.59895" lon="-0.79432">
        <ele>78.48</ele>
        <time>2021-03-01T09:47:01Z</time>
      </trkpt>
      <trkpt lat="46.59893" lon="-0.79435">
        <ele>78.48</ele>
        <time>2021-03-01T09:47:07Z</time>
      </trkpt>
      <trkpt lat="46.59894" lon="-0.79435">
        <ele>78.48</ele>
        <time>2021-03-01T09:47:22Z</time>
      </trkpt>
      <trkpt lat="46.59893" lon="-0.79435">
        <ele>78.48</ele>
        <time>2021-03-01T09:47:31Z</time>
      </trkpt>
      <trkpt lat="46.59894" lon="-0.79434">
        <ele>79.93</ele>
        <time>2021-03-01T09:47:42Z</time>
      </trkpt>
      <trkpt lat="46.59893" lon="-0.79434">
        <ele>78.48</ele>
        <time>2021-03-01T09:47:59Z</time>
      </trkpt>
      <trkpt lat="46.59893" lon="-0.79434">
        <ele>78.48</ele>
        <time>2021-03-01T09:48:08Z</time>
      </trkpt>
      <trkpt lat="46.59895" lon="-0.79436">
        <ele>78.48</ele>
        <time>2021-03-01T09:48:22Z</time>
      </trkpt>
      <trkpt lat="46.59894" lon="-0.79436">
        <ele>78.48</ele>
        <time>2021-03-01T09:48:32Z</time>
      </trkpt>
      <trkpt lat="46.59894" lon="-0.79437">
        <ele>79.93</ele>
        <time>2021-03-01T09:48:46Z</time>
      </trkpt>
      <trkpt lat="46.59894" lon="-0.79437">
        <ele>79.45</ele>
        <time>2021-03-01T09:48:57Z</time>
      </trkpt>
      <trkpt lat="46.59893" lon="-0.79438">
        <ele>79.45</ele>
        <time>2021-03-01T09:49:05Z</time>
      </trkpt>
      <trkpt lat="46.59893" lon="-0.7944">
        <ele>79.45</ele>
        <time>2021-03-01T09:49:12Z</time>
      </trkpt>
      <trkpt lat="46.59893" lon="-0.79439">
        <ele>79.45</ele>
        <time>2021-03-01T09:49:21Z</time>
      </trkpt>
      <trkpt lat="46.59893" lon="-0.79439">
        <ele>79.45</ele>
        <time>2021-03-01T09:49:31Z</time>
      </trkpt>
      <trkpt lat="46.59894" lon="-0.7944">
        <ele>79.45</ele>
        <time>2021-03-01T09:49:39Z</time>
      </trkpt>
      <trkpt lat="46.59899" lon="-0.79443">
        <ele>79.45</ele>
        <time>2021-03-01T09:49:45Z</time>
      </trkpt>
      <trkpt lat="46.59904" lon="-0.79447">
        <ele>79.45</ele>
        <time>2021-03-01T09:49:53Z</time>
      </trkpt>
      <trkpt lat="46.59909" lon="-0.79451">
        <ele>79.45</ele>
        <time>2021-03-01T09:49:59Z</time>
      </trkpt>
      <trkpt lat="46.59916" lon="-0.79456">
        <ele>79.45</ele>
        <time>2021-03-01T09:50:06Z</time>
      </trkpt>
      <trkpt lat="46.59922" lon="-0.79462">
        <ele>79.45</ele>
        <time>2021-03-01T09:50:14Z</time>
      </trkpt>
      <trkpt lat="46.59929" lon="-0.79467">
        <ele>79.45</ele>
        <time>2021-03-01T09:50:21Z</time>
      </trkpt>
      <trkpt lat="46.59936" lon="-0.79474">
        <ele>79.45</ele>
        <time>2021-03-01T09:50:29Z</time>
      </trkpt>
      <trkpt lat="46.59938" lon="-0.79476">
        <ele>79.45</ele>
        <time>2021-03-01T09:50:36Z</time>
      </trkpt>
      <trkpt lat="46.5994" lon="-0.7948">
        <ele>79.93</ele>
        <time>2021-03-01T09:50:43Z</time>
      </trkpt>
      <trkpt lat="46.59942" lon="-0.79481">
        <ele>79.93</ele>
        <time>2021-03-01T09:50:51Z</time>
      </trkpt>
      <trkpt lat="46.59943" lon="-0.79483">
        <ele>79.93</ele>
        <time>2021-03-01T09:51:00Z</time>
      </trkpt>
      <trkpt lat="46.59944" lon="-0.7948">
        <ele>79.93</ele>
        <time>2021-03-01T09:51:07Z</time>
      </trkpt>
      <trkpt lat="46.59943" lon="-0.79481">
        <ele>79.93</ele>
        <time>2021-03-01T09:51:21Z</time>
      </trkpt>
      <trkpt lat="46.59943" lon="-0.79482">
        <ele>79.93</ele>
        <time>2021-03-01T09:51:31Z</time>
      </trkpt>
      <trkpt lat="46.59944" lon="-0.79481">
        <ele>79.93</ele>
        <time>2021-03-01T09:51:41Z</time>
      </trkpt>
      <trkpt lat="46.59944" lon="-0.7948">
        <ele>79.93</ele>
        <time>2021-03-01T09:51:46Z</time>
      </trkpt>
      <trkpt lat="46.59943" lon="-0.79481">
        <ele>79.93</ele>
        <time>2021-03-01T09:51:59Z</time>
      </trkpt>
      <trkpt lat="46.59942" lon="-0.79479">
        <ele>79.93</ele>
        <time>2021-03-01T09:52:19Z</time>
      </trkpt>
      <trkpt lat="46.59942" lon="-0.79479">
        <ele>79.93</ele>
        <time>2021-03-01T09:52:29Z</time>
      </trkpt>
      <trkpt lat="46.59942" lon="-0.79478">
        <ele>80.41</ele>
        <time>2021-03-01T09:52:53Z</time>
      </trkpt>
      <trkpt lat="46.59942" lon="-0.79479">
        <ele>80.41</ele>
        <time>2021-03-01T09:53:11Z</time>
      </trkpt>
      <trkpt lat="46.59941" lon="-0.7948">
        <ele>79.93</ele>
        <time>2021-03-01T09:53:25Z</time>
      </trkpt>
      <trkpt lat="46.59941" lon="-0.79481">
        <ele>79.93</ele>
        <time>2021-03-01T09:53:35Z</time>
      </trkpt>
      <trkpt lat="46.59944" lon="-0.79481">
        <ele>79.93</ele>
        <time>2021-03-01T09:53:47Z</time>
      </trkpt>
      <trkpt lat="46.59945" lon="-0.7948">
        <ele>79.93</ele>
        <time>2021-03-01T09:54:03Z</time>
      </trkpt>
      <trkpt lat="46.59944" lon="-0.79481">
        <ele>79.93</ele>
        <time>2021-03-01T09:54:13Z</time>
      </trkpt>
      <trkpt lat="46.59944" lon="-0.79482">
        <ele>79.93</ele>
        <time>2021-03-01T09:54:18Z</time>
      </trkpt>
      <trkpt lat="46.59944" lon="-0.79483">
        <ele>79.93</ele>
        <time>2021-03-01T09:54:35Z</time>
      </trkpt>
      <trkpt lat="46.59943" lon="-0.79481">
        <ele>79.93</ele>
        <time>2021-03-01T09:54:44Z</time>
      </trkpt>
      <trkpt lat="46.59943" lon="-0.79482">
        <ele>79.93</ele>
        <time>2021-03-01T09:55:00Z</time>
      </trkpt>
      <trkpt lat="46.59943" lon="-0.79482">
        <ele>79.93</ele>
        <time>2021-03-01T09:55:08Z</time>
      </trkpt>
      <trkpt lat="46.59942" lon="-0.79485">
        <ele>79.93</ele>
        <time>2021-03-01T09:55:20Z</time>
      </trkpt>
      <trkpt lat="46.59942" lon="-0.79484">
        <ele>79.93</ele>
        <time>2021-03-01T09:55:30Z</time>
      </trkpt>
      <trkpt lat="46.59943" lon="-0.79482">
        <ele>79.93</ele>
        <time>2021-03-01T09:55:43Z</time>
      </trkpt>
      <trkpt lat="46.59943" lon="-0.79481">
        <ele>79.93</ele>
        <time>2021-03-01T09:55:57Z</time>
      </trkpt>
      <trkpt lat="46.59946" lon="-0.79484">
        <ele>79.93</ele>
        <time>2021-03-01T09:56:04Z</time>
      </trkpt>
      <trkpt lat="46.59948" lon="-0.79487">
        <ele>79.93</ele>
        <time>2021-03-01T09:56:10Z</time>
      </trkpt>
      <trkpt lat="46.59947" lon="-0.79487">
        <ele>79.93</ele>
        <time>2021-03-01T09:56:21Z</time>
      </trkpt>
      <trkpt lat="46.59943" lon="-0.79487">
        <ele>80.41</ele>
        <time>2021-03-01T09:56:38Z</time>
      </trkpt>
      <trkpt lat="46.59945" lon="-0.79489">
        <ele>80.89</ele>
        <time>2021-03-01T09:56:48Z</time>
      </trkpt>
      <trkpt lat="46.59948" lon="-0.79491">
        <ele>80.89</ele>
        <time>2021-03-01T09:56:55Z</time>
      </trkpt>
      <trkpt lat="46.59951" lon="-0.79493">
        <ele>80.89</ele>
        <time>2021-03-01T09:57:02Z</time>
      </trkpt>
      <trkpt lat="46.59951" lon="-0.79491">
        <ele>80.89</ele>
        <time>2021-03-01T09:57:11Z</time>
      </trkpt>
      <trkpt lat="46.59952" lon="-0.79492">
        <ele>80.89</ele>
        <time>2021-03-01T09:57:19Z</time>
      </trkpt>
      <trkpt lat="46.59952" lon="-0.79492">
        <ele>80.89</ele>
        <time>2021-03-01T09:57:23Z</time>
      </trkpt>
      <trkpt lat="46.59957" lon="-0.79495">
        <ele>80.89</ele>
        <time>2021-03-01T09:57:30Z</time>
      </trkpt>
      <trkpt lat="46.59959" lon="-0.79494">
        <ele>80.89</ele>
        <time>2021-03-01T09:57:36Z</time>
      </trkpt>
      <trkpt lat="46.5996" lon="-0.79495">
        <ele>80.89</ele>
        <time>2021-03-01T09:57:49Z</time>
      </trkpt>
      <trkpt lat="46.59961" lon="-0.79496">
        <ele>80.89</ele>
        <time>2021-03-01T09:57:50Z</time>
      </trkpt>
      <trkpt lat="46.59962" lon="-0.79498">
        <ele>80.89</ele>
        <time>2021-03-01T09:57:52Z</time>
      </trkpt>
      <trkpt lat="46.59969" lon="-0.79504">
        <ele>80.89</ele>
        <time>2021-03-01T09:57:59Z</time>
      </trkpt>
      <trkpt lat="46.5997" lon="-0.79506">
        <ele>80.89</ele>
        <time>2021-03-01T09:58:01Z</time>
      </trkpt>
      <trkpt lat="46.59971" lon="-0.79508">
        <ele>80.89</ele>
        <time>2021-03-01T09:58:02Z</time>
      </trkpt>
      <trkpt lat="46.59971" lon="-0.7951">
        <ele>80.89</ele>
        <time>2021-03-01T09:58:07Z</time>
      </trkpt>
      <trkpt lat="46.59972" lon="-0.79517">
        <ele>80.89</ele>
        <time>2021-03-01T09:58:12Z</time>
      </trkpt>
      <trkpt lat="46.5997" lon="-0.79522">
        <ele>80.89</ele>
        <time>2021-03-01T09:58:20Z</time>
      </trkpt>
      <trkpt lat="46.59969" lon="-0.79522">
        <ele>80.89</ele>
        <time>2021-03-01T09:58:31Z</time>
      </trkpt>
      <trkpt lat="46.59969" lon="-0.79524">
        <ele>80.41</ele>
        <time>2021-03-01T09:58:41Z</time>
      </trkpt>
      <trkpt lat="46.59967" lon="-0.79528">
        <ele>80.89</ele>
        <time>2021-03-01T09:58:47Z</time>
      </trkpt>
      <trkpt lat="46.59966" lon="-0.79529">
        <ele>80.89</ele>
        <time>2021-03-01T09:58:48Z</time>
      </trkpt>
      <trkpt lat="46.59964" lon="-0.79534">
        <ele>80.41</ele>
        <time>2021-03-01T09:58:55Z</time>
      </trkpt>
      <trkpt lat="46.5996" lon="-0.79542">
        <ele>80.89</ele>
        <time>2021-03-01T09:59:02Z</time>
      </trkpt>
      <trkpt lat="46.59959" lon="-0.79544">
        <ele>80.41</ele>
        <time>2021-03-01T09:59:09Z</time>
      </trkpt>
      <trkpt lat="46.59958" lon="-0.79544">
        <ele>80.41</ele>
        <time>2021-03-01T09:59:22Z</time>
      </trkpt>
      <trkpt lat="46.59958" lon="-0.79545">
        <ele>79.45</ele>
        <time>2021-03-01T09:59:26Z</time>
      </trkpt>
      <trkpt lat="46.5996" lon="-0.79547">
        <ele>79.45</ele>
        <time>2021-03-01T09:59:27Z</time>
      </trkpt>
      <trkpt lat="46.59961" lon="-0.79548">
        <ele>79.45</ele>
        <time>2021-03-01T09:59:28Z</time>
      </trkpt>
      <trkpt lat="46.59961" lon="-0.7955">
        <ele>79.45</ele>
        <time>2021-03-01T09:59:29Z</time>
      </trkpt>
      <trkpt lat="46.5996" lon="-0.79553">
        <ele>79.45</ele>
        <time>2021-03-01T09:59:32Z</time>
      </trkpt>
      <trkpt lat="46.5996" lon="-0.79555">
        <ele>79.45</ele>
        <time>2021-03-01T09:59:33Z</time>
      </trkpt>
      <trkpt lat="46.59959" lon="-0.79563">
        <ele>79.45</ele>
        <time>2021-03-01T09:59:39Z</time>
      </trkpt>
      <trkpt lat="46.59958" lon="-0.79565">
        <ele>79.45</ele>
        <time>2021-03-01T09:59:40Z</time>
      </trkpt>
      <trkpt lat="46.59958" lon="-0.79567">
        <ele>79.45</ele>
        <time>2021-03-01T09:59:41Z</time>
      </trkpt>
      <trkpt lat="46.59956" lon="-0.79573">
        <ele>79.45</ele>
        <time>2021-03-01T09:59:46Z</time>
      </trkpt>
      <trkpt lat="46.59956" lon="-0.79575">
        <ele>79.45</ele>
        <time>2021-03-01T09:59:47Z</time>
      </trkpt>
      <trkpt lat="46.59957" lon="-0.79578">
        <ele>79.45</ele>
        <time>2021-03-01T09:59:48Z</time>
      </trkpt>
      <trkpt lat="46.59956" lon="-0.79588">
        <ele>79.45</ele>
        <time>2021-03-01T09:59:56Z</time>
      </trkpt>
      <trkpt lat="46.59956" lon="-0.79598">
        <ele>79.45</ele>
        <time>2021-03-01T10:00:03Z</time>
      </trkpt>
      <trkpt lat="46.59956" lon="-0.79598">
        <ele>79.45</ele>
        <time>2021-03-01T10:00:10Z</time>
      </trkpt>
      <trkpt lat="46.59956" lon="-0.79598">
        <ele>79.45</ele>
        <time>2021-03-01T10:00:11Z</time>
      </trkpt>
      <trkpt lat="46.59956" lon="-0.79599">
        <ele>79.45</ele>
        <time>2021-03-01T10:00:15Z</time>
      </trkpt>
      <trkpt lat="46.59955" lon="-0.79602">
        <ele>79.45</ele>
        <time>2021-03-01T10:00:22Z</time>
      </trkpt>
      <trkpt lat="46.59953" lon="-0.79605">
        <ele>79.45</ele>
        <time>2021-03-01T10:00:28Z</time>
      </trkpt>
      <trkpt lat="46.59953" lon="-0.79608">
        <ele>79.45</ele>
        <time>2021-03-01T10:00:33Z</time>
      </trkpt>
      <trkpt lat="46.59952" lon="-0.7961">
        <ele>79.45</ele>
        <time>2021-03-01T10:00:34Z</time>
      </trkpt>
      <trkpt lat="46.59952" lon="-0.79614">
        <ele>79.45</ele>
        <time>2021-03-01T10:00:38Z</time>
      </trkpt>
      <trkpt lat="46.59951" lon="-0.79615">
        <ele>79.45</ele>
        <time>2021-03-01T10:00:45Z</time>
      </trkpt>
      <trkpt lat="46.59952" lon="-0.79617">
        <ele>78.97</ele>
        <time>2021-03-01T10:00:50Z</time>
      </trkpt>
      <trkpt lat="46.59951" lon="-0.79618">
        <ele>80.41</ele>
        <time>2021-03-01T10:00:57Z</time>
      </trkpt>
      <trkpt lat="46.59951" lon="-0.79619">
        <ele>80.41</ele>
        <time>2021-03-01T10:01:05Z</time>
      </trkpt>
      <trkpt lat="46.59952" lon="-0.7962">
        <ele>80.41</ele>
        <time>2021-03-01T10:01:11Z</time>
      </trkpt>
      <trkpt lat="46.59952" lon="-0.79624">
        <ele>80.41</ele>
        <time>2021-03-01T10:01:15Z</time>
      </trkpt>
      <trkpt lat="46.59951" lon="-0.79629">
        <ele>80.41</ele>
        <time>2021-03-01T10:01:20Z</time>
      </trkpt>
      <trkpt lat="46.59951" lon="-0.79631">
        <ele>80.41</ele>
        <time>2021-03-01T10:01:21Z</time>
      </trkpt>
      <trkpt lat="46.59951" lon="-0.79632">
        <ele>80.41</ele>
        <time>2021-03-01T10:01:22Z</time>
      </trkpt>
      <trkpt lat="46.59951" lon="-0.79635">
        <ele>80.41</ele>
        <time>2021-03-01T10:01:24Z</time>
      </trkpt>
      <trkpt lat="46.59951" lon="-0.79639">
        <ele>80.41</ele>
        <time>2021-03-01T10:01:27Z</time>
      </trkpt>
      <trkpt lat="46.59951" lon="-0.79641">
        <ele>80.41</ele>
        <time>2021-03-01T10:01:28Z</time>
      </trkpt>
      <trkpt lat="46.5995" lon="-0.79656">
        <ele>80.41</ele>
        <time>2021-03-01T10:01:37Z</time>
      </trkpt>
      <trkpt lat="46.5995" lon="-0.79658">
        <ele>80.41</ele>
        <time>2021-03-01T10:01:45Z</time>
      </trkpt>
      <trkpt lat="46.59951" lon="-0.79657">
        <ele>80.41</ele>
        <time>2021-03-01T10:01:58Z</time>
      </trkpt>
      <trkpt lat="46.59951" lon="-0.79658">
        <ele>80.89</ele>
        <time>2021-03-01T10:02:08Z</time>
      </trkpt>
      <trkpt lat="46.5995" lon="-0.79661">
        <ele>80.89</ele>
        <time>2021-03-01T10:02:15Z</time>
      </trkpt>
      <trkpt lat="46.59949" lon="-0.79662">
        <ele>80.89</ele>
        <time>2021-03-01T10:02:25Z</time>
      </trkpt>
      <trkpt lat="46.59948" lon="-0.79661">
        <ele>79.93</ele>
        <time>2021-03-01T10:02:34Z</time>
      </trkpt>
      <trkpt lat="46.59949" lon="-0.79663">
        <ele>79.93</ele>
        <time>2021-03-01T10:02:40Z</time>
      </trkpt>
      <trkpt lat="46.59949" lon="-0.79663">
        <ele>79.93</ele>
        <time>2021-03-01T10:02:47Z</time>
      </trkpt>
      <trkpt lat="46.59948" lon="-0.79663">
        <ele>79.93</ele>
        <time>2021-03-01T10:02:57Z</time>
      </trkpt>
      <trkpt lat="46.59949" lon="-0.79664">
        <ele>79.93</ele>
        <time>2021-03-01T10:03:08Z</time>
      </trkpt>
      <trkpt lat="46.59948" lon="-0.79664">
        <ele>79.93</ele>
        <time>2021-03-01T10:03:14Z</time>
      </trkpt>
      <trkpt lat="46.59948" lon="-0.79664">
        <ele>79.93</ele>
        <time>2021-03-01T10:03:21Z</time>
      </trkpt>
      <trkpt lat="46.59948" lon="-0.79666">
        <ele>79.45</ele>
        <time>2021-03-01T10:03:30Z</time>
      </trkpt>
      <trkpt lat="46.59948" lon="-0.79665">
        <ele>79.45</ele>
        <time>2021-03-01T10:03:38Z</time>
      </trkpt>
      <trkpt lat="46.59947" lon="-0.79664">
        <ele>79.45</ele>
        <time>2021-03-01T10:03:47Z</time>
      </trkpt>
      <trkpt lat="46.59946" lon="-0.79659">
        <ele>79.45</ele>
        <time>2021-03-01T10:04:10Z</time>
      </trkpt>
      <trkpt lat="46.59946" lon="-0.79659">
        <ele>79.45</ele>
        <time>2021-03-01T10:04:19Z</time>
      </trkpt>
      <trkpt lat="46.59946" lon="-0.79663">
        <ele>79.45</ele>
        <time>2021-03-01T10:04:38Z</time>
      </trkpt>
      <trkpt lat="46.59947" lon="-0.79665">
        <ele>79.45</ele>
        <time>2021-03-01T10:04:51Z</time>
      </trkpt>
      <trkpt lat="46.59947" lon="-0.79666">
        <ele>79.45</ele>
        <time>2021-03-01T10:04:59Z</time>
      </trkpt>
      <trkpt lat="46.59946" lon="-0.79666">
        <ele>80.89</ele>
        <time>2021-03-01T10:05:08Z</time>
      </trkpt>
      <trkpt lat="46.59947" lon="-0.79666">
        <ele>80.89</ele>
        <time>2021-03-01T10:05:16Z</time>
      </trkpt>
      <trkpt lat="46.59947" lon="-0.79665">
        <ele>80.89</ele>
        <time>2021-03-01T10:05:23Z</time>
      </trkpt>
      <trkpt lat="46.59945" lon="-0.79665">
        <ele>80.41</ele>
        <time>2021-03-01T10:05:39Z</time>
      </trkpt>
      <trkpt lat="46.59945" lon="-0.79665">
        <ele>80.41</ele>
        <time>2021-03-01T10:05:40Z</time>
      </trkpt>
      <trkpt lat="46.59944" lon="-0.79665">
        <ele>80.41</ele>
        <time>2021-03-01T10:05:45Z</time>
      </trkpt>
      <trkpt lat="46.59944" lon="-0.79666">
        <ele>80.41</ele>
        <time>2021-03-01T10:05:52Z</time>
      </trkpt>
      <trkpt lat="46.59945" lon="-0.79664">
        <ele>80.41</ele>
        <time>2021-03-01T10:05:59Z</time>
      </trkpt>
      <trkpt lat="46.59943" lon="-0.79663">
        <ele>80.41</ele>
        <time>2021-03-01T10:06:04Z</time>
      </trkpt>
      <trkpt lat="46.59943" lon="-0.79663">
        <ele>80.41</ele>
        <time>2021-03-01T10:06:16Z</time>
      </trkpt>
      <trkpt lat="46.59942" lon="-0.79665">
        <ele>80.41</ele>
        <time>2021-03-01T10:06:29Z</time>
      </trkpt>
      <trkpt lat="46.59939" lon="-0.79665">
        <ele>80.41</ele>
        <time>2021-03-01T10:06:32Z</time>
      </trkpt>
      <trkpt lat="46.59934" lon="-0.79664">
        <ele>80.41</ele>
        <time>2021-03-01T10:06:39Z</time>
      </trkpt>
      <trkpt lat="46.59927" lon="-0.79666">
        <ele>80.41</ele>
        <time>2021-03-01T10:06:46Z</time>
      </trkpt>
      <trkpt lat="46.59921" lon="-0.79665">
        <ele>80.41</ele>
        <time>2021-03-01T10:06:52Z</time>
      </trkpt>
      <trkpt lat="46.5992" lon="-0.79664">
        <ele>80.41</ele>
        <time>2021-03-01T10:06:53Z</time>
      </trkpt>
      <trkpt lat="46.59916" lon="-0.79663">
        <ele>80.41</ele>
        <time>2021-03-01T10:06:56Z</time>
      </trkpt>
      <trkpt lat="46.59914" lon="-0.79664">
        <ele>80.41</ele>
        <time>2021-03-01T10:06:57Z</time>
      </trkpt>
      <trkpt lat="46.59912" lon="-0.79664">
        <ele>80.41</ele>
        <time>2021-03-01T10:06:58Z</time>
      </trkpt>
      <trkpt lat="46.59911" lon="-0.79665">
        <ele>80.41</ele>
        <time>2021-03-01T10:06:59Z</time>
      </trkpt>
      <trkpt lat="46.59904" lon="-0.79665">
        <ele>80.41</ele>
        <time>2021-03-01T10:07:07Z</time>
      </trkpt>
      <trkpt lat="46.59894" lon="-0.79668">
        <ele>80.89</ele>
        <time>2021-03-01T10:07:17Z</time>
      </trkpt>
      <trkpt lat="46.59889" lon="-0.79674">
        <ele>81.37</ele>
        <time>2021-03-01T10:07:26Z</time>
      </trkpt>
      <trkpt lat="46.59886" lon="-0.79679">
        <ele>81.37</ele>
        <time>2021-03-01T10:07:32Z</time>
      </trkpt>
      <trkpt lat="46.59881" lon="-0.79684">
        <ele>81.37</ele>
        <time>2021-03-01T10:07:39Z</time>
      </trkpt>
      <trkpt lat="46.59874" lon="-0.79691">
        <ele>81.85</ele>
        <time>2021-03-01T10:07:47Z</time>
      </trkpt>
      <trkpt lat="46.59867" lon="-0.79697">
        <ele>82.33</ele>
        <time>2021-03-01T10:07:54Z</time>
      </trkpt>
      <trkpt lat="46.5986" lon="-0.79701">
        <ele>82.81</ele>
        <time>2021-03-01T10:08:00Z</time>
      </trkpt>
      <trkpt lat="46.59853" lon="-0.79704">
        <ele>83.29</ele>
        <time>2021-03-01T10:08:08Z</time>
      </trkpt>
      <trkpt lat="46.59845" lon="-0.79707">
        <ele>83.77</ele>
        <time>2021-03-01T10:08:16Z</time>
      </trkpt>
      <trkpt lat="46.59835" lon="-0.79711">
        <ele>84.25</ele>
        <time>2021-03-01T10:08:25Z</time>
      </trkpt>
      <trkpt lat="46.59834" lon="-0.79711">
        <ele>84.25</ele>
        <time>2021-03-01T10:08:27Z</time>
      </trkpt>
      <trkpt lat="46.59829" lon="-0.79713">
        <ele>84.25</ele>
        <time>2021-03-01T10:08:32Z</time>
      </trkpt>
      <trkpt lat="46.59819" lon="-0.79717">
        <ele>84.25</ele>
        <time>2021-03-01T10:08:41Z</time>
      </trkpt>
      <trkpt lat="46.59811" lon="-0.79721">
        <ele>84.73</ele>
        <time>2021-03-01T10:08:48Z</time>
      </trkpt>
      <trkpt lat="46.59805" lon="-0.79725">
        <ele>84.73</ele>
        <time>2021-03-01T10:08:54Z</time>
      </trkpt>
      <trkpt lat="46.59797" lon="-0.79731">
        <ele>85.21</ele>
        <time>2021-03-01T10:09:02Z</time>
      </trkpt>
      <trkpt lat="46.59788" lon="-0.79738">
        <ele>85.21</ele>
        <time>2021-03-01T10:09:11Z</time>
      </trkpt>
      <trkpt lat="46.59778" lon="-0.79745">
        <ele>85.21</ele>
        <time>2021-03-01T10:09:19Z</time>
      </trkpt>
      <trkpt lat="46.59768" lon="-0.79753">
        <ele>85.21</ele>
        <time>2021-03-01T10:09:29Z</time>
      </trkpt>
      <trkpt lat="46.59759" lon="-0.79762">
        <ele>85.21</ele>
        <time>2021-03-01T10:09:38Z</time>
      </trkpt>
      <trkpt lat="46.5975" lon="-0.79768">
        <ele>85.21</ele>
        <time>2021-03-01T10:09:46Z</time>
      </trkpt>
      <trkpt lat="46.59748" lon="-0.7977">
        <ele>85.21</ele>
        <time>2021-03-01T10:09:48Z</time>
      </trkpt>
      <trkpt lat="46.59747" lon="-0.79772">
        <ele>85.21</ele>
        <time>2021-03-01T10:09:49Z</time>
      </trkpt>
      <trkpt lat="46.59745" lon="-0.79774">
        <ele>85.21</ele>
        <time>2021-03-01T10:09:50Z</time>
      </trkpt>
      <trkpt lat="46.59737" lon="-0.79781">
        <ele>85.21</ele>
        <time>2021-03-01T10:09:58Z</time>
      </trkpt>
      <trkpt lat="46.59729" lon="-0.79791">
        <ele>85.21</ele>
        <time>2021-03-01T10:10:06Z</time>
      </trkpt>
      <trkpt lat="46.5972" lon="-0.79796">
        <ele>85.21</ele>
        <time>2021-03-01T10:10:15Z</time>
      </trkpt>
      <trkpt lat="46.59712" lon="-0.79804">
        <ele>85.21</ele>
        <time>2021-03-01T10:10:23Z</time>
      </trkpt>
      <trkpt lat="46.59702" lon="-0.79812">
        <ele>85.69</ele>
        <time>2021-03-01T10:10:32Z</time>
      </trkpt>
      <trkpt lat="46.59694" lon="-0.79815">
        <ele>85.69</ele>
        <time>2021-03-01T10:10:40Z</time>
      </trkpt>
      <trkpt lat="46.59684" lon="-0.7982">
        <ele>86.18</ele>
        <time>2021-03-01T10:10:49Z</time>
      </trkpt>
      <trkpt lat="46.59683" lon="-0.7982">
        <ele>86.18</ele>
        <time>2021-03-01T10:10:50Z</time>
      </trkpt>
      <trkpt lat="46.59682" lon="-0.7982">
        <ele>85.69</ele>
        <time>2021-03-01T10:10:51Z</time>
      </trkpt>
      <trkpt lat="46.59671" lon="-0.79825">
        <ele>86.18</ele>
        <time>2021-03-01T10:11:00Z</time>
      </trkpt>
      <trkpt lat="46.59659" lon="-0.79828">
        <ele>86.66</ele>
        <time>2021-03-01T10:11:08Z</time>
      </trkpt>
      <trkpt lat="46.59651" lon="-0.79828">
        <ele>87.14</ele>
        <time>2021-03-01T10:11:16Z</time>
      </trkpt>
      <trkpt lat="46.59641" lon="-0.79828">
        <ele>87.14</ele>
        <time>2021-03-01T10:11:25Z</time>
      </trkpt>
      <trkpt lat="46.59629" lon="-0.79831">
        <ele>87.62</ele>
        <time>2021-03-01T10:11:34Z</time>
      </trkpt>
      <trkpt lat="46.59618" lon="-0.79835">
        <ele>88.1</ele>
        <time>2021-03-01T10:11:43Z</time>
      </trkpt>
      <trkpt lat="46.5961" lon="-0.79838">
        <ele>88.1</ele>
        <time>2021-03-01T10:11:51Z</time>
      </trkpt>
      <trkpt lat="46.59609" lon="-0.79838">
        <ele>88.58</ele>
        <time>2021-03-01T10:11:52Z</time>
      </trkpt>
      <trkpt lat="46.59607" lon="-0.79839">
        <ele>88.58</ele>
        <time>2021-03-01T10:11:53Z</time>
      </trkpt>
      <trkpt lat="46.59606" lon="-0.7984">
        <ele>88.58</ele>
        <time>2021-03-01T10:11:54Z</time>
      </trkpt>
      <trkpt lat="46.59604" lon="-0.79842">
        <ele>88.58</ele>
        <time>2021-03-01T10:11:55Z</time>
      </trkpt>
      <trkpt lat="46.59603" lon="-0.79843">
        <ele>88.58</ele>
        <time>2021-03-01T10:11:56Z</time>
      </trkpt>
      <trkpt lat="46.59601" lon="-0.79844">
        <ele>88.58</ele>
        <time>2021-03-01T10:11:57Z</time>
      </trkpt>
      <trkpt lat="46.596" lon="-0.79845">
        <ele>88.58</ele>
        <time>2021-03-01T10:11:58Z</time>
      </trkpt>
      <trkpt lat="46.59599" lon="-0.79846">
        <ele>88.58</ele>
        <time>2021-03-01T10:11:59Z</time>
      </trkpt>
      <trkpt lat="46.59598" lon="-0.79847">
        <ele>88.58</ele>
        <time>2021-03-01T10:12:00Z</time>
      </trkpt>
      <trkpt lat="46.59589" lon="-0.79855">
        <ele>88.58</ele>
        <time>2021-03-01T10:12:09Z</time>
      </trkpt>
      <trkpt lat="46.59581" lon="-0.79862">
        <ele>89.06</ele>
        <time>2021-03-01T10:12:17Z</time>
      </trkpt>
      <trkpt lat="46.59573" lon="-0.79869">
        <ele>89.54</ele>
        <time>2021-03-01T10:12:24Z</time>
      </trkpt>
      <trkpt lat="46.59565" lon="-0.79878">
        <ele>90.02</ele>
        <time>2021-03-01T10:12:32Z</time>
      </trkpt>
      <trkpt lat="46.59557" lon="-0.79886">
        <ele>90.02</ele>
        <time>2021-03-01T10:12:41Z</time>
      </trkpt>
      <trkpt lat="46.59548" lon="-0.79898">
        <ele>90.5</ele>
        <time>2021-03-01T10:12:50Z</time>
      </trkpt>
      <trkpt lat="46.5954" lon="-0.79907">
        <ele>90.5</ele>
        <time>2021-03-01T10:12:59Z</time>
      </trkpt>
      <trkpt lat="46.59536" lon="-0.79912">
        <ele>90.98</ele>
        <time>2021-03-01T10:13:04Z</time>
      </trkpt>
      <trkpt lat="46.59528" lon="-0.7992">
        <ele>91.46</ele>
        <time>2021-03-01T10:13:11Z</time>
      </trkpt>
      <trkpt lat="46.59523" lon="-0.79926">
        <ele>91.46</ele>
        <time>2021-03-01T10:13:17Z</time>
      </trkpt>
      <trkpt lat="46.59515" lon="-0.79935">
        <ele>91.46</ele>
        <time>2021-03-01T10:13:25Z</time>
      </trkpt>
      <trkpt lat="46.59508" lon="-0.79944">
        <ele>91.46</ele>
        <time>2021-03-01T10:13:33Z</time>
      </trkpt>
      <trkpt lat="46.595" lon="-0.79953">
        <ele>92.42</ele>
        <time>2021-03-01T10:13:42Z</time>
      </trkpt>
      <trkpt lat="46.59491" lon="-0.79962">
        <ele>92.42</ele>
        <time>2021-03-01T10:13:51Z</time>
      </trkpt>
      <trkpt lat="46.59484" lon="-0.79972">
        <ele>92.42</ele>
        <time>2021-03-01T10:13:59Z</time>
      </trkpt>
      <trkpt lat="46.59475" lon="-0.79982">
        <ele>92.42</ele>
        <time>2021-03-01T10:14:07Z</time>
      </trkpt>
      <trkpt lat="46.59468" lon="-0.7999">
        <ele>92.42</ele>
        <time>2021-03-01T10:14:16Z</time>
      </trkpt>
      <trkpt lat="46.5946" lon="-0.80003">
        <ele>92.42</ele>
        <time>2021-03-01T10:14:24Z</time>
      </trkpt>
      <trkpt lat="46.59453" lon="-0.8001">
        <ele>92.42</ele>
        <time>2021-03-01T10:14:32Z</time>
      </trkpt>
      <trkpt lat="46.59445" lon="-0.80018">
        <ele>92.42</ele>
        <time>2021-03-01T10:14:41Z</time>
      </trkpt>
      <trkpt lat="46.59437" lon="-0.80028">
        <ele>92.42</ele>
        <time>2021-03-01T10:14:48Z</time>
      </trkpt>
      <trkpt lat="46.59429" lon="-0.80037">
        <ele>92.42</ele>
        <time>2021-03-01T10:14:57Z</time>
      </trkpt>
      <trkpt lat="46.59421" lon="-0.80046">
        <ele>92.42</ele>
        <time>2021-03-01T10:15:06Z</time>
      </trkpt>
      <trkpt lat="46.59412" lon="-0.80056">
        <ele>92.42</ele>
        <time>2021-03-01T10:15:13Z</time>
      </trkpt>
      <trkpt lat="46.59406" lon="-0.80061">
        <ele>92.42</ele>
        <time>2021-03-01T10:15:21Z</time>
      </trkpt>
      <trkpt lat="46.59396" lon="-0.80073">
        <ele>92.42</ele>
        <time>2021-03-01T10:15:29Z</time>
      </trkpt>
      <trkpt lat="46.59388" lon="-0.80081">
        <ele>92.42</ele>
        <time>2021-03-01T10:15:38Z</time>
      </trkpt>
      <trkpt lat="46.59381" lon="-0.80087">
        <ele>92.42</ele>
        <time>2021-03-01T10:15:46Z</time>
      </trkpt>
      <trkpt lat="46.5938" lon="-0.80089">
        <ele>92.42</ele>
        <time>2021-03-01T10:15:47Z</time>
      </trkpt>
      <trkpt lat="46.59379" lon="-0.8009">
        <ele>92.42</ele>
        <time>2021-03-01T10:15:48Z</time>
      </trkpt>
      <trkpt lat="46.59378" lon="-0.80092">
        <ele>90.98</ele>
        <time>2021-03-01T10:15:49Z</time>
      </trkpt>
      <trkpt lat="46.59376" lon="-0.80094">
        <ele>90.98</ele>
        <time>2021-03-01T10:15:50Z</time>
      </trkpt>
      <trkpt lat="46.59375" lon="-0.80095">
        <ele>90.98</ele>
        <time>2021-03-01T10:15:51Z</time>
      </trkpt>
      <trkpt lat="46.59368" lon="-0.80101">
        <ele>90.98</ele>
        <time>2021-03-01T10:15:59Z</time>
      </trkpt>
      <trkpt lat="46.59365" lon="-0.80102">
        <ele>90.02</ele>
        <time>2021-03-01T10:16:04Z</time>
      </trkpt>
      <trkpt lat="46.59363" lon="-0.80104">
        <ele>90.02</ele>
        <time>2021-03-01T10:16:13Z</time>
      </trkpt>
      <trkpt lat="46.59362" lon="-0.80105">
        <ele>90.02</ele>
        <time>2021-03-01T10:16:14Z</time>
      </trkpt>
      <trkpt lat="46.59361" lon="-0.80106">
        <ele>90.02</ele>
        <time>2021-03-01T10:16:15Z</time>
      </trkpt>
      <trkpt lat="46.59359" lon="-0.80108">
        <ele>90.02</ele>
        <time>2021-03-01T10:16:16Z</time>
      </trkpt>
      <trkpt lat="46.59358" lon="-0.8011">
        <ele>90.02</ele>
        <time>2021-03-01T10:16:17Z</time>
      </trkpt>
      <trkpt lat="46.59357" lon="-0.80111">
        <ele>90.02</ele>
        <time>2021-03-01T10:16:18Z</time>
      </trkpt>
      <trkpt lat="46.59355" lon="-0.80112">
        <ele>90.02</ele>
        <time>2021-03-01T10:16:19Z</time>
      </trkpt>
      <trkpt lat="46.59355" lon="-0.80113">
        <ele>90.02</ele>
        <time>2021-03-01T10:16:20Z</time>
      </trkpt>
      <trkpt lat="46.59352" lon="-0.80116">
        <ele>89.54</ele>
        <time>2021-03-01T10:16:25Z</time>
      </trkpt>
      <trkpt lat="46.59351" lon="-0.80118">
        <ele>89.54</ele>
        <time>2021-03-01T10:16:26Z</time>
      </trkpt>
      <trkpt lat="46.59351" lon="-0.80119">
        <ele>89.54</ele>
        <time>2021-03-01T10:16:27Z</time>
      </trkpt>
      <trkpt lat="46.59344" lon="-0.80125">
        <ele>89.06</ele>
        <time>2021-03-01T10:16:33Z</time>
      </trkpt>
      <trkpt lat="46.59341" lon="-0.80129">
        <ele>89.06</ele>
        <time>2021-03-01T10:16:37Z</time>
      </trkpt>
      <trkpt lat="46.5934" lon="-0.8013">
        <ele>89.06</ele>
        <time>2021-03-01T10:16:38Z</time>
      </trkpt>
      <trkpt lat="46.59339" lon="-0.80132">
        <ele>89.06</ele>
        <time>2021-03-01T10:16:39Z</time>
      </trkpt>
      <trkpt lat="46.59331" lon="-0.80139">
        <ele>89.06</ele>
        <time>2021-03-01T10:16:47Z</time>
      </trkpt>
      <trkpt lat="46.59324" lon="-0.80147">
        <ele>88.58</ele>
        <time>2021-03-01T10:16:53Z</time>
      </trkpt>
      <trkpt lat="46.59321" lon="-0.8015">
        <ele>88.58</ele>
        <time>2021-03-01T10:16:58Z</time>
      </trkpt>
      <trkpt lat="46.5932" lon="-0.80151">
        <ele>88.58</ele>
        <time>2021-03-01T10:16:59Z</time>
      </trkpt>
      <trkpt lat="46.59318" lon="-0.80152">
        <ele>88.58</ele>
        <time>2021-03-01T10:17:00Z</time>
      </trkpt>
      <trkpt lat="46.5931" lon="-0.80161">
        <ele>88.1</ele>
        <time>2021-03-01T10:17:08Z</time>
      </trkpt>
      <trkpt lat="46.59303" lon="-0.8017">
        <ele>88.1</ele>
        <time>2021-03-01T10:17:15Z</time>
      </trkpt>
      <trkpt lat="46.59297" lon="-0.80174">
        <ele>88.1</ele>
        <time>2021-03-01T10:17:22Z</time>
      </trkpt>
      <trkpt lat="46.59289" lon="-0.80182">
        <ele>88.1</ele>
        <time>2021-03-01T10:17:28Z</time>
      </trkpt>
      <trkpt lat="46.59284" lon="-0.80187">
        <ele>88.1</ele>
        <time>2021-03-01T10:17:35Z</time>
      </trkpt>
      <trkpt lat="46.59276" lon="-0.80194">
        <ele>88.1</ele>
        <time>2021-03-01T10:17:43Z</time>
      </trkpt>
      <trkpt lat="46.59268" lon="-0.80202">
        <ele>88.1</ele>
        <time>2021-03-01T10:17:51Z</time>
      </trkpt>
      <trkpt lat="46.59267" lon="-0.80203">
        <ele>88.1</ele>
        <time>2021-03-01T10:17:53Z</time>
      </trkpt>
      <trkpt lat="46.59266" lon="-0.80204">
        <ele>88.1</ele>
        <time>2021-03-01T10:17:54Z</time>
      </trkpt>
      <trkpt lat="46.59264" lon="-0.80206">
        <ele>88.1</ele>
        <time>2021-03-01T10:17:55Z</time>
      </trkpt>
      <trkpt lat="46.5926" lon="-0.80211">
        <ele>88.1</ele>
        <time>2021-03-01T10:18:01Z</time>
      </trkpt>
      <trkpt lat="46.59253" lon="-0.80221">
        <ele>88.1</ele>
        <time>2021-03-01T10:18:07Z</time>
      </trkpt>
      <trkpt lat="46.59249" lon="-0.80224">
        <ele>88.1</ele>
        <time>2021-03-01T10:18:13Z</time>
      </trkpt>
      <trkpt lat="46.59247" lon="-0.80226">
        <ele>88.1</ele>
        <time>2021-03-01T10:18:14Z</time>
      </trkpt>
      <trkpt lat="46.59246" lon="-0.80227">
        <ele>88.1</ele>
        <time>2021-03-01T10:18:15Z</time>
      </trkpt>
      <trkpt lat="46.59238" lon="-0.80233">
        <ele>88.1</ele>
        <time>2021-03-01T10:18:23Z</time>
      </trkpt>
      <trkpt lat="46.59231" lon="-0.80241">
        <ele>87.62</ele>
        <time>2021-03-01T10:18:29Z</time>
      </trkpt>
      <trkpt lat="46.59223" lon="-0.80248">
        <ele>87.62</ele>
        <time>2021-03-01T10:18:37Z</time>
      </trkpt>
      <trkpt lat="46.59217" lon="-0.80253">
        <ele>87.62</ele>
        <time>2021-03-01T10:18:44Z</time>
      </trkpt>
      <trkpt lat="46.59209" lon="-0.80262">
        <ele>87.62</ele>
        <time>2021-03-01T10:18:51Z</time>
      </trkpt>
      <trkpt lat="46.59201" lon="-0.8027">
        <ele>87.14</ele>
        <time>2021-03-01T10:18:59Z</time>
      </trkpt>
      <trkpt lat="46.59194" lon="-0.80277">
        <ele>87.14</ele>
        <time>2021-03-01T10:19:07Z</time>
      </trkpt>
      <trkpt lat="46.59188" lon="-0.80281">
        <ele>86.66</ele>
        <time>2021-03-01T10:19:14Z</time>
      </trkpt>
      <trkpt lat="46.59187" lon="-0.80282">
        <ele>86.66</ele>
        <time>2021-03-01T10:19:15Z</time>
      </trkpt>
      <trkpt lat="46.59186" lon="-0.80283">
        <ele>86.66</ele>
        <time>2021-03-01T10:19:16Z</time>
      </trkpt>
      <trkpt lat="46.59185" lon="-0.80285">
        <ele>86.66</ele>
        <time>2021-03-01T10:19:17Z</time>
      </trkpt>
      <trkpt lat="46.59183" lon="-0.80286">
        <ele>86.66</ele>
        <time>2021-03-01T10:19:18Z</time>
      </trkpt>
      <trkpt lat="46.59182" lon="-0.80288">
        <ele>86.18</ele>
        <time>2021-03-01T10:19:19Z</time>
      </trkpt>
      <trkpt lat="46.59176" lon="-0.80293">
        <ele>86.18</ele>
        <time>2021-03-01T10:19:26Z</time>
      </trkpt>
      <trkpt lat="46.59169" lon="-0.80301">
        <ele>86.18</ele>
        <time>2021-03-01T10:19:34Z</time>
      </trkpt>
      <trkpt lat="46.59162" lon="-0.80309">
        <ele>85.69</ele>
        <time>2021-03-01T10:19:40Z</time>
      </trkpt>
      <trkpt lat="46.59158" lon="-0.80314">
        <ele>85.69</ele>
        <time>2021-03-01T10:19:46Z</time>
      </trkpt>
      <trkpt lat="46.5915" lon="-0.80322">
        <ele>85.69</ele>
        <time>2021-03-01T10:19:53Z</time>
      </trkpt>
      <trkpt lat="46.59144" lon="-0.80328">
        <ele>85.69</ele>
        <time>2021-03-01T10:20:00Z</time>
      </trkpt>
      <trkpt lat="46.59138" lon="-0.80334">
        <ele>85.69</ele>
        <time>2021-03-01T10:20:07Z</time>
      </trkpt>
      <trkpt lat="46.5913" lon="-0.80342">
        <ele>85.69</ele>
        <time>2021-03-01T10:20:13Z</time>
      </trkpt>
      <trkpt lat="46.59126" lon="-0.80346">
        <ele>85.69</ele>
        <time>2021-03-01T10:20:19Z</time>
      </trkpt>
      <trkpt lat="46.5912" lon="-0.80354">
        <ele>85.69</ele>
        <time>2021-03-01T10:20:25Z</time>
      </trkpt>
      <trkpt lat="46.59118" lon="-0.80355">
        <ele>85.69</ele>
        <time>2021-03-01T10:20:28Z</time>
      </trkpt>
      <trkpt lat="46.59117" lon="-0.80356">
        <ele>85.69</ele>
        <time>2021-03-01T10:20:29Z</time>
      </trkpt>
      <trkpt lat="46.59109" lon="-0.80364">
        <ele>85.69</ele>
        <time>2021-03-01T10:20:37Z</time>
      </trkpt>
      <trkpt lat="46.59104" lon="-0.80372">
        <ele>85.69</ele>
        <time>2021-03-01T10:20:43Z</time>
      </trkpt>
      <trkpt lat="46.591" lon="-0.80378">
        <ele>85.69</ele>
        <time>2021-03-01T10:20:51Z</time>
      </trkpt>
      <trkpt lat="46.59099" lon="-0.8038">
        <ele>85.69</ele>
        <time>2021-03-01T10:20:52Z</time>
      </trkpt>
      <trkpt lat="46.59098" lon="-0.80381">
        <ele>85.69</ele>
        <time>2021-03-01T10:20:53Z</time>
      </trkpt>
      <trkpt lat="46.59097" lon="-0.80382">
        <ele>85.69</ele>
        <time>2021-03-01T10:20:54Z</time>
      </trkpt>
      <trkpt lat="46.59097" lon="-0.80383">
        <ele>85.69</ele>
        <time>2021-03-01T10:20:55Z</time>
      </trkpt>
      <trkpt lat="46.59095" lon="-0.80388">
        <ele>85.69</ele>
        <time>2021-03-01T10:21:02Z</time>
      </trkpt>
      <trkpt lat="46.59096" lon="-0.80388">
        <ele>85.69</ele>
        <time>2021-03-01T10:21:19Z</time>
      </trkpt>
      <trkpt lat="46.59096" lon="-0.80388">
        <ele>85.69</ele>
        <time>2021-03-01T10:21:27Z</time>
      </trkpt>
      <trkpt lat="46.59095" lon="-0.80389">
        <ele>85.69</ele>
        <time>2021-03-01T10:21:34Z</time>
      </trkpt>
      <trkpt lat="46.59092" lon="-0.80394">
        <ele>85.69</ele>
        <time>2021-03-01T10:21:40Z</time>
      </trkpt>
      <trkpt lat="46.59092" lon="-0.80395">
        <ele>85.69</ele>
        <time>2021-03-01T10:21:44Z</time>
      </trkpt>
      <trkpt lat="46.5909" lon="-0.80397">
        <ele>85.69</ele>
        <time>2021-03-01T10:21:48Z</time>
      </trkpt>
      <trkpt lat="46.59089" lon="-0.80398">
        <ele>85.69</ele>
        <time>2021-03-01T10:21:55Z</time>
      </trkpt>
      <trkpt lat="46.5909" lon="-0.80398">
        <ele>85.69</ele>
        <time>2021-03-01T10:22:08Z</time>
      </trkpt>
      <trkpt lat="46.5909" lon="-0.804">
        <ele>85.69</ele>
        <time>2021-03-01T10:22:21Z</time>
      </trkpt>
      <trkpt lat="46.5909" lon="-0.80402">
        <ele>85.69</ele>
        <time>2021-03-01T10:22:27Z</time>
      </trkpt>
      <trkpt lat="46.59089" lon="-0.80403">
        <ele>85.69</ele>
        <time>2021-03-01T10:22:35Z</time>
      </trkpt>
      <trkpt lat="46.59085" lon="-0.80413">
        <ele>85.21</ele>
        <time>2021-03-01T10:22:43Z</time>
      </trkpt>
      <trkpt lat="46.59081" lon="-0.80422">
        <ele>85.21</ele>
        <time>2021-03-01T10:22:51Z</time>
      </trkpt>
      <trkpt lat="46.59076" lon="-0.80431">
        <ele>84.73</ele>
        <time>2021-03-01T10:22:59Z</time>
      </trkpt>
      <trkpt lat="46.59073" lon="-0.80441">
        <ele>84.73</ele>
        <time>2021-03-01T10:23:07Z</time>
      </trkpt>
      <trkpt lat="46.59068" lon="-0.8045">
        <ele>84.73</ele>
        <time>2021-03-01T10:23:14Z</time>
      </trkpt>
      <trkpt lat="46.59063" lon="-0.80462">
        <ele>84.73</ele>
        <time>2021-03-01T10:23:22Z</time>
      </trkpt>
      <trkpt lat="46.59057" lon="-0.80472">
        <ele>84.73</ele>
        <time>2021-03-01T10:23:30Z</time>
      </trkpt>
      <trkpt lat="46.59052" lon="-0.80483">
        <ele>84.73</ele>
        <time>2021-03-01T10:23:38Z</time>
      </trkpt>
      <trkpt lat="46.59045" lon="-0.80497">
        <ele>84.73</ele>
        <time>2021-03-01T10:23:47Z</time>
      </trkpt>
      <trkpt lat="46.59038" lon="-0.80508">
        <ele>84.73</ele>
        <time>2021-03-01T10:23:55Z</time>
      </trkpt>
      <trkpt lat="46.59033" lon="-0.80516">
        <ele>84.73</ele>
        <time>2021-03-01T10:24:02Z</time>
      </trkpt>
      <trkpt lat="46.59029" lon="-0.80524">
        <ele>84.73</ele>
        <time>2021-03-01T10:24:08Z</time>
      </trkpt>
      <trkpt lat="46.59024" lon="-0.80532">
        <ele>84.73</ele>
        <time>2021-03-01T10:24:15Z</time>
      </trkpt>
      <trkpt lat="46.59018" lon="-0.80542">
        <ele>84.73</ele>
        <time>2021-03-01T10:24:24Z</time>
      </trkpt>
      <trkpt lat="46.59015" lon="-0.80542">
        <ele>84.73</ele>
        <time>2021-03-01T10:24:37Z</time>
      </trkpt>
      <trkpt lat="46.59014" lon="-0.80544">
        <ele>84.73</ele>
        <time>2021-03-01T10:24:51Z</time>
      </trkpt>
      <trkpt lat="46.59012" lon="-0.80546">
        <ele>84.73</ele>
        <time>2021-03-01T10:24:59Z</time>
      </trkpt>
      <trkpt lat="46.5901" lon="-0.8055">
        <ele>84.25</ele>
        <time>2021-03-01T10:25:06Z</time>
      </trkpt>
      <trkpt lat="46.59008" lon="-0.80552">
        <ele>84.73</ele>
        <time>2021-03-01T10:25:13Z</time>
      </trkpt>
      <trkpt lat="46.59008" lon="-0.80554">
        <ele>84.73</ele>
        <time>2021-03-01T10:25:17Z</time>
      </trkpt>
      <trkpt lat="46.59008" lon="-0.80556">
        <ele>86.18</ele>
        <time>2021-03-01T10:25:19Z</time>
      </trkpt>
      <trkpt lat="46.59005" lon="-0.80562">
        <ele>86.18</ele>
        <time>2021-03-01T10:25:25Z</time>
      </trkpt>
      <trkpt lat="46.59004" lon="-0.80562">
        <ele>86.18</ele>
        <time>2021-03-01T10:25:32Z</time>
      </trkpt>
      <trkpt lat="46.59004" lon="-0.80563">
        <ele>86.18</ele>
        <time>2021-03-01T10:25:37Z</time>
      </trkpt>
      <trkpt lat="46.59004" lon="-0.80563">
        <ele>86.18</ele>
        <time>2021-03-01T10:25:42Z</time>
      </trkpt>
      <trkpt lat="46.59003" lon="-0.80564">
        <ele>86.18</ele>
        <time>2021-03-01T10:25:49Z</time>
      </trkpt>
      <trkpt lat="46.59002" lon="-0.80563">
        <ele>86.18</ele>
        <time>2021-03-01T10:25:57Z</time>
      </trkpt>
      <trkpt lat="46.59" lon="-0.80562">
        <ele>86.18</ele>
        <time>2021-03-01T10:26:12Z</time>
      </trkpt>
      <trkpt lat="46.59003" lon="-0.80563">
        <ele>86.18</ele>
        <time>2021-03-01T10:26:17Z</time>
      </trkpt>
      <trkpt lat="46.59003" lon="-0.80564">
        <ele>86.18</ele>
        <time>2021-03-01T10:26:26Z</time>
      </trkpt>
      <trkpt lat="46.59004" lon="-0.80563">
        <ele>86.18</ele>
        <time>2021-03-01T10:26:32Z</time>
      </trkpt>
      <trkpt lat="46.59004" lon="-0.80563">
        <ele>85.69</ele>
        <time>2021-03-01T10:26:44Z</time>
      </trkpt>
      <trkpt lat="46.59002" lon="-0.80565">
        <ele>85.69</ele>
        <time>2021-03-01T10:26:55Z</time>
      </trkpt>
      <trkpt lat="46.59002" lon="-0.80567">
        <ele>85.69</ele>
        <time>2021-03-01T10:26:56Z</time>
      </trkpt>
      <trkpt lat="46.59" lon="-0.80569">
        <ele>85.69</ele>
        <time>2021-03-01T10:26:59Z</time>
      </trkpt>
      <trkpt lat="46.58995" lon="-0.80575">
        <ele>86.18</ele>
        <time>2021-03-01T10:27:07Z</time>
      </trkpt>
      <trkpt lat="46.58995" lon="-0.80577">
        <ele>86.18</ele>
        <time>2021-03-01T10:27:08Z</time>
      </trkpt>
      <trkpt lat="46.58992" lon="-0.80584">
        <ele>85.21</ele>
        <time>2021-03-01T10:27:14Z</time>
      </trkpt>
      <trkpt lat="46.58991" lon="-0.80586">
        <ele>85.21</ele>
        <time>2021-03-01T10:27:15Z</time>
      </trkpt>
      <trkpt lat="46.5899" lon="-0.80587">
        <ele>85.21</ele>
        <time>2021-03-01T10:27:16Z</time>
      </trkpt>
      <trkpt lat="46.5899" lon="-0.80589">
        <ele>85.21</ele>
        <time>2021-03-01T10:27:17Z</time>
      </trkpt>
      <trkpt lat="46.58987" lon="-0.80595">
        <ele>84.73</ele>
        <time>2021-03-01T10:27:23Z</time>
      </trkpt>
      <trkpt lat="46.58982" lon="-0.80609">
        <ele>84.73</ele>
        <time>2021-03-01T10:27:32Z</time>
      </trkpt>
      <trkpt lat="46.58978" lon="-0.80616">
        <ele>84.73</ele>
        <time>2021-03-01T10:27:36Z</time>
      </trkpt>
      <trkpt lat="46.58977" lon="-0.80618">
        <ele>84.73</ele>
        <time>2021-03-01T10:27:37Z</time>
      </trkpt>
      <trkpt lat="46.58976" lon="-0.8062">
        <ele>84.73</ele>
        <time>2021-03-01T10:27:38Z</time>
      </trkpt>
      <trkpt lat="46.58975" lon="-0.80622">
        <ele>84.73</ele>
        <time>2021-03-01T10:27:39Z</time>
      </trkpt>
      <trkpt lat="46.58975" lon="-0.80624">
        <ele>84.73</ele>
        <time>2021-03-01T10:27:40Z</time>
      </trkpt>
      <trkpt lat="46.58974" lon="-0.80626">
        <ele>84.73</ele>
        <time>2021-03-01T10:27:41Z</time>
      </trkpt>
      <trkpt lat="46.58973" lon="-0.80627">
        <ele>84.73</ele>
        <time>2021-03-01T10:27:42Z</time>
      </trkpt>
      <trkpt lat="46.58973" lon="-0.80629">
        <ele>84.73</ele>
        <time>2021-03-01T10:27:43Z</time>
      </trkpt>
      <trkpt lat="46.5897" lon="-0.80636">
        <ele>84.73</ele>
        <time>2021-03-01T10:27:49Z</time>
      </trkpt>
      <trkpt lat="46.58965" lon="-0.80647">
        <ele>84.73</ele>
        <time>2021-03-01T10:27:56Z</time>
      </trkpt>
      <trkpt lat="46.58962" lon="-0.80657">
        <ele>84.73</ele>
        <time>2021-03-01T10:28:03Z</time>
      </trkpt>
      <trkpt lat="46.58958" lon="-0.80666">
        <ele>84.73</ele>
        <time>2021-03-01T10:28:10Z</time>
      </trkpt>
      <trkpt lat="46.58958" lon="-0.80669">
        <ele>84.73</ele>
        <time>2021-03-01T10:28:13Z</time>
      </trkpt>
      <trkpt lat="46.58957" lon="-0.80671">
        <ele>84.73</ele>
        <time>2021-03-01T10:28:14Z</time>
      </trkpt>
      <trkpt lat="46.58954" lon="-0.80682">
        <ele>84.73</ele>
        <time>2021-03-01T10:28:22Z</time>
      </trkpt>
      <trkpt lat="46.58949" lon="-0.80697">
        <ele>84.73</ele>
        <time>2021-03-01T10:28:30Z</time>
      </trkpt>
      <trkpt lat="46.58944" lon="-0.8071">
        <ele>84.73</ele>
        <time>2021-03-01T10:28:39Z</time>
      </trkpt>
      <trkpt lat="46.5894" lon="-0.80721">
        <ele>84.73</ele>
        <time>2021-03-01T10:28:47Z</time>
      </trkpt>
      <trkpt lat="46.58939" lon="-0.80723">
        <ele>84.73</ele>
        <time>2021-03-01T10:28:48Z</time>
      </trkpt>
      <trkpt lat="46.58933" lon="-0.80738">
        <ele>84.73</ele>
        <time>2021-03-01T10:28:57Z</time>
      </trkpt>
      <trkpt lat="46.58928" lon="-0.80749">
        <ele>84.73</ele>
        <time>2021-03-01T10:29:04Z</time>
      </trkpt>
      <trkpt lat="46.58924" lon="-0.80758">
        <ele>85.69</ele>
        <time>2021-03-01T10:29:11Z</time>
      </trkpt>
      <trkpt lat="46.58918" lon="-0.8077">
        <ele>85.69</ele>
        <time>2021-03-01T10:29:18Z</time>
      </trkpt>
      <trkpt lat="46.58914" lon="-0.80775">
        <ele>85.69</ele>
        <time>2021-03-01T10:29:24Z</time>
      </trkpt>
      <trkpt lat="46.58913" lon="-0.80776">
        <ele>86.18</ele>
        <time>2021-03-01T10:29:25Z</time>
      </trkpt>
      <trkpt lat="46.58908" lon="-0.80786">
        <ele>86.18</ele>
        <time>2021-03-01T10:29:31Z</time>
      </trkpt>
      <trkpt lat="46.58903" lon="-0.80793">
        <ele>86.18</ele>
        <time>2021-03-01T10:29:39Z</time>
      </trkpt>
      <trkpt lat="46.58899" lon="-0.80799">
        <ele>86.18</ele>
        <time>2021-03-01T10:29:45Z</time>
      </trkpt>
      <trkpt lat="46.58898" lon="-0.808">
        <ele>86.18</ele>
        <time>2021-03-01T10:29:46Z</time>
      </trkpt>
      <trkpt lat="46.58896" lon="-0.80806">
        <ele>86.18</ele>
        <time>2021-03-01T10:29:53Z</time>
      </trkpt>
      <trkpt lat="46.58895" lon="-0.80808">
        <ele>86.18</ele>
        <time>2021-03-01T10:29:59Z</time>
      </trkpt>
      <trkpt lat="46.58895" lon="-0.80809">
        <ele>86.18</ele>
        <time>2021-03-01T10:30:00Z</time>
      </trkpt>
      <trkpt lat="46.58894" lon="-0.8081">
        <ele>86.18</ele>
        <time>2021-03-01T10:30:01Z</time>
      </trkpt>
      <trkpt lat="46.58888" lon="-0.80816">
        <ele>86.18</ele>
        <time>2021-03-01T10:30:08Z</time>
      </trkpt>
      <trkpt lat="46.58881" lon="-0.80826">
        <ele>86.18</ele>
        <time>2021-03-01T10:30:15Z</time>
      </trkpt>
      <trkpt lat="46.58876" lon="-0.80835">
        <ele>85.21</ele>
        <time>2021-03-01T10:30:23Z</time>
      </trkpt>
      <trkpt lat="46.58872" lon="-0.8084">
        <ele>84.73</ele>
        <time>2021-03-01T10:30:28Z</time>
      </trkpt>
      <trkpt lat="46.58871" lon="-0.80842">
        <ele>84.73</ele>
        <time>2021-03-01T10:30:31Z</time>
      </trkpt>
      <trkpt lat="46.58869" lon="-0.80842">
        <ele>84.73</ele>
        <time>2021-03-01T10:30:34Z</time>
      </trkpt>
      <trkpt lat="46.58868" lon="-0.80841">
        <ele>84.73</ele>
        <time>2021-03-01T10:30:41Z</time>
      </trkpt>
      <trkpt lat="46.58868" lon="-0.80844">
        <ele>84.73</ele>
        <time>2021-03-01T10:30:53Z</time>
      </trkpt>
      <trkpt lat="46.58868" lon="-0.80842">
        <ele>84.73</ele>
        <time>2021-03-01T10:31:00Z</time>
      </trkpt>
      <trkpt lat="46.58868" lon="-0.80842">
        <ele>84.73</ele>
        <time>2021-03-01T10:31:10Z</time>
      </trkpt>
      <trkpt lat="46.58868" lon="-0.80841">
        <ele>84.73</ele>
        <time>2021-03-01T10:31:17Z</time>
      </trkpt>
      <trkpt lat="46.58867" lon="-0.8084">
        <ele>84.73</ele>
        <time>2021-03-01T10:31:27Z</time>
      </trkpt>
      <trkpt lat="46.58867" lon="-0.80843">
        <ele>84.73</ele>
        <time>2021-03-01T10:31:34Z</time>
      </trkpt>
      <trkpt lat="46.58868" lon="-0.80843">
        <ele>84.73</ele>
        <time>2021-03-01T10:31:49Z</time>
      </trkpt>
      <trkpt lat="46.58869" lon="-0.80848">
        <ele>84.73</ele>
        <time>2021-03-01T10:31:53Z</time>
      </trkpt>
      <trkpt lat="46.58869" lon="-0.8085">
        <ele>84.73</ele>
        <time>2021-03-01T10:31:54Z</time>
      </trkpt>
      <trkpt lat="46.5887" lon="-0.80852">
        <ele>84.73</ele>
        <time>2021-03-01T10:31:55Z</time>
      </trkpt>
      <trkpt lat="46.58871" lon="-0.80861">
        <ele>84.25</ele>
        <time>2021-03-01T10:32:02Z</time>
      </trkpt>
      <trkpt lat="46.58874" lon="-0.80872">
        <ele>84.25</ele>
        <time>2021-03-01T10:32:10Z</time>
      </trkpt>
      <trkpt lat="46.5888" lon="-0.80886">
        <ele>83.77</ele>
        <time>2021-03-01T10:32:18Z</time>
      </trkpt>
      <trkpt lat="46.58883" lon="-0.80895">
        <ele>83.77</ele>
        <time>2021-03-01T10:32:24Z</time>
      </trkpt>
      <trkpt lat="46.58888" lon="-0.80908">
        <ele>83.29</ele>
        <time>2021-03-01T10:32:31Z</time>
      </trkpt>
      <trkpt lat="46.58892" lon="-0.8092">
        <ele>83.29</ele>
        <time>2021-03-01T10:32:39Z</time>
      </trkpt>
      <trkpt lat="46.58895" lon="-0.8093">
        <ele>82.81</ele>
        <time>2021-03-01T10:32:47Z</time>
      </trkpt>
      <trkpt lat="46.58899" lon="-0.80941">
        <ele>82.81</ele>
        <time>2021-03-01T10:32:53Z</time>
      </trkpt>
      <trkpt lat="46.58899" lon="-0.80943">
        <ele>82.81</ele>
        <time>2021-03-01T10:32:56Z</time>
      </trkpt>
      <trkpt lat="46.589" lon="-0.80948">
        <ele>82.81</ele>
        <time>2021-03-01T10:33:01Z</time>
      </trkpt>
      <trkpt lat="46.589" lon="-0.8095">
        <ele>82.81</ele>
        <time>2021-03-01T10:33:02Z</time>
      </trkpt>
      <trkpt lat="46.58903" lon="-0.80959">
        <ele>82.81</ele>
        <time>2021-03-01T10:33:09Z</time>
      </trkpt>
      <trkpt lat="46.58905" lon="-0.80969">
        <ele>82.33</ele>
        <time>2021-03-01T10:33:16Z</time>
      </trkpt>
      <trkpt lat="46.58908" lon="-0.8098">
        <ele>82.33</ele>
        <time>2021-03-01T10:33:24Z</time>
      </trkpt>
      <trkpt lat="46.58909" lon="-0.80982">
        <ele>82.33</ele>
        <time>2021-03-01T10:33:25Z</time>
      </trkpt>
      <trkpt lat="46.58911" lon="-0.80991">
        <ele>82.33</ele>
        <time>2021-03-01T10:33:32Z</time>
      </trkpt>
      <trkpt lat="46.58915" lon="-0.81003">
        <ele>81.85</ele>
        <time>2021-03-01T10:33:39Z</time>
      </trkpt>
      <trkpt lat="46.58919" lon="-0.81016">
        <ele>81.85</ele>
        <time>2021-03-01T10:33:47Z</time>
      </trkpt>
      <trkpt lat="46.58921" lon="-0.81021">
        <ele>81.37</ele>
        <time>2021-03-01T10:33:52Z</time>
      </trkpt>
      <trkpt lat="46.58921" lon="-0.81023">
        <ele>81.37</ele>
        <time>2021-03-01T10:33:53Z</time>
      </trkpt>
      <trkpt lat="46.58925" lon="-0.81034">
        <ele>80.89</ele>
        <time>2021-03-01T10:34:01Z</time>
      </trkpt>
      <trkpt lat="46.58928" lon="-0.81045">
        <ele>80.89</ele>
        <time>2021-03-01T10:34:07Z</time>
      </trkpt>
      <trkpt lat="46.58931" lon="-0.81054">
        <ele>80.41</ele>
        <time>2021-03-01T10:34:14Z</time>
      </trkpt>
      <trkpt lat="46.58932" lon="-0.81059">
        <ele>80.41</ele>
        <time>2021-03-01T10:34:18Z</time>
      </trkpt>
      <trkpt lat="46.58932" lon="-0.81061">
        <ele>80.41</ele>
        <time>2021-03-01T10:34:19Z</time>
      </trkpt>
      <trkpt lat="46.58933" lon="-0.81063">
        <ele>80.41</ele>
        <time>2021-03-01T10:34:20Z</time>
      </trkpt>
      <trkpt lat="46.58934" lon="-0.81065">
        <ele>80.41</ele>
        <time>2021-03-01T10:34:21Z</time>
      </trkpt>
      <trkpt lat="46.58934" lon="-0.81067">
        <ele>80.41</ele>
        <time>2021-03-01T10:34:22Z</time>
      </trkpt>
      <trkpt lat="46.58935" lon="-0.81069">
        <ele>80.41</ele>
        <time>2021-03-01T10:34:23Z</time>
      </trkpt>
      <trkpt lat="46.5894" lon="-0.81078">
        <ele>79.93</ele>
        <time>2021-03-01T10:34:30Z</time>
      </trkpt>
      <trkpt lat="46.58946" lon="-0.8109">
        <ele>79.93</ele>
        <time>2021-03-01T10:34:37Z</time>
      </trkpt>
      <trkpt lat="46.58947" lon="-0.81097">
        <ele>79.45</ele>
        <time>2021-03-01T10:34:43Z</time>
      </trkpt>
      <trkpt lat="46.58947" lon="-0.81099">
        <ele>79.45</ele>
        <time>2021-03-01T10:34:44Z</time>
      </trkpt>
      <trkpt lat="46.58948" lon="-0.81104">
        <ele>79.45</ele>
        <time>2021-03-01T10:34:50Z</time>
      </trkpt>
      <trkpt lat="46.58949" lon="-0.81108">
        <ele>79.45</ele>
        <time>2021-03-01T10:35:04Z</time>
      </trkpt>
      <trkpt lat="46.58954" lon="-0.8112">
        <ele>79.45</ele>
        <time>2021-03-01T10:35:11Z</time>
      </trkpt>
      <trkpt lat="46.58955" lon="-0.8112">
        <ele>79.45</ele>
        <time>2021-03-01T10:35:17Z</time>
      </trkpt>
      <trkpt lat="46.58955" lon="-0.81122">
        <ele>79.45</ele>
        <time>2021-03-01T10:35:26Z</time>
      </trkpt>
      <trkpt lat="46.58955" lon="-0.81123">
        <ele>79.45</ele>
        <time>2021-03-01T10:35:35Z</time>
      </trkpt>
      <trkpt lat="46.58957" lon="-0.81131">
        <ele>79.45</ele>
        <time>2021-03-01T10:35:47Z</time>
      </trkpt>
      <trkpt lat="46.58962" lon="-0.81142">
        <ele>78.97</ele>
        <time>2021-03-01T10:35:55Z</time>
      </trkpt>
      <trkpt lat="46.58967" lon="-0.8115">
        <ele>78.48</ele>
        <time>2021-03-01T10:36:03Z</time>
      </trkpt>
      <trkpt lat="46.58974" lon="-0.81164">
        <ele>78.48</ele>
        <time>2021-03-01T10:36:13Z</time>
      </trkpt>
      <trkpt lat="46.58974" lon="-0.81169">
        <ele>78.48</ele>
        <time>2021-03-01T10:36:16Z</time>
      </trkpt>
      <trkpt lat="46.58974" lon="-0.81171">
        <ele>78.48</ele>
        <time>2021-03-01T10:36:17Z</time>
      </trkpt>
      <trkpt lat="46.58975" lon="-0.81173">
        <ele>78.48</ele>
        <time>2021-03-01T10:36:18Z</time>
      </trkpt>
      <trkpt lat="46.58977" lon="-0.81186">
        <ele>78</ele>
        <time>2021-03-01T10:36:27Z</time>
      </trkpt>
      <trkpt lat="46.58977" lon="-0.81188">
        <ele>78</ele>
        <time>2021-03-01T10:36:42Z</time>
      </trkpt>
      <trkpt lat="46.58982" lon="-0.81195">
        <ele>78</ele>
        <time>2021-03-01T10:36:50Z</time>
      </trkpt>
      <trkpt lat="46.58988" lon="-0.81208">
        <ele>78</ele>
        <time>2021-03-01T10:37:00Z</time>
      </trkpt>
      <trkpt lat="46.58993" lon="-0.81221">
        <ele>79.45</ele>
        <time>2021-03-01T10:37:09Z</time>
      </trkpt>
      <trkpt lat="46.58996" lon="-0.8123">
        <ele>79.45</ele>
        <time>2021-03-01T10:37:18Z</time>
      </trkpt>
      <trkpt lat="46.58998" lon="-0.81239">
        <ele>79.93</ele>
        <time>2021-03-01T10:37:24Z</time>
      </trkpt>
      <trkpt lat="46.58998" lon="-0.8124">
        <ele>79.93</ele>
        <time>2021-03-01T10:37:25Z</time>
      </trkpt>
      <trkpt lat="46.58999" lon="-0.81252">
        <ele>79.93</ele>
        <time>2021-03-01T10:37:33Z</time>
      </trkpt>
      <trkpt lat="46.59002" lon="-0.81264">
        <ele>79.93</ele>
        <time>2021-03-01T10:37:40Z</time>
      </trkpt>
      <trkpt lat="46.59005" lon="-0.81273">
        <ele>80.41</ele>
        <time>2021-03-01T10:37:47Z</time>
      </trkpt>
      <trkpt lat="46.59008" lon="-0.81282">
        <ele>80.41</ele>
        <time>2021-03-01T10:37:53Z</time>
      </trkpt>
      <trkpt lat="46.59009" lon="-0.81283">
        <ele>80.41</ele>
        <time>2021-03-01T10:37:55Z</time>
      </trkpt>
      <trkpt lat="46.59012" lon="-0.81295">
        <ele>80.41</ele>
        <time>2021-03-01T10:38:03Z</time>
      </trkpt>
      <trkpt lat="46.59016" lon="-0.81306">
        <ele>80.89</ele>
        <time>2021-03-01T10:38:11Z</time>
      </trkpt>
      <trkpt lat="46.59019" lon="-0.81323">
        <ele>82.33</ele>
        <time>2021-03-01T10:38:21Z</time>
      </trkpt>
      <trkpt lat="46.59022" lon="-0.81333">
        <ele>82.33</ele>
        <time>2021-03-01T10:38:28Z</time>
      </trkpt>
      <trkpt lat="46.59025" lon="-0.81347">
        <ele>82.81</ele>
        <time>2021-03-01T10:38:38Z</time>
      </trkpt>
      <trkpt lat="46.59026" lon="-0.81349">
        <ele>82.81</ele>
        <time>2021-03-01T10:38:40Z</time>
      </trkpt>
      <trkpt lat="46.59028" lon="-0.81357">
        <ele>82.81</ele>
        <time>2021-03-01T10:38:46Z</time>
      </trkpt>
      <trkpt lat="46.59029" lon="-0.81369">
        <ele>83.29</ele>
        <time>2021-03-01T10:38:54Z</time>
      </trkpt>
      <trkpt lat="46.59033" lon="-0.81378">
        <ele>83.77</ele>
        <time>2021-03-01T10:39:01Z</time>
      </trkpt>
      <trkpt lat="46.59036" lon="-0.8139">
        <ele>84.25</ele>
        <time>2021-03-01T10:39:08Z</time>
      </trkpt>
      <trkpt lat="46.59039" lon="-0.814">
        <ele>84.25</ele>
        <time>2021-03-01T10:39:15Z</time>
      </trkpt>
      <trkpt lat="46.59039" lon="-0.81402">
        <ele>84.25</ele>
        <time>2021-03-01T10:39:16Z</time>
      </trkpt>
      <trkpt lat="46.59044" lon="-0.81415">
        <ele>84.25</ele>
        <time>2021-03-01T10:39:24Z</time>
      </trkpt>
      <trkpt lat="46.59044" lon="-0.81416">
        <ele>84.25</ele>
        <time>2021-03-01T10:39:25Z</time>
      </trkpt>
      <trkpt lat="46.59047" lon="-0.81427">
        <ele>84.25</ele>
        <time>2021-03-01T10:39:32Z</time>
      </trkpt>
      <trkpt lat="46.59051" lon="-0.81438">
        <ele>84.25</ele>
        <time>2021-03-01T10:39:39Z</time>
      </trkpt>
      <trkpt lat="46.59055" lon="-0.8145">
        <ele>82.81</ele>
        <time>2021-03-01T10:39:47Z</time>
      </trkpt>
      <trkpt lat="46.59058" lon="-0.81465">
        <ele>82.33</ele>
        <time>2021-03-01T10:39:56Z</time>
      </trkpt>
      <trkpt lat="46.59061" lon="-0.81473">
        <ele>82.33</ele>
        <time>2021-03-01T10:40:02Z</time>
      </trkpt>
      <trkpt lat="46.59064" lon="-0.81484">
        <ele>81.85</ele>
        <time>2021-03-01T10:40:10Z</time>
      </trkpt>
      <trkpt lat="46.59068" lon="-0.81499">
        <ele>80.89</ele>
        <time>2021-03-01T10:40:18Z</time>
      </trkpt>
      <trkpt lat="46.5907" lon="-0.81505">
        <ele>80.89</ele>
        <time>2021-03-01T10:40:22Z</time>
      </trkpt>
      <trkpt lat="46.59072" lon="-0.81516">
        <ele>80.41</ele>
        <time>2021-03-01T10:40:29Z</time>
      </trkpt>
      <trkpt lat="46.59075" lon="-0.81529">
        <ele>79.45</ele>
        <time>2021-03-01T10:40:37Z</time>
      </trkpt>
      <trkpt lat="46.59076" lon="-0.8154">
        <ele>78.97</ele>
        <time>2021-03-01T10:40:44Z</time>
      </trkpt>
      <trkpt lat="46.59078" lon="-0.81553">
        <ele>78.48</ele>
        <time>2021-03-01T10:40:52Z</time>
      </trkpt>
      <trkpt lat="46.59081" lon="-0.81565">
        <ele>78</ele>
        <time>2021-03-01T10:41:00Z</time>
      </trkpt>
      <trkpt lat="46.59084" lon="-0.81576">
        <ele>77.04</ele>
        <time>2021-03-01T10:41:06Z</time>
      </trkpt>
      <trkpt lat="46.59087" lon="-0.8159">
        <ele>77.04</ele>
        <time>2021-03-01T10:41:13Z</time>
      </trkpt>
      <trkpt lat="46.59086" lon="-0.81594">
        <ele>76.56</ele>
        <time>2021-03-01T10:41:20Z</time>
      </trkpt>
      <trkpt lat="46.59087" lon="-0.81595">
        <ele>76.56</ele>
        <time>2021-03-01T10:41:27Z</time>
      </trkpt>
      <trkpt lat="46.59085" lon="-0.81596">
        <ele>76.56</ele>
        <time>2021-03-01T10:41:38Z</time>
      </trkpt>
      <trkpt lat="46.59084" lon="-0.81596">
        <ele>76.56</ele>
        <time>2021-03-01T10:41:51Z</time>
      </trkpt>
      <trkpt lat="46.59085" lon="-0.81596">
        <ele>76.56</ele>
        <time>2021-03-01T10:42:06Z</time>
      </trkpt>
      <trkpt lat="46.59085" lon="-0.81597">
        <ele>76.56</ele>
        <time>2021-03-01T10:42:16Z</time>
      </trkpt>
      <trkpt lat="46.59085" lon="-0.81596">
        <ele>76.56</ele>
        <time>2021-03-01T10:42:38Z</time>
      </trkpt>
      <trkpt lat="46.59087" lon="-0.81601">
        <ele>76.08</ele>
        <time>2021-03-01T10:42:46Z</time>
      </trkpt>
      <trkpt lat="46.59093" lon="-0.81612">
        <ele>76.08</ele>
        <time>2021-03-01T10:42:54Z</time>
      </trkpt>
      <trkpt lat="46.59098" lon="-0.81621">
        <ele>75.12</ele>
        <time>2021-03-01T10:43:02Z</time>
      </trkpt>
      <trkpt lat="46.59098" lon="-0.81623">
        <ele>75.12</ele>
        <time>2021-03-01T10:43:04Z</time>
      </trkpt>
      <trkpt lat="46.59103" lon="-0.81636">
        <ele>74.64</ele>
        <time>2021-03-01T10:43:13Z</time>
      </trkpt>
      <trkpt lat="46.59105" lon="-0.81645">
        <ele>74.16</ele>
        <time>2021-03-01T10:43:20Z</time>
      </trkpt>
      <trkpt lat="46.59105" lon="-0.81646">
        <ele>74.16</ele>
        <time>2021-03-01T10:43:27Z</time>
      </trkpt>
      <trkpt lat="46.59106" lon="-0.81648">
        <ele>74.16</ele>
        <time>2021-03-01T10:43:39Z</time>
      </trkpt>
      <trkpt lat="46.59106" lon="-0.81648">
        <ele>74.16</ele>
        <time>2021-03-01T10:43:41Z</time>
      </trkpt>
      <trkpt lat="46.59107" lon="-0.8165">
        <ele>74.16</ele>
        <time>2021-03-01T10:43:43Z</time>
      </trkpt>
      <trkpt lat="46.59108" lon="-0.81657">
        <ele>73.68</ele>
        <time>2021-03-01T10:43:49Z</time>
      </trkpt>
      <trkpt lat="46.59112" lon="-0.81662">
        <ele>73.68</ele>
        <time>2021-03-01T10:43:54Z</time>
      </trkpt>
      <trkpt lat="46.59115" lon="-0.81671">
        <ele>73.2</ele>
        <time>2021-03-01T10:44:02Z</time>
      </trkpt>
      <trkpt lat="46.59115" lon="-0.81672">
        <ele>73.2</ele>
        <time>2021-03-01T10:44:07Z</time>
      </trkpt>
      <trkpt lat="46.59117" lon="-0.81677">
        <ele>73.2</ele>
        <time>2021-03-01T10:44:12Z</time>
      </trkpt>
      <trkpt lat="46.59117" lon="-0.8168">
        <ele>73.2</ele>
        <time>2021-03-01T10:44:18Z</time>
      </trkpt>
      <trkpt lat="46.59116" lon="-0.8168">
        <ele>73.2</ele>
        <time>2021-03-01T10:44:25Z</time>
      </trkpt>
      <trkpt lat="46.59116" lon="-0.8168">
        <ele>72.72</ele>
        <time>2021-03-01T10:44:34Z</time>
      </trkpt>
      <trkpt lat="46.59117" lon="-0.81686">
        <ele>72.72</ele>
        <time>2021-03-01T10:44:41Z</time>
      </trkpt>
      <trkpt lat="46.59116" lon="-0.81687">
        <ele>72.72</ele>
        <time>2021-03-01T10:44:48Z</time>
      </trkpt>
      <trkpt lat="46.59117" lon="-0.81688">
        <ele>72.72</ele>
        <time>2021-03-01T10:44:57Z</time>
      </trkpt>
      <trkpt lat="46.59118" lon="-0.81692">
        <ele>72.72</ele>
        <time>2021-03-01T10:45:05Z</time>
      </trkpt>
      <trkpt lat="46.59119" lon="-0.81692">
        <ele>72.72</ele>
        <time>2021-03-01T10:45:08Z</time>
      </trkpt>
      <trkpt lat="46.59121" lon="-0.81694">
        <ele>72.72</ele>
        <time>2021-03-01T10:45:16Z</time>
      </trkpt>
      <trkpt lat="46.59123" lon="-0.81693">
        <ele>72.72</ele>
        <time>2021-03-01T10:45:19Z</time>
      </trkpt>
      <trkpt lat="46.59127" lon="-0.81692">
        <ele>72.72</ele>
        <time>2021-03-01T10:45:25Z</time>
      </trkpt>
      <trkpt lat="46.5913" lon="-0.8169">
        <ele>72.72</ele>
        <time>2021-03-01T10:45:31Z</time>
      </trkpt>
      <trkpt lat="46.5913" lon="-0.8169">
        <ele>72.72</ele>
        <time>2021-03-01T10:45:36Z</time>
      </trkpt>
      <trkpt lat="46.59133" lon="-0.81688">
        <ele>72.72</ele>
        <time>2021-03-01T10:45:40Z</time>
      </trkpt>
      <trkpt lat="46.59135" lon="-0.81684">
        <ele>72.72</ele>
        <time>2021-03-01T10:45:48Z</time>
      </trkpt>
      <trkpt lat="46.59134" lon="-0.81683">
        <ele>72.72</ele>
        <time>2021-03-01T10:45:55Z</time>
      </trkpt>
      <trkpt lat="46.59135" lon="-0.81684">
        <ele>72.72</ele>
        <time>2021-03-01T10:46:01Z</time>
      </trkpt>
      <trkpt lat="46.59135" lon="-0.81683">
        <ele>72.72</ele>
        <time>2021-03-01T10:46:10Z</time>
      </trkpt>
      <trkpt lat="46.59137" lon="-0.81681">
        <ele>72.72</ele>
        <time>2021-03-01T10:46:18Z</time>
      </trkpt>
      <trkpt lat="46.59138" lon="-0.8168">
        <ele>72.72</ele>
        <time>2021-03-01T10:46:21Z</time>
      </trkpt>
      <trkpt lat="46.59147" lon="-0.81676">
        <ele>72.24</ele>
        <time>2021-03-01T10:46:29Z</time>
      </trkpt>
      <trkpt lat="46.59154" lon="-0.81671">
        <ele>72.24</ele>
        <time>2021-03-01T10:46:36Z</time>
      </trkpt>
      <trkpt lat="46.59156" lon="-0.81669">
        <ele>72.24</ele>
        <time>2021-03-01T10:46:39Z</time>
      </trkpt>
      <trkpt lat="46.5916" lon="-0.81662">
        <ele>72.24</ele>
        <time>2021-03-01T10:46:48Z</time>
      </trkpt>
      <trkpt lat="46.59159" lon="-0.81664">
        <ele>72.24</ele>
        <time>2021-03-01T10:46:55Z</time>
      </trkpt>
      <trkpt lat="46.59159" lon="-0.81664">
        <ele>72.24</ele>
        <time>2021-03-01T10:46:57Z</time>
      </trkpt>
      <trkpt lat="46.59161" lon="-0.81662">
        <ele>72.24</ele>
        <time>2021-03-01T10:47:04Z</time>
      </trkpt>
      <trkpt lat="46.59162" lon="-0.81662">
        <ele>72.24</ele>
        <time>2021-03-01T10:47:17Z</time>
      </trkpt>
      <trkpt lat="46.59161" lon="-0.81662">
        <ele>72.24</ele>
        <time>2021-03-01T10:47:26Z</time>
      </trkpt>
      <trkpt lat="46.59161" lon="-0.8166">
        <ele>72.24</ele>
        <time>2021-03-01T10:47:35Z</time>
      </trkpt>
      <trkpt lat="46.59162" lon="-0.81659">
        <ele>72.24</ele>
        <time>2021-03-01T10:47:36Z</time>
      </trkpt>
      <trkpt lat="46.59167" lon="-0.81647">
        <ele>72.24</ele>
        <time>2021-03-01T10:47:45Z</time>
      </trkpt>
      <trkpt lat="46.59173" lon="-0.81636">
        <ele>72.24</ele>
        <time>2021-03-01T10:47:53Z</time>
      </trkpt>
      <trkpt lat="46.59178" lon="-0.81623">
        <ele>72.24</ele>
        <time>2021-03-01T10:48:02Z</time>
      </trkpt>
      <trkpt lat="46.59181" lon="-0.81615">
        <ele>72.24</ele>
        <time>2021-03-01T10:48:08Z</time>
      </trkpt>
      <trkpt lat="46.59187" lon="-0.81601">
        <ele>72.24</ele>
        <time>2021-03-01T10:48:17Z</time>
      </trkpt>
      <trkpt lat="46.59192" lon="-0.81591">
        <ele>72.24</ele>
        <time>2021-03-01T10:48:24Z</time>
      </trkpt>
      <trkpt lat="46.59198" lon="-0.8158">
        <ele>72.24</ele>
        <time>2021-03-01T10:48:32Z</time>
      </trkpt>
      <trkpt lat="46.59203" lon="-0.81572">
        <ele>73.68</ele>
        <time>2021-03-01T10:48:39Z</time>
      </trkpt>
      <trkpt lat="46.59205" lon="-0.81569">
        <ele>73.68</ele>
        <time>2021-03-01T10:48:42Z</time>
      </trkpt>
      <trkpt lat="46.59209" lon="-0.81567">
        <ele>74.16</ele>
        <time>2021-03-01T10:48:48Z</time>
      </trkpt>
      <trkpt lat="46.59211" lon="-0.81566">
        <ele>74.64</ele>
        <time>2021-03-01T10:48:51Z</time>
      </trkpt>
      <trkpt lat="46.59218" lon="-0.81559">
        <ele>76.08</ele>
        <time>2021-03-01T10:49:00Z</time>
      </trkpt>
      <trkpt lat="46.5922" lon="-0.81558">
        <ele>76.08</ele>
        <time>2021-03-01T10:49:03Z</time>
      </trkpt>
      <trkpt lat="46.59223" lon="-0.81555">
        <ele>77.52</ele>
        <time>2021-03-01T10:49:07Z</time>
      </trkpt>
      <trkpt lat="46.59228" lon="-0.81551">
        <ele>77.52</ele>
        <time>2021-03-01T10:49:14Z</time>
      </trkpt>
      <trkpt lat="46.59228" lon="-0.8155">
        <ele>77.52</ele>
        <time>2021-03-01T10:49:15Z</time>
      </trkpt>
      <trkpt lat="46.59232" lon="-0.81542">
        <ele>77.52</ele>
        <time>2021-03-01T10:49:21Z</time>
      </trkpt>
      <trkpt lat="46.59234" lon="-0.81539">
        <ele>77.52</ele>
        <time>2021-03-01T10:49:24Z</time>
      </trkpt>
      <trkpt lat="46.5924" lon="-0.81529">
        <ele>77.52</ele>
        <time>2021-03-01T10:49:32Z</time>
      </trkpt>
      <trkpt lat="46.59242" lon="-0.81526">
        <ele>77.52</ele>
        <time>2021-03-01T10:49:35Z</time>
      </trkpt>
      <trkpt lat="46.59248" lon="-0.81516">
        <ele>77.52</ele>
        <time>2021-03-01T10:49:44Z</time>
      </trkpt>
      <trkpt lat="46.59251" lon="-0.8151">
        <ele>77.52</ele>
        <time>2021-03-01T10:49:47Z</time>
      </trkpt>
      <trkpt lat="46.59253" lon="-0.81506">
        <ele>77.52</ele>
        <time>2021-03-01T10:49:53Z</time>
      </trkpt>
      <trkpt lat="46.59257" lon="-0.81499">
        <ele>77.52</ele>
        <time>2021-03-01T10:50:00Z</time>
      </trkpt>
      <trkpt lat="46.59262" lon="-0.81489">
        <ele>77.52</ele>
        <time>2021-03-01T10:50:07Z</time>
      </trkpt>
      <trkpt lat="46.59266" lon="-0.81482">
        <ele>77.52</ele>
        <time>2021-03-01T10:50:14Z</time>
      </trkpt>
      <trkpt lat="46.5927" lon="-0.81477">
        <ele>77.52</ele>
        <time>2021-03-01T10:50:19Z</time>
      </trkpt>
      <trkpt lat="46.59271" lon="-0.81475">
        <ele>77.52</ele>
        <time>2021-03-01T10:50:20Z</time>
      </trkpt>
      <trkpt lat="46.59276" lon="-0.8147">
        <ele>77.52</ele>
        <time>2021-03-01T10:50:26Z</time>
      </trkpt>
      <trkpt lat="46.59281" lon="-0.81466">
        <ele>77.52</ele>
        <time>2021-03-01T10:50:33Z</time>
      </trkpt>
      <trkpt lat="46.59284" lon="-0.81462">
        <ele>77.52</ele>
        <time>2021-03-01T10:50:37Z</time>
      </trkpt>
      <trkpt lat="46.59285" lon="-0.81461">
        <ele>77.52</ele>
        <time>2021-03-01T10:50:38Z</time>
      </trkpt>
      <trkpt lat="46.59291" lon="-0.81454">
        <ele>77.52</ele>
        <time>2021-03-01T10:50:45Z</time>
      </trkpt>
      <trkpt lat="46.59299" lon="-0.81443">
        <ele>77.52</ele>
        <time>2021-03-01T10:50:53Z</time>
      </trkpt>
      <trkpt lat="46.59306" lon="-0.81434">
        <ele>77.52</ele>
        <time>2021-03-01T10:51:01Z</time>
      </trkpt>
      <trkpt lat="46.59313" lon="-0.81424">
        <ele>77.52</ele>
        <time>2021-03-01T10:51:10Z</time>
      </trkpt>
      <trkpt lat="46.59319" lon="-0.81416">
        <ele>77.52</ele>
        <time>2021-03-01T10:51:17Z</time>
      </trkpt>
      <trkpt lat="46.59325" lon="-0.81405">
        <ele>77.52</ele>
        <time>2021-03-01T10:51:25Z</time>
      </trkpt>
      <trkpt lat="46.59331" lon="-0.81396">
        <ele>77.52</ele>
        <time>2021-03-01T10:51:33Z</time>
      </trkpt>
      <trkpt lat="46.59335" lon="-0.8139">
        <ele>77.52</ele>
        <time>2021-03-01T10:51:40Z</time>
      </trkpt>
      <trkpt lat="46.59335" lon="-0.81389">
        <ele>77.52</ele>
        <time>2021-03-01T10:51:46Z</time>
      </trkpt>
      <trkpt lat="46.59337" lon="-0.81388">
        <ele>77.52</ele>
        <time>2021-03-01T10:51:54Z</time>
      </trkpt>
      <trkpt lat="46.59335" lon="-0.81385">
        <ele>77.52</ele>
        <time>2021-03-01T10:52:13Z</time>
      </trkpt>
      <trkpt lat="46.59335" lon="-0.81386">
        <ele>77.52</ele>
        <time>2021-03-01T10:52:24Z</time>
      </trkpt>
      <trkpt lat="46.59342" lon="-0.81388">
        <ele>77.52</ele>
        <time>2021-03-01T10:52:48Z</time>
      </trkpt>
      <trkpt lat="46.5934" lon="-0.81386">
        <ele>77.52</ele>
        <time>2021-03-01T10:53:03Z</time>
      </trkpt>
      <trkpt lat="46.59337" lon="-0.81386">
        <ele>77.52</ele>
        <time>2021-03-01T10:53:11Z</time>
      </trkpt>
      <trkpt lat="46.59336" lon="-0.81386">
        <ele>77.52</ele>
        <time>2021-03-01T10:53:16Z</time>
      </trkpt>
      <trkpt lat="46.59335" lon="-0.81385">
        <ele>77.52</ele>
        <time>2021-03-01T10:53:22Z</time>
      </trkpt>
      <trkpt lat="46.59338" lon="-0.81383">
        <ele>78</ele>
        <time>2021-03-01T10:53:29Z</time>
      </trkpt>
      <trkpt lat="46.59339" lon="-0.81382">
        <ele>78</ele>
        <time>2021-03-01T10:53:30Z</time>
      </trkpt>
      <trkpt lat="46.5934" lon="-0.81381">
        <ele>78</ele>
        <time>2021-03-01T10:53:31Z</time>
      </trkpt>
      <trkpt lat="46.59345" lon="-0.81375">
        <ele>78</ele>
        <time>2021-03-01T10:53:38Z</time>
      </trkpt>
      <trkpt lat="46.59349" lon="-0.8137">
        <ele>78</ele>
        <time>2021-03-01T10:53:44Z</time>
      </trkpt>
      <trkpt lat="46.59353" lon="-0.81362">
        <ele>78.48</ele>
        <time>2021-03-01T10:53:51Z</time>
      </trkpt>
      <trkpt lat="46.5936" lon="-0.81352">
        <ele>78.48</ele>
        <time>2021-03-01T10:54:01Z</time>
      </trkpt>
      <trkpt lat="46.59363" lon="-0.81345">
        <ele>78.48</ele>
        <time>2021-03-01T10:54:08Z</time>
      </trkpt>
      <trkpt lat="46.59366" lon="-0.81338">
        <ele>78.48</ele>
        <time>2021-03-01T10:54:14Z</time>
      </trkpt>
      <trkpt lat="46.59368" lon="-0.81336">
        <ele>78.97</ele>
        <time>2021-03-01T10:54:22Z</time>
      </trkpt>
      <trkpt lat="46.59368" lon="-0.81336">
        <ele>78.97</ele>
        <time>2021-03-01T10:54:30Z</time>
      </trkpt>
      <trkpt lat="46.59368" lon="-0.81334">
        <ele>78.97</ele>
        <time>2021-03-01T10:54:39Z</time>
      </trkpt>
      <trkpt lat="46.59368" lon="-0.81334">
        <ele>78.97</ele>
        <time>2021-03-01T10:54:55Z</time>
      </trkpt>
      <trkpt lat="46.59368" lon="-0.81334">
        <ele>78.97</ele>
        <time>2021-03-01T10:55:07Z</time>
      </trkpt>
      <trkpt lat="46.59369" lon="-0.81334">
        <ele>78.97</ele>
        <time>2021-03-01T10:55:19Z</time>
      </trkpt>
      <trkpt lat="46.5937" lon="-0.81334">
        <ele>78.97</ele>
        <time>2021-03-01T10:55:27Z</time>
      </trkpt>
    </trkseg>
  </trk>
</gpx>